<?xml version="1.0" encoding="UTF-8" standalone="no" ?>
<gpx xmlns="http://www.topografix.com/GPX/1/1" xmlns:xsi="http://www.w3.org/2001/XMLSchema-instance" xsi:schemaLocation="http://www.topografix.com/GPX/1/1 http://www.topografix.com/GPX/1/1/gpx.xsd" version="1.1" creator="VisuGPX - https://www.visugpx.com">
  <metadata>
    <name>RocAmadour 2010</name>
    <desc><![CDATA[dimanche 21 mars 2010]]></desc>
  </metadata>
  <wpt lat="45.42676" lon="1.71342">
    <ele>414.21</ele>
    <name><![CDATA[001]]></name>
    <desc><![CDATA[14-JUIL-09 10:56:40]]></desc>
    <cmt><![CDATA[14-JUIL-09 10:56:40]]></cmt>
  </wpt>
  <wpt lat="45.39858" lon="1.85984">
    <ele>585.8</ele>
    <name><![CDATA[002]]></name>
    <desc><![CDATA[16-AOU-09 15:43:20]]></desc>
    <cmt><![CDATA[16-AOU-09 15:43:20]]></cmt>
  </wpt>
  <wpt lat="45.01145" lon="1.31326">
    <ele>296.45</ele>
    <name><![CDATA[003]]></name>
    <desc><![CDATA[23-AOU-09 11:37:17]]></desc>
    <cmt><![CDATA[23-AOU-09 11:37:17]]></cmt>
  </wpt>
  <wpt lat="45.25157" lon="1.76447">
    <ele>206.81</ele>
    <name><![CDATA[HOME]]></name>
    <desc><![CDATA[04-FEV-09 15:42:46]]></desc>
    <cmt><![CDATA[04-FEV-09 15:42:46]]></cmt>
  </wpt>
  <trk>
    <name><![CDATA[RocAmadour: 21 MARS 2010]]></name>
    <trkseg>
      <trkpt lat="44.80243" lon="1.62003">
        <ele>109.25</ele>
        <time>2010-03-21T07:12:51Z</time>
      </trkpt>
      <trkpt lat="44.8025" lon="1.62013">
        <ele>110.69</ele>
        <time>2010-03-21T07:12:58Z</time>
      </trkpt>
      <trkpt lat="44.8025" lon="1.62022">
        <ele>110.69</ele>
        <time>2010-03-21T07:13:01Z</time>
      </trkpt>
      <trkpt lat="44.80264" lon="1.62036">
        <ele>111.17</ele>
        <time>2010-03-21T07:13:11Z</time>
      </trkpt>
      <trkpt lat="44.80267" lon="1.62042">
        <ele>111.65</ele>
        <time>2010-03-21T07:13:15Z</time>
      </trkpt>
      <trkpt lat="44.8027" lon="1.62041">
        <ele>111.65</ele>
        <time>2010-03-21T07:13:18Z</time>
      </trkpt>
      <trkpt lat="44.80277" lon="1.62045">
        <ele>111.65</ele>
        <time>2010-03-21T07:13:23Z</time>
      </trkpt>
      <trkpt lat="44.80286" lon="1.62058">
        <ele>112.13</ele>
        <time>2010-03-21T07:13:31Z</time>
      </trkpt>
      <trkpt lat="44.80293" lon="1.62068">
        <ele>112.13</ele>
        <time>2010-03-21T07:13:41Z</time>
      </trkpt>
      <trkpt lat="44.80293" lon="1.62069">
        <ele>112.61</ele>
        <time>2010-03-21T07:13:42Z</time>
      </trkpt>
      <trkpt lat="44.80298" lon="1.62082">
        <ele>114.53</ele>
        <time>2010-03-21T07:13:49Z</time>
      </trkpt>
      <trkpt lat="44.80303" lon="1.62096">
        <ele>116.46</ele>
        <time>2010-03-21T07:13:55Z</time>
      </trkpt>
      <trkpt lat="44.80307" lon="1.6211">
        <ele>117.42</ele>
        <time>2010-03-21T07:14:00Z</time>
      </trkpt>
      <trkpt lat="44.8031" lon="1.62118">
        <ele>117.9</ele>
        <time>2010-03-21T07:14:04Z</time>
      </trkpt>
      <trkpt lat="44.80313" lon="1.62123">
        <ele>118.38</ele>
        <time>2010-03-21T07:14:07Z</time>
      </trkpt>
      <trkpt lat="44.8032" lon="1.62127">
        <ele>121.74</ele>
        <time>2010-03-21T07:14:14Z</time>
      </trkpt>
      <trkpt lat="44.80324" lon="1.62134">
        <ele>120.78</ele>
        <time>2010-03-21T07:14:22Z</time>
      </trkpt>
      <trkpt lat="44.80335" lon="1.62148">
        <ele>122.71</ele>
        <time>2010-03-21T07:14:31Z</time>
      </trkpt>
      <trkpt lat="44.80343" lon="1.62153">
        <ele>122.71</ele>
        <time>2010-03-21T07:14:38Z</time>
      </trkpt>
      <trkpt lat="44.80344" lon="1.62156">
        <ele>123.19</ele>
        <time>2010-03-21T07:14:39Z</time>
      </trkpt>
      <trkpt lat="44.80344" lon="1.62161">
        <ele>123.67</ele>
        <time>2010-03-21T07:14:41Z</time>
      </trkpt>
      <trkpt lat="44.80352" lon="1.62171">
        <ele>124.63</ele>
        <time>2010-03-21T07:14:50Z</time>
      </trkpt>
      <trkpt lat="44.80355" lon="1.62174">
        <ele>124.63</ele>
        <time>2010-03-21T07:14:53Z</time>
      </trkpt>
      <trkpt lat="44.80362" lon="1.62183">
        <ele>126.55</ele>
        <time>2010-03-21T07:15:00Z</time>
      </trkpt>
      <trkpt lat="44.80367" lon="1.62196">
        <ele>127.03</ele>
        <time>2010-03-21T07:15:07Z</time>
      </trkpt>
      <trkpt lat="44.80368" lon="1.62204">
        <ele>127.51</ele>
        <time>2010-03-21T07:15:10Z</time>
      </trkpt>
      <trkpt lat="44.80375" lon="1.6221">
        <ele>129.43</ele>
        <time>2010-03-21T07:15:19Z</time>
      </trkpt>
      <trkpt lat="44.80378" lon="1.62222">
        <ele>129.92</ele>
        <time>2010-03-21T07:15:26Z</time>
      </trkpt>
      <trkpt lat="44.80381" lon="1.62224">
        <ele>131.36</ele>
        <time>2010-03-21T07:15:28Z</time>
      </trkpt>
      <trkpt lat="44.80387" lon="1.62251">
        <ele>135.2</ele>
        <time>2010-03-21T07:15:43Z</time>
      </trkpt>
      <trkpt lat="44.8039" lon="1.62254">
        <ele>135.2</ele>
        <time>2010-03-21T07:15:46Z</time>
      </trkpt>
      <trkpt lat="44.80389" lon="1.62265">
        <ele>136.16</ele>
        <time>2010-03-21T07:15:51Z</time>
      </trkpt>
      <trkpt lat="44.80395" lon="1.62275">
        <ele>136.64</ele>
        <time>2010-03-21T07:16:00Z</time>
      </trkpt>
      <trkpt lat="44.80395" lon="1.62277">
        <ele>137.61</ele>
        <time>2010-03-21T07:16:02Z</time>
      </trkpt>
      <trkpt lat="44.80397" lon="1.62282">
        <ele>138.57</ele>
        <time>2010-03-21T07:16:06Z</time>
      </trkpt>
      <trkpt lat="44.80398" lon="1.62283">
        <ele>138.09</ele>
        <time>2010-03-21T07:16:08Z</time>
      </trkpt>
      <trkpt lat="44.80398" lon="1.62294">
        <ele>139.05</ele>
        <time>2010-03-21T07:16:13Z</time>
      </trkpt>
      <trkpt lat="44.80404" lon="1.62307">
        <ele>140.97</ele>
        <time>2010-03-21T07:16:22Z</time>
      </trkpt>
      <trkpt lat="44.80405" lon="1.62308">
        <ele>141.93</ele>
        <time>2010-03-21T07:16:24Z</time>
      </trkpt>
      <trkpt lat="44.80404" lon="1.62314">
        <ele>141.93</ele>
        <time>2010-03-21T07:16:27Z</time>
      </trkpt>
      <trkpt lat="44.80409" lon="1.62321">
        <ele>143.37</ele>
        <time>2010-03-21T07:16:33Z</time>
      </trkpt>
      <trkpt lat="44.80416" lon="1.62344">
        <ele>143.85</ele>
        <time>2010-03-21T07:16:45Z</time>
      </trkpt>
      <trkpt lat="44.80414" lon="1.62346">
        <ele>144.82</ele>
        <time>2010-03-21T07:16:49Z</time>
      </trkpt>
      <trkpt lat="44.80411" lon="1.62357">
        <ele>146.26</ele>
        <time>2010-03-21T07:16:54Z</time>
      </trkpt>
      <trkpt lat="44.80414" lon="1.62366">
        <ele>147.7</ele>
        <time>2010-03-21T07:17:01Z</time>
      </trkpt>
      <trkpt lat="44.80415" lon="1.6237">
        <ele>148.18</ele>
        <time>2010-03-21T07:17:02Z</time>
      </trkpt>
      <trkpt lat="44.80417" lon="1.62376">
        <ele>152.51</ele>
        <time>2010-03-21T07:17:07Z</time>
      </trkpt>
      <trkpt lat="44.80416" lon="1.62383">
        <ele>155.39</ele>
        <time>2010-03-21T07:17:11Z</time>
      </trkpt>
      <trkpt lat="44.80417" lon="1.62385">
        <ele>155.87</ele>
        <time>2010-03-21T07:17:12Z</time>
      </trkpt>
      <trkpt lat="44.8042" lon="1.62396">
        <ele>156.83</ele>
        <time>2010-03-21T07:17:16Z</time>
      </trkpt>
      <trkpt lat="44.80421" lon="1.62399">
        <ele>157.31</ele>
        <time>2010-03-21T07:17:19Z</time>
      </trkpt>
      <trkpt lat="44.80424" lon="1.62409">
        <ele>159.24</ele>
        <time>2010-03-21T07:17:25Z</time>
      </trkpt>
      <trkpt lat="44.80419" lon="1.62433">
        <ele>159.72</ele>
        <time>2010-03-21T07:17:33Z</time>
      </trkpt>
      <trkpt lat="44.80418" lon="1.62446">
        <ele>159.72</ele>
        <time>2010-03-21T07:17:38Z</time>
      </trkpt>
      <trkpt lat="44.80417" lon="1.62458">
        <ele>160.2</ele>
        <time>2010-03-21T07:17:44Z</time>
      </trkpt>
      <trkpt lat="44.80416" lon="1.62463">
        <ele>160.68</ele>
        <time>2010-03-21T07:17:46Z</time>
      </trkpt>
      <trkpt lat="44.80416" lon="1.62476">
        <ele>162.12</ele>
        <time>2010-03-21T07:17:55Z</time>
      </trkpt>
      <trkpt lat="44.80414" lon="1.625">
        <ele>163.56</ele>
        <time>2010-03-21T07:18:06Z</time>
      </trkpt>
      <trkpt lat="44.80414" lon="1.62504">
        <ele>164.04</ele>
        <time>2010-03-21T07:18:12Z</time>
      </trkpt>
      <trkpt lat="44.80411" lon="1.62515">
        <ele>165.48</ele>
        <time>2010-03-21T07:18:19Z</time>
      </trkpt>
      <trkpt lat="44.80412" lon="1.62523">
        <ele>168.37</ele>
        <time>2010-03-21T07:18:24Z</time>
      </trkpt>
      <trkpt lat="44.8041" lon="1.62528">
        <ele>170.29</ele>
        <time>2010-03-21T07:18:28Z</time>
      </trkpt>
      <trkpt lat="44.8041" lon="1.62538">
        <ele>172.21</ele>
        <time>2010-03-21T07:18:37Z</time>
      </trkpt>
      <trkpt lat="44.80412" lon="1.62545">
        <ele>172.69</ele>
        <time>2010-03-21T07:18:41Z</time>
      </trkpt>
      <trkpt lat="44.80413" lon="1.62567">
        <ele>174.62</ele>
        <time>2010-03-21T07:18:51Z</time>
      </trkpt>
      <trkpt lat="44.80413" lon="1.62568">
        <ele>175.1</ele>
        <time>2010-03-21T07:18:52Z</time>
      </trkpt>
      <trkpt lat="44.80413" lon="1.62576">
        <ele>175.58</ele>
        <time>2010-03-21T07:18:56Z</time>
      </trkpt>
      <trkpt lat="44.80421" lon="1.62583">
        <ele>177.02</ele>
        <time>2010-03-21T07:19:05Z</time>
      </trkpt>
      <trkpt lat="44.80431" lon="1.6258">
        <ele>178.94</ele>
        <time>2010-03-21T07:19:17Z</time>
      </trkpt>
      <trkpt lat="44.80444" lon="1.62569">
        <ele>178.94</ele>
        <time>2010-03-21T07:19:32Z</time>
      </trkpt>
      <trkpt lat="44.80439" lon="1.62577">
        <ele>179.42</ele>
        <time>2010-03-21T07:19:40Z</time>
      </trkpt>
      <trkpt lat="44.80438" lon="1.62578">
        <ele>179.42</ele>
        <time>2010-03-21T07:19:41Z</time>
      </trkpt>
      <trkpt lat="44.80434" lon="1.62582">
        <ele>178.94</ele>
        <time>2010-03-21T07:19:55Z</time>
      </trkpt>
      <trkpt lat="44.80446" lon="1.62564">
        <ele>178.46</ele>
        <time>2010-03-21T07:20:10Z</time>
      </trkpt>
      <trkpt lat="44.80448" lon="1.62566">
        <ele>178.46</ele>
        <time>2010-03-21T07:20:12Z</time>
      </trkpt>
      <trkpt lat="44.80451" lon="1.62564">
        <ele>179.42</ele>
        <time>2010-03-21T07:20:16Z</time>
      </trkpt>
      <trkpt lat="44.80469" lon="1.62566">
        <ele>179.9</ele>
        <time>2010-03-21T07:20:28Z</time>
      </trkpt>
      <trkpt lat="44.80473" lon="1.6257">
        <ele>178.94</ele>
        <time>2010-03-21T07:20:34Z</time>
      </trkpt>
      <trkpt lat="44.80474" lon="1.6257">
        <ele>178.94</ele>
        <time>2010-03-21T07:20:35Z</time>
      </trkpt>
      <trkpt lat="44.80476" lon="1.62571">
        <ele>178.94</ele>
        <time>2010-03-21T07:20:37Z</time>
      </trkpt>
      <trkpt lat="44.80484" lon="1.62573">
        <ele>179.42</ele>
        <time>2010-03-21T07:20:41Z</time>
      </trkpt>
      <trkpt lat="44.80495" lon="1.62581">
        <ele>180.38</ele>
        <time>2010-03-21T07:20:49Z</time>
      </trkpt>
      <trkpt lat="44.80503" lon="1.62584">
        <ele>181.83</ele>
        <time>2010-03-21T07:20:56Z</time>
      </trkpt>
      <trkpt lat="44.80503" lon="1.6259">
        <ele>181.35</ele>
        <time>2010-03-21T07:21:01Z</time>
      </trkpt>
      <trkpt lat="44.80508" lon="1.62596">
        <ele>181.83</ele>
        <time>2010-03-21T07:21:06Z</time>
      </trkpt>
      <trkpt lat="44.80526" lon="1.62601">
        <ele>180.38</ele>
        <time>2010-03-21T07:21:16Z</time>
      </trkpt>
      <trkpt lat="44.80525" lon="1.62606">
        <ele>180.87</ele>
        <time>2010-03-21T07:21:17Z</time>
      </trkpt>
      <trkpt lat="44.8053" lon="1.62613">
        <ele>180.38</ele>
        <time>2010-03-21T07:21:23Z</time>
      </trkpt>
      <trkpt lat="44.80545" lon="1.62613">
        <ele>179.9</ele>
        <time>2010-03-21T07:21:30Z</time>
      </trkpt>
      <trkpt lat="44.80571" lon="1.62611">
        <ele>179.9</ele>
        <time>2010-03-21T07:21:40Z</time>
      </trkpt>
      <trkpt lat="44.80589" lon="1.62614">
        <ele>179.9</ele>
        <time>2010-03-21T07:21:49Z</time>
      </trkpt>
      <trkpt lat="44.80601" lon="1.62619">
        <ele>179.9</ele>
        <time>2010-03-21T07:21:58Z</time>
      </trkpt>
      <trkpt lat="44.8061" lon="1.6262">
        <ele>178.46</ele>
        <time>2010-03-21T07:22:06Z</time>
      </trkpt>
      <trkpt lat="44.80622" lon="1.62625">
        <ele>178.46</ele>
        <time>2010-03-21T07:22:15Z</time>
      </trkpt>
      <trkpt lat="44.80635" lon="1.62626">
        <ele>178.46</ele>
        <time>2010-03-21T07:22:22Z</time>
      </trkpt>
      <trkpt lat="44.80639" lon="1.62626">
        <ele>179.42</ele>
        <time>2010-03-21T07:22:24Z</time>
      </trkpt>
      <trkpt lat="44.80643" lon="1.62626">
        <ele>179.9</ele>
        <time>2010-03-21T07:22:26Z</time>
      </trkpt>
      <trkpt lat="44.80663" lon="1.62645">
        <ele>177.98</ele>
        <time>2010-03-21T07:22:38Z</time>
      </trkpt>
      <trkpt lat="44.8068" lon="1.62658">
        <ele>178.46</ele>
        <time>2010-03-21T07:22:47Z</time>
      </trkpt>
      <trkpt lat="44.80688" lon="1.62676">
        <ele>178.46</ele>
        <time>2010-03-21T07:22:54Z</time>
      </trkpt>
      <trkpt lat="44.80696" lon="1.62681">
        <ele>177.5</ele>
        <time>2010-03-21T07:22:58Z</time>
      </trkpt>
      <trkpt lat="44.80701" lon="1.62685">
        <ele>177.98</ele>
        <time>2010-03-21T07:23:02Z</time>
      </trkpt>
      <trkpt lat="44.80704" lon="1.62712">
        <ele>177.02</ele>
        <time>2010-03-21T07:23:14Z</time>
      </trkpt>
      <trkpt lat="44.80711" lon="1.62731">
        <ele>176.06</ele>
        <time>2010-03-21T07:23:22Z</time>
      </trkpt>
      <trkpt lat="44.80711" lon="1.62737">
        <ele>175.58</ele>
        <time>2010-03-21T07:23:24Z</time>
      </trkpt>
      <trkpt lat="44.80714" lon="1.62742">
        <ele>175.58</ele>
        <time>2010-03-21T07:23:26Z</time>
      </trkpt>
      <trkpt lat="44.80722" lon="1.62753">
        <ele>175.1</ele>
        <time>2010-03-21T07:23:32Z</time>
      </trkpt>
      <trkpt lat="44.80729" lon="1.62765">
        <ele>174.62</ele>
        <time>2010-03-21T07:23:40Z</time>
      </trkpt>
      <trkpt lat="44.80728" lon="1.6277">
        <ele>174.62</ele>
        <time>2010-03-21T07:23:43Z</time>
      </trkpt>
      <trkpt lat="44.80728" lon="1.62794">
        <ele>173.66</ele>
        <time>2010-03-21T07:23:51Z</time>
      </trkpt>
      <trkpt lat="44.80724" lon="1.62806">
        <ele>173.17</ele>
        <time>2010-03-21T07:23:59Z</time>
      </trkpt>
      <trkpt lat="44.80726" lon="1.62808">
        <ele>173.17</ele>
        <time>2010-03-21T07:24:03Z</time>
      </trkpt>
      <trkpt lat="44.80726" lon="1.6281">
        <ele>173.66</ele>
        <time>2010-03-21T07:24:08Z</time>
      </trkpt>
      <trkpt lat="44.80718" lon="1.62844">
        <ele>173.66</ele>
        <time>2010-03-21T07:24:18Z</time>
      </trkpt>
      <trkpt lat="44.80716" lon="1.62868">
        <ele>172.69</ele>
        <time>2010-03-21T07:24:25Z</time>
      </trkpt>
      <trkpt lat="44.80714" lon="1.62887">
        <ele>173.17</ele>
        <time>2010-03-21T07:24:31Z</time>
      </trkpt>
      <trkpt lat="44.80714" lon="1.62898">
        <ele>173.17</ele>
        <time>2010-03-21T07:24:36Z</time>
      </trkpt>
      <trkpt lat="44.80713" lon="1.62912">
        <ele>173.17</ele>
        <time>2010-03-21T07:24:44Z</time>
      </trkpt>
      <trkpt lat="44.80714" lon="1.62911">
        <ele>172.69</ele>
        <time>2010-03-21T07:24:45Z</time>
      </trkpt>
      <trkpt lat="44.80713" lon="1.62917">
        <ele>172.69</ele>
        <time>2010-03-21T07:24:51Z</time>
      </trkpt>
      <trkpt lat="44.80708" lon="1.62936">
        <ele>172.69</ele>
        <time>2010-03-21T07:24:59Z</time>
      </trkpt>
      <trkpt lat="44.80704" lon="1.62954">
        <ele>174.14</ele>
        <time>2010-03-21T07:25:05Z</time>
      </trkpt>
      <trkpt lat="44.80705" lon="1.62959">
        <ele>173.66</ele>
        <time>2010-03-21T07:25:07Z</time>
      </trkpt>
      <trkpt lat="44.80704" lon="1.62967">
        <ele>173.66</ele>
        <time>2010-03-21T07:25:11Z</time>
      </trkpt>
      <trkpt lat="44.80705" lon="1.62973">
        <ele>174.14</ele>
        <time>2010-03-21T07:25:14Z</time>
      </trkpt>
      <trkpt lat="44.80705" lon="1.62985">
        <ele>175.58</ele>
        <time>2010-03-21T07:25:22Z</time>
      </trkpt>
      <trkpt lat="44.80705" lon="1.62986">
        <ele>178.46</ele>
        <time>2010-03-21T07:25:25Z</time>
      </trkpt>
      <trkpt lat="44.80703" lon="1.63002">
        <ele>181.35</ele>
        <time>2010-03-21T07:25:33Z</time>
      </trkpt>
      <trkpt lat="44.80711" lon="1.63019">
        <ele>180.87</ele>
        <time>2010-03-21T07:25:40Z</time>
      </trkpt>
      <trkpt lat="44.80715" lon="1.63024">
        <ele>182.31</ele>
        <time>2010-03-21T07:25:44Z</time>
      </trkpt>
      <trkpt lat="44.80716" lon="1.63033">
        <ele>181.35</ele>
        <time>2010-03-21T07:25:48Z</time>
      </trkpt>
      <trkpt lat="44.80713" lon="1.63044">
        <ele>182.31</ele>
        <time>2010-03-21T07:25:51Z</time>
      </trkpt>
      <trkpt lat="44.80711" lon="1.63063">
        <ele>182.79</ele>
        <time>2010-03-21T07:25:58Z</time>
      </trkpt>
      <trkpt lat="44.8071" lon="1.63077">
        <ele>183.27</ele>
        <time>2010-03-21T07:26:03Z</time>
      </trkpt>
      <trkpt lat="44.80712" lon="1.63087">
        <ele>182.31</ele>
        <time>2010-03-21T07:26:08Z</time>
      </trkpt>
      <trkpt lat="44.80714" lon="1.63092">
        <ele>181.83</ele>
        <time>2010-03-21T07:26:10Z</time>
      </trkpt>
      <trkpt lat="44.80714" lon="1.631">
        <ele>180.87</ele>
        <time>2010-03-21T07:26:15Z</time>
      </trkpt>
      <trkpt lat="44.80714" lon="1.63135">
        <ele>180.38</ele>
        <time>2010-03-21T07:26:28Z</time>
      </trkpt>
      <trkpt lat="44.80717" lon="1.63146">
        <ele>181.35</ele>
        <time>2010-03-21T07:26:34Z</time>
      </trkpt>
      <trkpt lat="44.80714" lon="1.63154">
        <ele>181.83</ele>
        <time>2010-03-21T07:26:42Z</time>
      </trkpt>
      <trkpt lat="44.80712" lon="1.63165">
        <ele>182.79</ele>
        <time>2010-03-21T07:26:50Z</time>
      </trkpt>
      <trkpt lat="44.80712" lon="1.63176">
        <ele>182.79</ele>
        <time>2010-03-21T07:26:55Z</time>
      </trkpt>
      <trkpt lat="44.80709" lon="1.63188">
        <ele>183.27</ele>
        <time>2010-03-21T07:26:59Z</time>
      </trkpt>
      <trkpt lat="44.80707" lon="1.63196">
        <ele>183.75</ele>
        <time>2010-03-21T07:27:02Z</time>
      </trkpt>
      <trkpt lat="44.80706" lon="1.63207">
        <ele>183.75</ele>
        <time>2010-03-21T07:27:10Z</time>
      </trkpt>
      <trkpt lat="44.80705" lon="1.6321">
        <ele>182.79</ele>
        <time>2010-03-21T07:27:11Z</time>
      </trkpt>
      <trkpt lat="44.80705" lon="1.63213">
        <ele>183.27</ele>
        <time>2010-03-21T07:27:13Z</time>
      </trkpt>
      <trkpt lat="44.80704" lon="1.63242">
        <ele>183.75</ele>
        <time>2010-03-21T07:27:22Z</time>
      </trkpt>
      <trkpt lat="44.80702" lon="1.63258">
        <ele>182.79</ele>
        <time>2010-03-21T07:27:27Z</time>
      </trkpt>
      <trkpt lat="44.80694" lon="1.63268">
        <ele>183.75</ele>
        <time>2010-03-21T07:27:34Z</time>
      </trkpt>
      <trkpt lat="44.80694" lon="1.63276">
        <ele>183.27</ele>
        <time>2010-03-21T07:27:36Z</time>
      </trkpt>
      <trkpt lat="44.80692" lon="1.6328">
        <ele>183.27</ele>
        <time>2010-03-21T07:27:42Z</time>
      </trkpt>
      <trkpt lat="44.8069" lon="1.63294">
        <ele>183.75</ele>
        <time>2010-03-21T07:27:45Z</time>
      </trkpt>
      <trkpt lat="44.80695" lon="1.633">
        <ele>184.23</ele>
        <time>2010-03-21T07:27:50Z</time>
      </trkpt>
      <trkpt lat="44.80693" lon="1.6331">
        <ele>183.27</ele>
        <time>2010-03-21T07:27:54Z</time>
      </trkpt>
      <trkpt lat="44.80691" lon="1.63328">
        <ele>184.71</ele>
        <time>2010-03-21T07:28:01Z</time>
      </trkpt>
      <trkpt lat="44.8069" lon="1.63346">
        <ele>184.23</ele>
        <time>2010-03-21T07:28:10Z</time>
      </trkpt>
      <trkpt lat="44.80689" lon="1.63359">
        <ele>184.23</ele>
        <time>2010-03-21T07:28:15Z</time>
      </trkpt>
      <trkpt lat="44.80684" lon="1.63383">
        <ele>184.71</ele>
        <time>2010-03-21T07:28:24Z</time>
      </trkpt>
      <trkpt lat="44.80682" lon="1.63388">
        <ele>184.23</ele>
        <time>2010-03-21T07:28:33Z</time>
      </trkpt>
      <trkpt lat="44.80679" lon="1.63403">
        <ele>185.19</ele>
        <time>2010-03-21T07:28:39Z</time>
      </trkpt>
      <trkpt lat="44.80675" lon="1.63412">
        <ele>185.67</ele>
        <time>2010-03-21T07:28:48Z</time>
      </trkpt>
      <trkpt lat="44.80672" lon="1.63422">
        <ele>186.15</ele>
        <time>2010-03-21T07:28:52Z</time>
      </trkpt>
      <trkpt lat="44.80669" lon="1.63431">
        <ele>186.63</ele>
        <time>2010-03-21T07:28:58Z</time>
      </trkpt>
      <trkpt lat="44.80668" lon="1.63442">
        <ele>186.63</ele>
        <time>2010-03-21T07:29:05Z</time>
      </trkpt>
      <trkpt lat="44.80665" lon="1.63461">
        <ele>187.59</ele>
        <time>2010-03-21T07:29:13Z</time>
      </trkpt>
      <trkpt lat="44.80665" lon="1.63464">
        <ele>187.11</ele>
        <time>2010-03-21T07:29:17Z</time>
      </trkpt>
      <trkpt lat="44.80663" lon="1.6348">
        <ele>187.59</ele>
        <time>2010-03-21T07:29:24Z</time>
      </trkpt>
      <trkpt lat="44.80662" lon="1.63491">
        <ele>187.11</ele>
        <time>2010-03-21T07:29:28Z</time>
      </trkpt>
      <trkpt lat="44.80658" lon="1.63497">
        <ele>188.08</ele>
        <time>2010-03-21T07:29:35Z</time>
      </trkpt>
      <trkpt lat="44.80658" lon="1.63498">
        <ele>188.56</ele>
        <time>2010-03-21T07:29:36Z</time>
      </trkpt>
      <trkpt lat="44.80656" lon="1.63512">
        <ele>188.56</ele>
        <time>2010-03-21T07:29:39Z</time>
      </trkpt>
      <trkpt lat="44.80661" lon="1.6353">
        <ele>188.56</ele>
        <time>2010-03-21T07:29:45Z</time>
      </trkpt>
      <trkpt lat="44.80666" lon="1.63537">
        <ele>188.56</ele>
        <time>2010-03-21T07:29:52Z</time>
      </trkpt>
      <trkpt lat="44.80672" lon="1.63546">
        <ele>188.56</ele>
        <time>2010-03-21T07:29:58Z</time>
      </trkpt>
      <trkpt lat="44.80673" lon="1.6355">
        <ele>188.56</ele>
        <time>2010-03-21T07:30:00Z</time>
      </trkpt>
      <trkpt lat="44.80673" lon="1.63553">
        <ele>188.56</ele>
        <time>2010-03-21T07:30:02Z</time>
      </trkpt>
      <trkpt lat="44.80684" lon="1.63561">
        <ele>188.56</ele>
        <time>2010-03-21T07:30:09Z</time>
      </trkpt>
      <trkpt lat="44.80702" lon="1.63573">
        <ele>187.11</ele>
        <time>2010-03-21T07:30:18Z</time>
      </trkpt>
      <trkpt lat="44.80704" lon="1.63575">
        <ele>187.11</ele>
        <time>2010-03-21T07:30:19Z</time>
      </trkpt>
      <trkpt lat="44.80719" lon="1.63585">
        <ele>186.15</ele>
        <time>2010-03-21T07:30:27Z</time>
      </trkpt>
      <trkpt lat="44.80722" lon="1.63592">
        <ele>185.67</ele>
        <time>2010-03-21T07:30:33Z</time>
      </trkpt>
      <trkpt lat="44.80725" lon="1.63611">
        <ele>185.19</ele>
        <time>2010-03-21T07:30:38Z</time>
      </trkpt>
      <trkpt lat="44.8073" lon="1.63624">
        <ele>185.19</ele>
        <time>2010-03-21T07:30:47Z</time>
      </trkpt>
      <trkpt lat="44.80731" lon="1.63627">
        <ele>186.15</ele>
        <time>2010-03-21T07:30:48Z</time>
      </trkpt>
      <trkpt lat="44.80737" lon="1.63649">
        <ele>185.67</ele>
        <time>2010-03-21T07:30:56Z</time>
      </trkpt>
      <trkpt lat="44.80745" lon="1.63662">
        <ele>185.67</ele>
        <time>2010-03-21T07:31:04Z</time>
      </trkpt>
      <trkpt lat="44.8075" lon="1.63674">
        <ele>185.67</ele>
        <time>2010-03-21T07:31:10Z</time>
      </trkpt>
      <trkpt lat="44.80756" lon="1.63689">
        <ele>186.63</ele>
        <time>2010-03-21T07:31:17Z</time>
      </trkpt>
      <trkpt lat="44.80758" lon="1.63702">
        <ele>186.63</ele>
        <time>2010-03-21T07:31:24Z</time>
      </trkpt>
      <trkpt lat="44.80762" lon="1.63728">
        <ele>190</ele>
        <time>2010-03-21T07:31:32Z</time>
      </trkpt>
      <trkpt lat="44.80767" lon="1.63732">
        <ele>192.88</ele>
        <time>2010-03-21T07:31:40Z</time>
      </trkpt>
      <trkpt lat="44.80769" lon="1.63748">
        <ele>193.36</ele>
        <time>2010-03-21T07:31:49Z</time>
      </trkpt>
      <trkpt lat="44.80774" lon="1.63758">
        <ele>193.36</ele>
        <time>2010-03-21T07:31:54Z</time>
      </trkpt>
      <trkpt lat="44.80783" lon="1.63764">
        <ele>192.88</ele>
        <time>2010-03-21T07:32:02Z</time>
      </trkpt>
      <trkpt lat="44.80786" lon="1.63792">
        <ele>192.4</ele>
        <time>2010-03-21T07:32:10Z</time>
      </trkpt>
      <trkpt lat="44.8079" lon="1.63801">
        <ele>191.92</ele>
        <time>2010-03-21T07:32:14Z</time>
      </trkpt>
      <trkpt lat="44.80796" lon="1.63804">
        <ele>191.92</ele>
        <time>2010-03-21T07:32:18Z</time>
      </trkpt>
      <trkpt lat="44.80796" lon="1.6382">
        <ele>192.4</ele>
        <time>2010-03-21T07:32:27Z</time>
      </trkpt>
      <trkpt lat="44.80796" lon="1.63829">
        <ele>191.92</ele>
        <time>2010-03-21T07:32:30Z</time>
      </trkpt>
      <trkpt lat="44.808" lon="1.63852">
        <ele>191.92</ele>
        <time>2010-03-21T07:32:40Z</time>
      </trkpt>
      <trkpt lat="44.80805" lon="1.63856">
        <ele>191.92</ele>
        <time>2010-03-21T07:32:46Z</time>
      </trkpt>
      <trkpt lat="44.80809" lon="1.63873">
        <ele>192.88</ele>
        <time>2010-03-21T07:32:53Z</time>
      </trkpt>
      <trkpt lat="44.8081" lon="1.63886">
        <ele>191.92</ele>
        <time>2010-03-21T07:32:58Z</time>
      </trkpt>
      <trkpt lat="44.80815" lon="1.63894">
        <ele>191.92</ele>
        <time>2010-03-21T07:33:02Z</time>
      </trkpt>
      <trkpt lat="44.80819" lon="1.63898">
        <ele>192.4</ele>
        <time>2010-03-21T07:33:05Z</time>
      </trkpt>
      <trkpt lat="44.80821" lon="1.63903">
        <ele>192.88</ele>
        <time>2010-03-21T07:33:08Z</time>
      </trkpt>
      <trkpt lat="44.80823" lon="1.63904">
        <ele>195.77</ele>
        <time>2010-03-21T07:33:12Z</time>
      </trkpt>
      <trkpt lat="44.80823" lon="1.63905">
        <ele>195.77</ele>
        <time>2010-03-21T07:33:13Z</time>
      </trkpt>
      <trkpt lat="44.80827" lon="1.63914">
        <ele>197.21</ele>
        <time>2010-03-21T07:33:17Z</time>
      </trkpt>
      <trkpt lat="44.80831" lon="1.63925">
        <ele>197.69</ele>
        <time>2010-03-21T07:33:21Z</time>
      </trkpt>
      <trkpt lat="44.80837" lon="1.63939">
        <ele>199.13</ele>
        <time>2010-03-21T07:33:29Z</time>
      </trkpt>
      <trkpt lat="44.80839" lon="1.63946">
        <ele>199.13</ele>
        <time>2010-03-21T07:33:33Z</time>
      </trkpt>
      <trkpt lat="44.80845" lon="1.63961">
        <ele>200.57</ele>
        <time>2010-03-21T07:33:41Z</time>
      </trkpt>
      <trkpt lat="44.80854" lon="1.63979">
        <ele>200.57</ele>
        <time>2010-03-21T07:33:50Z</time>
      </trkpt>
      <trkpt lat="44.80855" lon="1.63993">
        <ele>201.05</ele>
        <time>2010-03-21T07:33:57Z</time>
      </trkpt>
      <trkpt lat="44.80857" lon="1.64003">
        <ele>200.57</ele>
        <time>2010-03-21T07:34:01Z</time>
      </trkpt>
      <trkpt lat="44.80861" lon="1.64019">
        <ele>200.57</ele>
        <time>2010-03-21T07:34:12Z</time>
      </trkpt>
      <trkpt lat="44.80865" lon="1.64034">
        <ele>200.09</ele>
        <time>2010-03-21T07:34:19Z</time>
      </trkpt>
      <trkpt lat="44.80861" lon="1.64057">
        <ele>200.57</ele>
        <time>2010-03-21T07:34:25Z</time>
      </trkpt>
      <trkpt lat="44.80865" lon="1.64067">
        <ele>200.57</ele>
        <time>2010-03-21T07:34:33Z</time>
      </trkpt>
      <trkpt lat="44.80866" lon="1.64074">
        <ele>201.05</ele>
        <time>2010-03-21T07:34:38Z</time>
      </trkpt>
      <trkpt lat="44.8087" lon="1.64085">
        <ele>200.57</ele>
        <time>2010-03-21T07:34:44Z</time>
      </trkpt>
      <trkpt lat="44.80865" lon="1.64101">
        <ele>200.57</ele>
        <time>2010-03-21T07:34:48Z</time>
      </trkpt>
      <trkpt lat="44.80865" lon="1.6411">
        <ele>199.13</ele>
        <time>2010-03-21T07:34:53Z</time>
      </trkpt>
      <trkpt lat="44.80869" lon="1.64125">
        <ele>199.61</ele>
        <time>2010-03-21T07:35:02Z</time>
      </trkpt>
      <trkpt lat="44.80871" lon="1.64127">
        <ele>199.13</ele>
        <time>2010-03-21T07:35:04Z</time>
      </trkpt>
      <trkpt lat="44.80871" lon="1.64145">
        <ele>199.61</ele>
        <time>2010-03-21T07:35:10Z</time>
      </trkpt>
      <trkpt lat="44.80876" lon="1.64176">
        <ele>199.13</ele>
        <time>2010-03-21T07:35:22Z</time>
      </trkpt>
      <trkpt lat="44.80877" lon="1.64185">
        <ele>199.13</ele>
        <time>2010-03-21T07:35:25Z</time>
      </trkpt>
      <trkpt lat="44.80879" lon="1.64186">
        <ele>199.13</ele>
        <time>2010-03-21T07:35:29Z</time>
      </trkpt>
      <trkpt lat="44.80883" lon="1.64189">
        <ele>199.61</ele>
        <time>2010-03-21T07:35:34Z</time>
      </trkpt>
      <trkpt lat="44.80889" lon="1.64202">
        <ele>199.61</ele>
        <time>2010-03-21T07:35:41Z</time>
      </trkpt>
      <trkpt lat="44.80892" lon="1.64217">
        <ele>198.17</ele>
        <time>2010-03-21T07:35:48Z</time>
      </trkpt>
      <trkpt lat="44.80893" lon="1.64216">
        <ele>199.61</ele>
        <time>2010-03-21T07:35:49Z</time>
      </trkpt>
      <trkpt lat="44.80896" lon="1.64232">
        <ele>199.61</ele>
        <time>2010-03-21T07:35:53Z</time>
      </trkpt>
      <trkpt lat="44.80902" lon="1.64243">
        <ele>198.65</ele>
        <time>2010-03-21T07:36:00Z</time>
      </trkpt>
      <trkpt lat="44.80899" lon="1.64259">
        <ele>198.65</ele>
        <time>2010-03-21T07:36:03Z</time>
      </trkpt>
      <trkpt lat="44.80904" lon="1.64268">
        <ele>198.17</ele>
        <time>2010-03-21T07:36:08Z</time>
      </trkpt>
      <trkpt lat="44.80909" lon="1.64276">
        <ele>199.13</ele>
        <time>2010-03-21T07:36:15Z</time>
      </trkpt>
      <trkpt lat="44.80912" lon="1.64297">
        <ele>198.65</ele>
        <time>2010-03-21T07:36:23Z</time>
      </trkpt>
      <trkpt lat="44.8091" lon="1.64321">
        <ele>199.61</ele>
        <time>2010-03-21T07:36:32Z</time>
      </trkpt>
      <trkpt lat="44.80914" lon="1.64317">
        <ele>199.61</ele>
        <time>2010-03-21T07:36:34Z</time>
      </trkpt>
      <trkpt lat="44.80913" lon="1.6434">
        <ele>200.09</ele>
        <time>2010-03-21T07:36:43Z</time>
      </trkpt>
      <trkpt lat="44.80925" lon="1.64348">
        <ele>198.17</ele>
        <time>2010-03-21T07:36:53Z</time>
      </trkpt>
      <trkpt lat="44.80926" lon="1.64353">
        <ele>197.69</ele>
        <time>2010-03-21T07:36:55Z</time>
      </trkpt>
      <trkpt lat="44.80929" lon="1.64354">
        <ele>198.65</ele>
        <time>2010-03-21T07:36:57Z</time>
      </trkpt>
      <trkpt lat="44.8093" lon="1.64359">
        <ele>198.65</ele>
        <time>2010-03-21T07:37:00Z</time>
      </trkpt>
      <trkpt lat="44.80934" lon="1.64372">
        <ele>199.13</ele>
        <time>2010-03-21T07:37:06Z</time>
      </trkpt>
      <trkpt lat="44.80939" lon="1.64392">
        <ele>200.57</ele>
        <time>2010-03-21T07:37:16Z</time>
      </trkpt>
      <trkpt lat="44.80942" lon="1.64411">
        <ele>201.53</ele>
        <time>2010-03-21T07:37:26Z</time>
      </trkpt>
      <trkpt lat="44.80949" lon="1.64422">
        <ele>202.49</ele>
        <time>2010-03-21T07:37:36Z</time>
      </trkpt>
      <trkpt lat="44.8095" lon="1.6443">
        <ele>202.98</ele>
        <time>2010-03-21T07:37:40Z</time>
      </trkpt>
      <trkpt lat="44.8096" lon="1.64448">
        <ele>204.42</ele>
        <time>2010-03-21T07:37:50Z</time>
      </trkpt>
      <trkpt lat="44.80961" lon="1.64451">
        <ele>204.42</ele>
        <time>2010-03-21T07:37:53Z</time>
      </trkpt>
      <trkpt lat="44.80963" lon="1.64459">
        <ele>204.42</ele>
        <time>2010-03-21T07:37:57Z</time>
      </trkpt>
      <trkpt lat="44.80969" lon="1.6448">
        <ele>206.34</ele>
        <time>2010-03-21T07:38:06Z</time>
      </trkpt>
      <trkpt lat="44.80973" lon="1.64491">
        <ele>205.86</ele>
        <time>2010-03-21T07:38:11Z</time>
      </trkpt>
      <trkpt lat="44.80978" lon="1.64497">
        <ele>205.86</ele>
        <time>2010-03-21T07:38:16Z</time>
      </trkpt>
      <trkpt lat="44.80984" lon="1.6451">
        <ele>206.82</ele>
        <time>2010-03-21T07:38:23Z</time>
      </trkpt>
      <trkpt lat="44.80983" lon="1.64537">
        <ele>206.34</ele>
        <time>2010-03-21T07:38:33Z</time>
      </trkpt>
      <trkpt lat="44.80982" lon="1.64559">
        <ele>205.38</ele>
        <time>2010-03-21T07:38:42Z</time>
      </trkpt>
      <trkpt lat="44.80981" lon="1.64562">
        <ele>206.34</ele>
        <time>2010-03-21T07:38:45Z</time>
      </trkpt>
      <trkpt lat="44.80982" lon="1.64578">
        <ele>205.38</ele>
        <time>2010-03-21T07:38:51Z</time>
      </trkpt>
      <trkpt lat="44.80986" lon="1.64598">
        <ele>205.38</ele>
        <time>2010-03-21T07:38:59Z</time>
      </trkpt>
      <trkpt lat="44.80984" lon="1.64618">
        <ele>204.9</ele>
        <time>2010-03-21T07:39:06Z</time>
      </trkpt>
      <trkpt lat="44.80984" lon="1.64627">
        <ele>205.38</ele>
        <time>2010-03-21T07:39:11Z</time>
      </trkpt>
      <trkpt lat="44.80987" lon="1.64631">
        <ele>203.94</ele>
        <time>2010-03-21T07:39:18Z</time>
      </trkpt>
      <trkpt lat="44.80987" lon="1.64639">
        <ele>204.42</ele>
        <time>2010-03-21T07:39:22Z</time>
      </trkpt>
      <trkpt lat="44.8099" lon="1.64656">
        <ele>204.9</ele>
        <time>2010-03-21T07:39:29Z</time>
      </trkpt>
      <trkpt lat="44.8099" lon="1.64663">
        <ele>203.94</ele>
        <time>2010-03-21T07:39:31Z</time>
      </trkpt>
      <trkpt lat="44.8099" lon="1.6467">
        <ele>204.42</ele>
        <time>2010-03-21T07:39:33Z</time>
      </trkpt>
      <trkpt lat="44.80992" lon="1.64675">
        <ele>203.94</ele>
        <time>2010-03-21T07:39:35Z</time>
      </trkpt>
      <trkpt lat="44.80993" lon="1.64691">
        <ele>204.9</ele>
        <time>2010-03-21T07:39:44Z</time>
      </trkpt>
      <trkpt lat="44.81" lon="1.64705">
        <ele>204.42</ele>
        <time>2010-03-21T07:39:54Z</time>
      </trkpt>
      <trkpt lat="44.81004" lon="1.64708">
        <ele>204.42</ele>
        <time>2010-03-21T07:39:57Z</time>
      </trkpt>
      <trkpt lat="44.81016" lon="1.64719">
        <ele>203.46</ele>
        <time>2010-03-21T07:40:06Z</time>
      </trkpt>
      <trkpt lat="44.81018" lon="1.64721">
        <ele>202.49</ele>
        <time>2010-03-21T07:40:07Z</time>
      </trkpt>
      <trkpt lat="44.81029" lon="1.64726">
        <ele>203.46</ele>
        <time>2010-03-21T07:40:12Z</time>
      </trkpt>
      <trkpt lat="44.81033" lon="1.64734">
        <ele>202.01</ele>
        <time>2010-03-21T07:40:18Z</time>
      </trkpt>
      <trkpt lat="44.81043" lon="1.64731">
        <ele>201.53</ele>
        <time>2010-03-21T07:40:27Z</time>
      </trkpt>
      <trkpt lat="44.81044" lon="1.64732">
        <ele>201.53</ele>
        <time>2010-03-21T07:40:28Z</time>
      </trkpt>
      <trkpt lat="44.81051" lon="1.64737">
        <ele>200.57</ele>
        <time>2010-03-21T07:40:34Z</time>
      </trkpt>
      <trkpt lat="44.81055" lon="1.64737">
        <ele>200.57</ele>
        <time>2010-03-21T07:40:36Z</time>
      </trkpt>
      <trkpt lat="44.81059" lon="1.64739">
        <ele>200.57</ele>
        <time>2010-03-21T07:40:39Z</time>
      </trkpt>
      <trkpt lat="44.81066" lon="1.64737">
        <ele>200.57</ele>
        <time>2010-03-21T07:40:43Z</time>
      </trkpt>
      <trkpt lat="44.81083" lon="1.64744">
        <ele>200.09</ele>
        <time>2010-03-21T07:40:52Z</time>
      </trkpt>
      <trkpt lat="44.8109" lon="1.64756">
        <ele>201.05</ele>
        <time>2010-03-21T07:40:59Z</time>
      </trkpt>
      <trkpt lat="44.81094" lon="1.64759">
        <ele>201.05</ele>
        <time>2010-03-21T07:41:03Z</time>
      </trkpt>
      <trkpt lat="44.81098" lon="1.64762">
        <ele>200.09</ele>
        <time>2010-03-21T07:41:09Z</time>
      </trkpt>
      <trkpt lat="44.8112" lon="1.6477">
        <ele>200.09</ele>
        <time>2010-03-21T07:41:20Z</time>
      </trkpt>
      <trkpt lat="44.81125" lon="1.64777">
        <ele>201.53</ele>
        <time>2010-03-21T07:41:24Z</time>
      </trkpt>
      <trkpt lat="44.81134" lon="1.6479">
        <ele>201.05</ele>
        <time>2010-03-21T07:41:33Z</time>
      </trkpt>
      <trkpt lat="44.81141" lon="1.64793">
        <ele>202.01</ele>
        <time>2010-03-21T07:41:39Z</time>
      </trkpt>
      <trkpt lat="44.81158" lon="1.64808">
        <ele>202.49</ele>
        <time>2010-03-21T07:41:51Z</time>
      </trkpt>
      <trkpt lat="44.81163" lon="1.64813">
        <ele>202.01</ele>
        <time>2010-03-21T07:41:54Z</time>
      </trkpt>
      <trkpt lat="44.81167" lon="1.6482">
        <ele>202.49</ele>
        <time>2010-03-21T07:41:58Z</time>
      </trkpt>
      <trkpt lat="44.81177" lon="1.64829">
        <ele>202.98</ele>
        <time>2010-03-21T07:42:08Z</time>
      </trkpt>
      <trkpt lat="44.81185" lon="1.64828">
        <ele>202.98</ele>
        <time>2010-03-21T07:42:12Z</time>
      </trkpt>
      <trkpt lat="44.81196" lon="1.64838">
        <ele>203.94</ele>
        <time>2010-03-21T07:42:21Z</time>
      </trkpt>
      <trkpt lat="44.81202" lon="1.64842">
        <ele>203.46</ele>
        <time>2010-03-21T07:42:25Z</time>
      </trkpt>
      <trkpt lat="44.81215" lon="1.64842">
        <ele>203.46</ele>
        <time>2010-03-21T07:42:31Z</time>
      </trkpt>
      <trkpt lat="44.81222" lon="1.64847">
        <ele>203.94</ele>
        <time>2010-03-21T07:42:38Z</time>
      </trkpt>
      <trkpt lat="44.81237" lon="1.6485">
        <ele>203.46</ele>
        <time>2010-03-21T07:42:47Z</time>
      </trkpt>
      <trkpt lat="44.81254" lon="1.64859">
        <ele>203.94</ele>
        <time>2010-03-21T07:42:59Z</time>
      </trkpt>
      <trkpt lat="44.81258" lon="1.64858">
        <ele>203.46</ele>
        <time>2010-03-21T07:43:01Z</time>
      </trkpt>
      <trkpt lat="44.8126" lon="1.64858">
        <ele>203.46</ele>
        <time>2010-03-21T07:43:03Z</time>
      </trkpt>
      <trkpt lat="44.81265" lon="1.64859">
        <ele>204.42</ele>
        <time>2010-03-21T07:43:07Z</time>
      </trkpt>
      <trkpt lat="44.81268" lon="1.64863">
        <ele>204.42</ele>
        <time>2010-03-21T07:43:09Z</time>
      </trkpt>
      <trkpt lat="44.81281" lon="1.64857">
        <ele>204.9</ele>
        <time>2010-03-21T07:43:18Z</time>
      </trkpt>
      <trkpt lat="44.81285" lon="1.64857">
        <ele>204.42</ele>
        <time>2010-03-21T07:43:20Z</time>
      </trkpt>
      <trkpt lat="44.81294" lon="1.64856">
        <ele>204.42</ele>
        <time>2010-03-21T07:43:26Z</time>
      </trkpt>
      <trkpt lat="44.81295" lon="1.64857">
        <ele>204.42</ele>
        <time>2010-03-21T07:43:28Z</time>
      </trkpt>
      <trkpt lat="44.81304" lon="1.64864">
        <ele>203.94</ele>
        <time>2010-03-21T07:43:34Z</time>
      </trkpt>
      <trkpt lat="44.81317" lon="1.64864">
        <ele>204.42</ele>
        <time>2010-03-21T07:43:42Z</time>
      </trkpt>
      <trkpt lat="44.81326" lon="1.64868">
        <ele>204.9</ele>
        <time>2010-03-21T07:43:47Z</time>
      </trkpt>
      <trkpt lat="44.81336" lon="1.64886">
        <ele>202.98</ele>
        <time>2010-03-21T07:43:58Z</time>
      </trkpt>
      <trkpt lat="44.81338" lon="1.6489">
        <ele>203.46</ele>
        <time>2010-03-21T07:44:00Z</time>
      </trkpt>
      <trkpt lat="44.81341" lon="1.64893">
        <ele>202.98</ele>
        <time>2010-03-21T07:44:02Z</time>
      </trkpt>
      <trkpt lat="44.8135" lon="1.64901">
        <ele>203.46</ele>
        <time>2010-03-21T07:44:09Z</time>
      </trkpt>
      <trkpt lat="44.8136" lon="1.64915">
        <ele>202.98</ele>
        <time>2010-03-21T07:44:16Z</time>
      </trkpt>
      <trkpt lat="44.81369" lon="1.64919">
        <ele>203.46</ele>
        <time>2010-03-21T07:44:24Z</time>
      </trkpt>
      <trkpt lat="44.8137" lon="1.64937">
        <ele>202.98</ele>
        <time>2010-03-21T07:44:30Z</time>
      </trkpt>
      <trkpt lat="44.81372" lon="1.64942">
        <ele>202.01</ele>
        <time>2010-03-21T07:44:32Z</time>
      </trkpt>
      <trkpt lat="44.81375" lon="1.64956">
        <ele>202.01</ele>
        <time>2010-03-21T07:44:39Z</time>
      </trkpt>
      <trkpt lat="44.81382" lon="1.64955">
        <ele>202.01</ele>
        <time>2010-03-21T07:44:43Z</time>
      </trkpt>
      <trkpt lat="44.81387" lon="1.6496">
        <ele>202.01</ele>
        <time>2010-03-21T07:44:50Z</time>
      </trkpt>
      <trkpt lat="44.8139" lon="1.64972">
        <ele>201.05</ele>
        <time>2010-03-21T07:44:54Z</time>
      </trkpt>
      <trkpt lat="44.81391" lon="1.64986">
        <ele>201.53</ele>
        <time>2010-03-21T07:44:58Z</time>
      </trkpt>
      <trkpt lat="44.81398" lon="1.64994">
        <ele>200.57</ele>
        <time>2010-03-21T07:45:03Z</time>
      </trkpt>
      <trkpt lat="44.81405" lon="1.64997">
        <ele>200.57</ele>
        <time>2010-03-21T07:45:07Z</time>
      </trkpt>
      <trkpt lat="44.81411" lon="1.65002">
        <ele>200.57</ele>
        <time>2010-03-21T07:45:11Z</time>
      </trkpt>
      <trkpt lat="44.81413" lon="1.65007">
        <ele>199.61</ele>
        <time>2010-03-21T07:45:14Z</time>
      </trkpt>
      <trkpt lat="44.8142" lon="1.6502">
        <ele>199.61</ele>
        <time>2010-03-21T07:45:23Z</time>
      </trkpt>
      <trkpt lat="44.81432" lon="1.65042">
        <ele>198.65</ele>
        <time>2010-03-21T07:45:33Z</time>
      </trkpt>
      <trkpt lat="44.81438" lon="1.6505">
        <ele>199.13</ele>
        <time>2010-03-21T07:45:39Z</time>
      </trkpt>
      <trkpt lat="44.81439" lon="1.65059">
        <ele>199.13</ele>
        <time>2010-03-21T07:45:42Z</time>
      </trkpt>
      <trkpt lat="44.81445" lon="1.65071">
        <ele>198.17</ele>
        <time>2010-03-21T07:45:48Z</time>
      </trkpt>
      <trkpt lat="44.81449" lon="1.65073">
        <ele>197.69</ele>
        <time>2010-03-21T07:45:53Z</time>
      </trkpt>
      <trkpt lat="44.81458" lon="1.65095">
        <ele>197.69</ele>
        <time>2010-03-21T07:46:02Z</time>
      </trkpt>
      <trkpt lat="44.81468" lon="1.65109">
        <ele>197.69</ele>
        <time>2010-03-21T07:46:10Z</time>
      </trkpt>
      <trkpt lat="44.81471" lon="1.65118">
        <ele>197.21</ele>
        <time>2010-03-21T07:46:14Z</time>
      </trkpt>
      <trkpt lat="44.81477" lon="1.65137">
        <ele>197.21</ele>
        <time>2010-03-21T07:46:23Z</time>
      </trkpt>
      <trkpt lat="44.81478" lon="1.6514">
        <ele>197.21</ele>
        <time>2010-03-21T07:46:25Z</time>
      </trkpt>
      <trkpt lat="44.81486" lon="1.65151">
        <ele>196.73</ele>
        <time>2010-03-21T07:46:33Z</time>
      </trkpt>
      <trkpt lat="44.81493" lon="1.65171">
        <ele>200.09</ele>
        <time>2010-03-21T07:46:43Z</time>
      </trkpt>
      <trkpt lat="44.81495" lon="1.65171">
        <ele>200.57</ele>
        <time>2010-03-21T07:46:44Z</time>
      </trkpt>
      <trkpt lat="44.81502" lon="1.65182">
        <ele>202.01</ele>
        <time>2010-03-21T07:46:49Z</time>
      </trkpt>
      <trkpt lat="44.815" lon="1.65188">
        <ele>200.57</ele>
        <time>2010-03-21T07:46:50Z</time>
      </trkpt>
      <trkpt lat="44.81503" lon="1.65197">
        <ele>202.01</ele>
        <time>2010-03-21T07:46:53Z</time>
      </trkpt>
      <trkpt lat="44.81505" lon="1.65201">
        <ele>202.01</ele>
        <time>2010-03-21T07:46:55Z</time>
      </trkpt>
      <trkpt lat="44.81508" lon="1.65212">
        <ele>202.98</ele>
        <time>2010-03-21T07:47:02Z</time>
      </trkpt>
      <trkpt lat="44.81511" lon="1.65214">
        <ele>202.49</ele>
        <time>2010-03-21T07:47:06Z</time>
      </trkpt>
      <trkpt lat="44.81523" lon="1.65232">
        <ele>204.42</ele>
        <time>2010-03-21T07:47:17Z</time>
      </trkpt>
      <trkpt lat="44.81524" lon="1.65242">
        <ele>204.9</ele>
        <time>2010-03-21T07:47:21Z</time>
      </trkpt>
      <trkpt lat="44.81529" lon="1.65248">
        <ele>204.9</ele>
        <time>2010-03-21T07:47:24Z</time>
      </trkpt>
      <trkpt lat="44.8154" lon="1.65254">
        <ele>205.38</ele>
        <time>2010-03-21T07:47:32Z</time>
      </trkpt>
      <trkpt lat="44.8154" lon="1.65255">
        <ele>204.9</ele>
        <time>2010-03-21T07:47:33Z</time>
      </trkpt>
      <trkpt lat="44.81543" lon="1.65262">
        <ele>205.86</ele>
        <time>2010-03-21T07:47:39Z</time>
      </trkpt>
      <trkpt lat="44.81545" lon="1.65263">
        <ele>206.34</ele>
        <time>2010-03-21T07:47:40Z</time>
      </trkpt>
      <trkpt lat="44.81546" lon="1.6527">
        <ele>204.9</ele>
        <time>2010-03-21T07:47:43Z</time>
      </trkpt>
      <trkpt lat="44.81552" lon="1.65275">
        <ele>205.38</ele>
        <time>2010-03-21T07:47:50Z</time>
      </trkpt>
      <trkpt lat="44.81556" lon="1.65275">
        <ele>206.34</ele>
        <time>2010-03-21T07:47:52Z</time>
      </trkpt>
      <trkpt lat="44.81565" lon="1.65293">
        <ele>207.3</ele>
        <time>2010-03-21T07:48:03Z</time>
      </trkpt>
      <trkpt lat="44.8157" lon="1.65307">
        <ele>206.34</ele>
        <time>2010-03-21T07:48:11Z</time>
      </trkpt>
      <trkpt lat="44.81573" lon="1.65319">
        <ele>207.3</ele>
        <time>2010-03-21T07:48:14Z</time>
      </trkpt>
      <trkpt lat="44.81575" lon="1.65321">
        <ele>206.82</ele>
        <time>2010-03-21T07:48:16Z</time>
      </trkpt>
      <trkpt lat="44.8158" lon="1.65333">
        <ele>207.78</ele>
        <time>2010-03-21T07:48:23Z</time>
      </trkpt>
      <trkpt lat="44.81584" lon="1.65351">
        <ele>208.26</ele>
        <time>2010-03-21T07:48:32Z</time>
      </trkpt>
      <trkpt lat="44.81587" lon="1.65371">
        <ele>208.74</ele>
        <time>2010-03-21T07:48:38Z</time>
      </trkpt>
      <trkpt lat="44.81593" lon="1.65395">
        <ele>207.78</ele>
        <time>2010-03-21T07:48:45Z</time>
      </trkpt>
      <trkpt lat="44.81598" lon="1.65406">
        <ele>208.74</ele>
        <time>2010-03-21T07:48:53Z</time>
      </trkpt>
      <trkpt lat="44.81598" lon="1.6541">
        <ele>208.74</ele>
        <time>2010-03-21T07:48:55Z</time>
      </trkpt>
      <trkpt lat="44.81602" lon="1.65416">
        <ele>208.26</ele>
        <time>2010-03-21T07:48:59Z</time>
      </trkpt>
      <trkpt lat="44.81605" lon="1.6542">
        <ele>209.22</ele>
        <time>2010-03-21T07:49:01Z</time>
      </trkpt>
      <trkpt lat="44.81609" lon="1.65426">
        <ele>209.7</ele>
        <time>2010-03-21T07:49:04Z</time>
      </trkpt>
      <trkpt lat="44.81617" lon="1.65435">
        <ele>210.67</ele>
        <time>2010-03-21T07:49:13Z</time>
      </trkpt>
      <trkpt lat="44.81629" lon="1.65453">
        <ele>210.67</ele>
        <time>2010-03-21T07:49:23Z</time>
      </trkpt>
      <trkpt lat="44.8163" lon="1.65461">
        <ele>211.15</ele>
        <time>2010-03-21T07:49:29Z</time>
      </trkpt>
      <trkpt lat="44.81629" lon="1.65478">
        <ele>211.63</ele>
        <time>2010-03-21T07:49:35Z</time>
      </trkpt>
      <trkpt lat="44.81629" lon="1.65488">
        <ele>211.63</ele>
        <time>2010-03-21T07:49:39Z</time>
      </trkpt>
      <trkpt lat="44.81629" lon="1.65501">
        <ele>211.63</ele>
        <time>2010-03-21T07:49:42Z</time>
      </trkpt>
      <trkpt lat="44.81631" lon="1.65507">
        <ele>212.11</ele>
        <time>2010-03-21T07:49:46Z</time>
      </trkpt>
      <trkpt lat="44.81633" lon="1.65506">
        <ele>211.63</ele>
        <time>2010-03-21T07:49:49Z</time>
      </trkpt>
      <trkpt lat="44.81635" lon="1.65521">
        <ele>212.11</ele>
        <time>2010-03-21T07:49:55Z</time>
      </trkpt>
      <trkpt lat="44.81637" lon="1.65521">
        <ele>211.63</ele>
        <time>2010-03-21T07:49:56Z</time>
      </trkpt>
      <trkpt lat="44.81639" lon="1.65533">
        <ele>212.11</ele>
        <time>2010-03-21T07:50:01Z</time>
      </trkpt>
      <trkpt lat="44.81643" lon="1.65558">
        <ele>213.07</ele>
        <time>2010-03-21T07:50:09Z</time>
      </trkpt>
      <trkpt lat="44.81644" lon="1.65559">
        <ele>213.07</ele>
        <time>2010-03-21T07:50:19Z</time>
      </trkpt>
      <trkpt lat="44.81646" lon="1.65563">
        <ele>213.07</ele>
        <time>2010-03-21T07:50:21Z</time>
      </trkpt>
      <trkpt lat="44.8165" lon="1.65566">
        <ele>212.59</ele>
        <time>2010-03-21T07:50:24Z</time>
      </trkpt>
      <trkpt lat="44.81654" lon="1.65576">
        <ele>212.11</ele>
        <time>2010-03-21T07:50:28Z</time>
      </trkpt>
      <trkpt lat="44.81657" lon="1.65581">
        <ele>213.07</ele>
        <time>2010-03-21T07:50:31Z</time>
      </trkpt>
      <trkpt lat="44.81664" lon="1.65583">
        <ele>213.07</ele>
        <time>2010-03-21T07:50:35Z</time>
      </trkpt>
      <trkpt lat="44.81669" lon="1.65597">
        <ele>212.11</ele>
        <time>2010-03-21T07:50:43Z</time>
      </trkpt>
      <trkpt lat="44.81672" lon="1.656">
        <ele>212.59</ele>
        <time>2010-03-21T07:50:50Z</time>
      </trkpt>
      <trkpt lat="44.81672" lon="1.65608">
        <ele>212.59</ele>
        <time>2010-03-21T07:50:55Z</time>
      </trkpt>
      <trkpt lat="44.81675" lon="1.65637">
        <ele>211.63</ele>
        <time>2010-03-21T07:51:02Z</time>
      </trkpt>
      <trkpt lat="44.81682" lon="1.65649">
        <ele>211.63</ele>
        <time>2010-03-21T07:51:09Z</time>
      </trkpt>
      <trkpt lat="44.81684" lon="1.65662">
        <ele>210.67</ele>
        <time>2010-03-21T07:51:16Z</time>
      </trkpt>
      <trkpt lat="44.81688" lon="1.65685">
        <ele>210.67</ele>
        <time>2010-03-21T07:51:23Z</time>
      </trkpt>
      <trkpt lat="44.81693" lon="1.65693">
        <ele>211.15</ele>
        <time>2010-03-21T07:51:28Z</time>
      </trkpt>
      <trkpt lat="44.81702" lon="1.65713">
        <ele>211.15</ele>
        <time>2010-03-21T07:51:37Z</time>
      </trkpt>
      <trkpt lat="44.81704" lon="1.65711">
        <ele>211.63</ele>
        <time>2010-03-21T07:51:39Z</time>
      </trkpt>
      <trkpt lat="44.81704" lon="1.65707">
        <ele>212.11</ele>
        <time>2010-03-21T07:51:43Z</time>
      </trkpt>
      <trkpt lat="44.81704" lon="1.65725">
        <ele>212.59</ele>
        <time>2010-03-21T07:51:48Z</time>
      </trkpt>
      <trkpt lat="44.81704" lon="1.65736">
        <ele>212.11</ele>
        <time>2010-03-21T07:51:52Z</time>
      </trkpt>
      <trkpt lat="44.81699" lon="1.65747">
        <ele>212.59</ele>
        <time>2010-03-21T07:51:55Z</time>
      </trkpt>
      <trkpt lat="44.81692" lon="1.65753">
        <ele>213.07</ele>
        <time>2010-03-21T07:52:01Z</time>
      </trkpt>
      <trkpt lat="44.81678" lon="1.65769">
        <ele>212.59</ele>
        <time>2010-03-21T07:52:09Z</time>
      </trkpt>
      <trkpt lat="44.8167" lon="1.65776">
        <ele>213.55</ele>
        <time>2010-03-21T07:52:15Z</time>
      </trkpt>
      <trkpt lat="44.81666" lon="1.65777">
        <ele>213.55</ele>
        <time>2010-03-21T07:52:19Z</time>
      </trkpt>
      <trkpt lat="44.81654" lon="1.65777">
        <ele>214.03</ele>
        <time>2010-03-21T07:52:26Z</time>
      </trkpt>
      <trkpt lat="44.81643" lon="1.65776">
        <ele>214.99</ele>
        <time>2010-03-21T07:52:31Z</time>
      </trkpt>
      <trkpt lat="44.81634" lon="1.65774">
        <ele>214.99</ele>
        <time>2010-03-21T07:52:38Z</time>
      </trkpt>
      <trkpt lat="44.81631" lon="1.65777">
        <ele>214.03</ele>
        <time>2010-03-21T07:52:44Z</time>
      </trkpt>
      <trkpt lat="44.81609" lon="1.65786">
        <ele>215.47</ele>
        <time>2010-03-21T07:52:56Z</time>
      </trkpt>
      <trkpt lat="44.81596" lon="1.6579">
        <ele>215.95</ele>
        <time>2010-03-21T07:53:03Z</time>
      </trkpt>
      <trkpt lat="44.81582" lon="1.65798">
        <ele>215.95</ele>
        <time>2010-03-21T07:53:15Z</time>
      </trkpt>
      <trkpt lat="44.81574" lon="1.65798">
        <ele>216.91</ele>
        <time>2010-03-21T07:53:23Z</time>
      </trkpt>
      <trkpt lat="44.81567" lon="1.65797">
        <ele>216.43</ele>
        <time>2010-03-21T07:53:30Z</time>
      </trkpt>
      <trkpt lat="44.8156" lon="1.65797">
        <ele>216.91</ele>
        <time>2010-03-21T07:53:34Z</time>
      </trkpt>
      <trkpt lat="44.81546" lon="1.658">
        <ele>216.91</ele>
        <time>2010-03-21T07:53:40Z</time>
      </trkpt>
      <trkpt lat="44.81539" lon="1.658">
        <ele>216.91</ele>
        <time>2010-03-21T07:53:44Z</time>
      </trkpt>
      <trkpt lat="44.8153" lon="1.65797">
        <ele>216.91</ele>
        <time>2010-03-21T07:53:51Z</time>
      </trkpt>
      <trkpt lat="44.81529" lon="1.65798">
        <ele>216.91</ele>
        <time>2010-03-21T07:53:52Z</time>
      </trkpt>
      <trkpt lat="44.81526" lon="1.658">
        <ele>216.43</ele>
        <time>2010-03-21T07:53:55Z</time>
      </trkpt>
      <trkpt lat="44.8152" lon="1.65804">
        <ele>216.91</ele>
        <time>2010-03-21T07:53:59Z</time>
      </trkpt>
      <trkpt lat="44.81513" lon="1.65804">
        <ele>217.88</ele>
        <time>2010-03-21T07:54:03Z</time>
      </trkpt>
      <trkpt lat="44.81499" lon="1.65808">
        <ele>217.4</ele>
        <time>2010-03-21T07:54:11Z</time>
      </trkpt>
      <trkpt lat="44.81486" lon="1.65813">
        <ele>217.4</ele>
        <time>2010-03-21T07:54:20Z</time>
      </trkpt>
      <trkpt lat="44.81484" lon="1.65812">
        <ele>216.91</ele>
        <time>2010-03-21T07:54:24Z</time>
      </trkpt>
      <trkpt lat="44.81479" lon="1.65812">
        <ele>216.91</ele>
        <time>2010-03-21T07:54:26Z</time>
      </trkpt>
      <trkpt lat="44.81465" lon="1.6582">
        <ele>216.43</ele>
        <time>2010-03-21T07:54:33Z</time>
      </trkpt>
      <trkpt lat="44.81457" lon="1.6582">
        <ele>216.43</ele>
        <time>2010-03-21T07:54:38Z</time>
      </trkpt>
      <trkpt lat="44.81454" lon="1.65819">
        <ele>216.43</ele>
        <time>2010-03-21T07:54:40Z</time>
      </trkpt>
      <trkpt lat="44.81444" lon="1.65816">
        <ele>216.43</ele>
        <time>2010-03-21T07:54:48Z</time>
      </trkpt>
      <trkpt lat="44.81432" lon="1.65817">
        <ele>215.47</ele>
        <time>2010-03-21T07:54:58Z</time>
      </trkpt>
      <trkpt lat="44.81424" lon="1.65821">
        <ele>214.51</ele>
        <time>2010-03-21T07:55:03Z</time>
      </trkpt>
      <trkpt lat="44.81415" lon="1.65821">
        <ele>215.47</ele>
        <time>2010-03-21T07:55:08Z</time>
      </trkpt>
      <trkpt lat="44.81392" lon="1.65826">
        <ele>214.51</ele>
        <time>2010-03-21T07:55:20Z</time>
      </trkpt>
      <trkpt lat="44.81384" lon="1.65826">
        <ele>214.99</ele>
        <time>2010-03-21T07:55:28Z</time>
      </trkpt>
      <trkpt lat="44.81378" lon="1.65821">
        <ele>214.99</ele>
        <time>2010-03-21T07:55:35Z</time>
      </trkpt>
      <trkpt lat="44.81365" lon="1.65827">
        <ele>215.95</ele>
        <time>2010-03-21T07:55:43Z</time>
      </trkpt>
      <trkpt lat="44.81356" lon="1.65829">
        <ele>215.95</ele>
        <time>2010-03-21T07:55:50Z</time>
      </trkpt>
      <trkpt lat="44.81351" lon="1.65833">
        <ele>217.4</ele>
        <time>2010-03-21T07:55:53Z</time>
      </trkpt>
      <trkpt lat="44.81337" lon="1.65842">
        <ele>216.91</ele>
        <time>2010-03-21T07:56:00Z</time>
      </trkpt>
      <trkpt lat="44.81335" lon="1.65843">
        <ele>216.91</ele>
        <time>2010-03-21T07:56:01Z</time>
      </trkpt>
      <trkpt lat="44.81318" lon="1.65844">
        <ele>216.91</ele>
        <time>2010-03-21T07:56:11Z</time>
      </trkpt>
      <trkpt lat="44.81318" lon="1.65842">
        <ele>217.88</ele>
        <time>2010-03-21T07:56:12Z</time>
      </trkpt>
      <trkpt lat="44.81314" lon="1.65844">
        <ele>218.36</ele>
        <time>2010-03-21T07:56:15Z</time>
      </trkpt>
      <trkpt lat="44.81312" lon="1.65839">
        <ele>218.36</ele>
        <time>2010-03-21T07:56:19Z</time>
      </trkpt>
      <trkpt lat="44.81295" lon="1.65855">
        <ele>219.32</ele>
        <time>2010-03-21T07:56:29Z</time>
      </trkpt>
      <trkpt lat="44.81281" lon="1.65855">
        <ele>218.84</ele>
        <time>2010-03-21T07:56:36Z</time>
      </trkpt>
      <trkpt lat="44.8127" lon="1.65844">
        <ele>218.36</ele>
        <time>2010-03-21T07:56:46Z</time>
      </trkpt>
      <trkpt lat="44.8126" lon="1.65853">
        <ele>218.84</ele>
        <time>2010-03-21T07:56:53Z</time>
      </trkpt>
      <trkpt lat="44.81258" lon="1.65856">
        <ele>219.32</ele>
        <time>2010-03-21T07:56:54Z</time>
      </trkpt>
      <trkpt lat="44.81253" lon="1.65859">
        <ele>218.36</ele>
        <time>2010-03-21T07:56:56Z</time>
      </trkpt>
      <trkpt lat="44.81235" lon="1.6586">
        <ele>218.36</ele>
        <time>2010-03-21T07:57:06Z</time>
      </trkpt>
      <trkpt lat="44.81228" lon="1.65859">
        <ele>219.32</ele>
        <time>2010-03-21T07:57:13Z</time>
      </trkpt>
      <trkpt lat="44.81221" lon="1.65859">
        <ele>218.84</ele>
        <time>2010-03-21T07:57:19Z</time>
      </trkpt>
      <trkpt lat="44.81206" lon="1.65864">
        <ele>219.8</ele>
        <time>2010-03-21T07:57:27Z</time>
      </trkpt>
      <trkpt lat="44.81203" lon="1.65865">
        <ele>219.32</ele>
        <time>2010-03-21T07:57:29Z</time>
      </trkpt>
      <trkpt lat="44.81196" lon="1.65865">
        <ele>219.32</ele>
        <time>2010-03-21T07:57:34Z</time>
      </trkpt>
      <trkpt lat="44.81191" lon="1.65868">
        <ele>220.28</ele>
        <time>2010-03-21T07:57:38Z</time>
      </trkpt>
      <trkpt lat="44.81182" lon="1.65867">
        <ele>219.8</ele>
        <time>2010-03-21T07:57:44Z</time>
      </trkpt>
      <trkpt lat="44.81165" lon="1.65874">
        <ele>220.28</ele>
        <time>2010-03-21T07:57:53Z</time>
      </trkpt>
      <trkpt lat="44.81163" lon="1.65873">
        <ele>220.28</ele>
        <time>2010-03-21T07:57:54Z</time>
      </trkpt>
      <trkpt lat="44.8116" lon="1.65866">
        <ele>220.28</ele>
        <time>2010-03-21T07:57:57Z</time>
      </trkpt>
      <trkpt lat="44.81147" lon="1.65873">
        <ele>220.28</ele>
        <time>2010-03-21T07:58:07Z</time>
      </trkpt>
      <trkpt lat="44.81145" lon="1.65875">
        <ele>219.8</ele>
        <time>2010-03-21T07:58:10Z</time>
      </trkpt>
      <trkpt lat="44.81134" lon="1.65878">
        <ele>220.28</ele>
        <time>2010-03-21T07:58:17Z</time>
      </trkpt>
      <trkpt lat="44.8112" lon="1.65878">
        <ele>220.28</ele>
        <time>2010-03-21T07:58:24Z</time>
      </trkpt>
      <trkpt lat="44.81116" lon="1.65878">
        <ele>219.8</ele>
        <time>2010-03-21T07:58:27Z</time>
      </trkpt>
      <trkpt lat="44.81116" lon="1.65872">
        <ele>219.32</ele>
        <time>2010-03-21T07:58:29Z</time>
      </trkpt>
      <trkpt lat="44.81103" lon="1.65873">
        <ele>220.28</ele>
        <time>2010-03-21T07:58:38Z</time>
      </trkpt>
      <trkpt lat="44.81095" lon="1.65883">
        <ele>221.72</ele>
        <time>2010-03-21T07:58:42Z</time>
      </trkpt>
      <trkpt lat="44.81088" lon="1.65885">
        <ele>220.76</ele>
        <time>2010-03-21T07:58:46Z</time>
      </trkpt>
      <trkpt lat="44.81088" lon="1.65878">
        <ele>220.28</ele>
        <time>2010-03-21T07:58:48Z</time>
      </trkpt>
      <trkpt lat="44.81072" lon="1.65886">
        <ele>221.24</ele>
        <time>2010-03-21T07:58:59Z</time>
      </trkpt>
      <trkpt lat="44.81056" lon="1.65887">
        <ele>222.2</ele>
        <time>2010-03-21T07:59:08Z</time>
      </trkpt>
      <trkpt lat="44.81054" lon="1.6589">
        <ele>223.16</ele>
        <time>2010-03-21T07:59:11Z</time>
      </trkpt>
      <trkpt lat="44.81045" lon="1.6589">
        <ele>224.12</ele>
        <time>2010-03-21T07:59:18Z</time>
      </trkpt>
      <trkpt lat="44.8103" lon="1.65889">
        <ele>224.61</ele>
        <time>2010-03-21T07:59:29Z</time>
      </trkpt>
      <trkpt lat="44.81028" lon="1.65889">
        <ele>224.12</ele>
        <time>2010-03-21T07:59:31Z</time>
      </trkpt>
      <trkpt lat="44.81025" lon="1.65893">
        <ele>224.61</ele>
        <time>2010-03-21T07:59:33Z</time>
      </trkpt>
      <trkpt lat="44.81016" lon="1.65892">
        <ele>224.61</ele>
        <time>2010-03-21T07:59:38Z</time>
      </trkpt>
      <trkpt lat="44.81006" lon="1.65888">
        <ele>225.57</ele>
        <time>2010-03-21T07:59:44Z</time>
      </trkpt>
      <trkpt lat="44.81004" lon="1.65882">
        <ele>226.05</ele>
        <time>2010-03-21T07:59:46Z</time>
      </trkpt>
      <trkpt lat="44.80993" lon="1.65885">
        <ele>227.01</ele>
        <time>2010-03-21T07:59:54Z</time>
      </trkpt>
      <trkpt lat="44.80982" lon="1.6589">
        <ele>227.49</ele>
        <time>2010-03-21T08:00:00Z</time>
      </trkpt>
      <trkpt lat="44.80963" lon="1.65901">
        <ele>225.09</ele>
        <time>2010-03-21T08:00:11Z</time>
      </trkpt>
      <trkpt lat="44.80954" lon="1.65907">
        <ele>225.57</ele>
        <time>2010-03-21T08:00:18Z</time>
      </trkpt>
      <trkpt lat="44.80947" lon="1.65912">
        <ele>224.12</ele>
        <time>2010-03-21T08:00:27Z</time>
      </trkpt>
      <trkpt lat="44.8094" lon="1.65913">
        <ele>224.61</ele>
        <time>2010-03-21T08:00:31Z</time>
      </trkpt>
      <trkpt lat="44.80925" lon="1.65917">
        <ele>224.12</ele>
        <time>2010-03-21T08:00:41Z</time>
      </trkpt>
      <trkpt lat="44.80918" lon="1.65922">
        <ele>224.12</ele>
        <time>2010-03-21T08:00:44Z</time>
      </trkpt>
      <trkpt lat="44.80904" lon="1.65922">
        <ele>224.12</ele>
        <time>2010-03-21T08:00:52Z</time>
      </trkpt>
      <trkpt lat="44.80899" lon="1.65925">
        <ele>223.64</ele>
        <time>2010-03-21T08:00:55Z</time>
      </trkpt>
      <trkpt lat="44.80892" lon="1.65928">
        <ele>223.16</ele>
        <time>2010-03-21T08:00:59Z</time>
      </trkpt>
      <trkpt lat="44.80878" lon="1.65926">
        <ele>223.16</ele>
        <time>2010-03-21T08:01:08Z</time>
      </trkpt>
      <trkpt lat="44.80871" lon="1.65923">
        <ele>222.2</ele>
        <time>2010-03-21T08:01:13Z</time>
      </trkpt>
      <trkpt lat="44.80857" lon="1.65926">
        <ele>222.2</ele>
        <time>2010-03-21T08:01:23Z</time>
      </trkpt>
      <trkpt lat="44.80851" lon="1.65929">
        <ele>222.2</ele>
        <time>2010-03-21T08:01:27Z</time>
      </trkpt>
      <trkpt lat="44.80841" lon="1.6593">
        <ele>221.72</ele>
        <time>2010-03-21T08:01:34Z</time>
      </trkpt>
      <trkpt lat="44.8084" lon="1.6593">
        <ele>221.72</ele>
        <time>2010-03-21T08:01:35Z</time>
      </trkpt>
      <trkpt lat="44.80829" lon="1.65928">
        <ele>223.16</ele>
        <time>2010-03-21T08:01:42Z</time>
      </trkpt>
      <trkpt lat="44.8081" lon="1.65922">
        <ele>223.16</ele>
        <time>2010-03-21T08:01:53Z</time>
      </trkpt>
      <trkpt lat="44.80805" lon="1.65921">
        <ele>224.12</ele>
        <time>2010-03-21T08:01:57Z</time>
      </trkpt>
      <trkpt lat="44.80798" lon="1.65923">
        <ele>223.16</ele>
        <time>2010-03-21T08:02:01Z</time>
      </trkpt>
      <trkpt lat="44.80788" lon="1.65928">
        <ele>222.2</ele>
        <time>2010-03-21T08:02:07Z</time>
      </trkpt>
      <trkpt lat="44.80783" lon="1.65924">
        <ele>222.2</ele>
        <time>2010-03-21T08:02:15Z</time>
      </trkpt>
      <trkpt lat="44.80774" lon="1.65928">
        <ele>222.2</ele>
        <time>2010-03-21T08:02:27Z</time>
      </trkpt>
      <trkpt lat="44.80771" lon="1.65932">
        <ele>221.72</ele>
        <time>2010-03-21T08:02:29Z</time>
      </trkpt>
      <trkpt lat="44.80754" lon="1.65938">
        <ele>221.24</ele>
        <time>2010-03-21T08:02:37Z</time>
      </trkpt>
      <trkpt lat="44.80744" lon="1.65934">
        <ele>220.76</ele>
        <time>2010-03-21T08:02:43Z</time>
      </trkpt>
      <trkpt lat="44.80741" lon="1.65935">
        <ele>220.28</ele>
        <time>2010-03-21T08:02:44Z</time>
      </trkpt>
      <trkpt lat="44.80735" lon="1.65939">
        <ele>221.24</ele>
        <time>2010-03-21T08:02:48Z</time>
      </trkpt>
      <trkpt lat="44.80727" lon="1.65937">
        <ele>221.24</ele>
        <time>2010-03-21T08:02:54Z</time>
      </trkpt>
      <trkpt lat="44.80723" lon="1.65938">
        <ele>221.72</ele>
        <time>2010-03-21T08:02:57Z</time>
      </trkpt>
      <trkpt lat="44.80712" lon="1.65941">
        <ele>221.24</ele>
        <time>2010-03-21T08:03:04Z</time>
      </trkpt>
      <trkpt lat="44.807" lon="1.65942">
        <ele>221.24</ele>
        <time>2010-03-21T08:03:12Z</time>
      </trkpt>
      <trkpt lat="44.80687" lon="1.65939">
        <ele>221.72</ele>
        <time>2010-03-21T08:03:20Z</time>
      </trkpt>
      <trkpt lat="44.80685" lon="1.65939">
        <ele>221.72</ele>
        <time>2010-03-21T08:03:21Z</time>
      </trkpt>
      <trkpt lat="44.80668" lon="1.65946">
        <ele>221.24</ele>
        <time>2010-03-21T08:03:30Z</time>
      </trkpt>
      <trkpt lat="44.80655" lon="1.65953">
        <ele>221.24</ele>
        <time>2010-03-21T08:03:38Z</time>
      </trkpt>
      <trkpt lat="44.80636" lon="1.65972">
        <ele>221.24</ele>
        <time>2010-03-21T08:03:47Z</time>
      </trkpt>
      <trkpt lat="44.80628" lon="1.65973">
        <ele>221.24</ele>
        <time>2010-03-21T08:03:54Z</time>
      </trkpt>
      <trkpt lat="44.8062" lon="1.65975">
        <ele>221.72</ele>
        <time>2010-03-21T08:04:01Z</time>
      </trkpt>
      <trkpt lat="44.80616" lon="1.65976">
        <ele>221.72</ele>
        <time>2010-03-21T08:04:04Z</time>
      </trkpt>
      <trkpt lat="44.80612" lon="1.65978">
        <ele>222.68</ele>
        <time>2010-03-21T08:04:06Z</time>
      </trkpt>
      <trkpt lat="44.80602" lon="1.65985">
        <ele>221.72</ele>
        <time>2010-03-21T08:04:11Z</time>
      </trkpt>
      <trkpt lat="44.80596" lon="1.65984">
        <ele>222.2</ele>
        <time>2010-03-21T08:04:15Z</time>
      </trkpt>
      <trkpt lat="44.80592" lon="1.65982">
        <ele>222.2</ele>
        <time>2010-03-21T08:04:20Z</time>
      </trkpt>
      <trkpt lat="44.8058" lon="1.65994">
        <ele>222.2</ele>
        <time>2010-03-21T08:04:25Z</time>
      </trkpt>
      <trkpt lat="44.80566" lon="1.66">
        <ele>221.72</ele>
        <time>2010-03-21T08:04:32Z</time>
      </trkpt>
      <trkpt lat="44.80562" lon="1.65998">
        <ele>222.2</ele>
        <time>2010-03-21T08:04:37Z</time>
      </trkpt>
      <trkpt lat="44.80549" lon="1.66002">
        <ele>223.16</ele>
        <time>2010-03-21T08:04:44Z</time>
      </trkpt>
      <trkpt lat="44.80544" lon="1.65997">
        <ele>222.68</ele>
        <time>2010-03-21T08:04:48Z</time>
      </trkpt>
      <trkpt lat="44.80528" lon="1.66006">
        <ele>222.68</ele>
        <time>2010-03-21T08:04:58Z</time>
      </trkpt>
      <trkpt lat="44.80525" lon="1.6601">
        <ele>223.16</ele>
        <time>2010-03-21T08:05:00Z</time>
      </trkpt>
      <trkpt lat="44.80516" lon="1.66014">
        <ele>224.61</ele>
        <time>2010-03-21T08:05:06Z</time>
      </trkpt>
      <trkpt lat="44.80514" lon="1.66014">
        <ele>224.61</ele>
        <time>2010-03-21T08:05:07Z</time>
      </trkpt>
      <trkpt lat="44.80504" lon="1.6602">
        <ele>224.12</ele>
        <time>2010-03-21T08:05:14Z</time>
      </trkpt>
      <trkpt lat="44.80497" lon="1.6602">
        <ele>227.01</ele>
        <time>2010-03-21T08:05:27Z</time>
      </trkpt>
      <trkpt lat="44.80498" lon="1.66017">
        <ele>227.49</ele>
        <time>2010-03-21T08:05:46Z</time>
      </trkpt>
      <trkpt lat="44.80499" lon="1.66012">
        <ele>227.97</ele>
        <time>2010-03-21T08:06:12Z</time>
      </trkpt>
      <trkpt lat="44.80497" lon="1.66016">
        <ele>228.93</ele>
        <time>2010-03-21T08:06:21Z</time>
      </trkpt>
      <trkpt lat="44.80495" lon="1.66018">
        <ele>228.45</ele>
        <time>2010-03-21T08:06:23Z</time>
      </trkpt>
      <trkpt lat="44.80483" lon="1.66021">
        <ele>228.93</ele>
        <time>2010-03-21T08:06:31Z</time>
      </trkpt>
      <trkpt lat="44.80478" lon="1.66024">
        <ele>228.93</ele>
        <time>2010-03-21T08:06:35Z</time>
      </trkpt>
      <trkpt lat="44.80463" lon="1.66021">
        <ele>228.93</ele>
        <time>2010-03-21T08:06:45Z</time>
      </trkpt>
      <trkpt lat="44.80448" lon="1.66031">
        <ele>228.45</ele>
        <time>2010-03-21T08:06:54Z</time>
      </trkpt>
      <trkpt lat="44.80439" lon="1.66039">
        <ele>227.49</ele>
        <time>2010-03-21T08:07:00Z</time>
      </trkpt>
      <trkpt lat="44.80428" lon="1.66044">
        <ele>227.49</ele>
        <time>2010-03-21T08:07:07Z</time>
      </trkpt>
      <trkpt lat="44.80417" lon="1.66048">
        <ele>227.49</ele>
        <time>2010-03-21T08:07:14Z</time>
      </trkpt>
      <trkpt lat="44.80415" lon="1.66047">
        <ele>227.49</ele>
        <time>2010-03-21T08:07:16Z</time>
      </trkpt>
      <trkpt lat="44.80403" lon="1.66069">
        <ele>227.97</ele>
        <time>2010-03-21T08:07:24Z</time>
      </trkpt>
      <trkpt lat="44.80399" lon="1.66073">
        <ele>228.45</ele>
        <time>2010-03-21T08:07:26Z</time>
      </trkpt>
      <trkpt lat="44.80392" lon="1.66079">
        <ele>228.45</ele>
        <time>2010-03-21T08:07:31Z</time>
      </trkpt>
      <trkpt lat="44.80383" lon="1.66086">
        <ele>227.97</ele>
        <time>2010-03-21T08:07:37Z</time>
      </trkpt>
      <trkpt lat="44.80374" lon="1.6609">
        <ele>228.93</ele>
        <time>2010-03-21T08:07:45Z</time>
      </trkpt>
      <trkpt lat="44.80372" lon="1.66092">
        <ele>229.41</ele>
        <time>2010-03-21T08:07:48Z</time>
      </trkpt>
      <trkpt lat="44.80369" lon="1.66091">
        <ele>230.37</ele>
        <time>2010-03-21T08:07:52Z</time>
      </trkpt>
      <trkpt lat="44.80366" lon="1.66089">
        <ele>230.85</ele>
        <time>2010-03-21T08:07:54Z</time>
      </trkpt>
      <trkpt lat="44.80364" lon="1.66087">
        <ele>231.33</ele>
        <time>2010-03-21T08:07:57Z</time>
      </trkpt>
      <trkpt lat="44.80351" lon="1.66093">
        <ele>231.33</ele>
        <time>2010-03-21T08:08:07Z</time>
      </trkpt>
      <trkpt lat="44.80353" lon="1.66091">
        <ele>231.81</ele>
        <time>2010-03-21T08:08:16Z</time>
      </trkpt>
      <trkpt lat="44.80357" lon="1.66092">
        <ele>232.78</ele>
        <time>2010-03-21T08:08:20Z</time>
      </trkpt>
      <trkpt lat="44.8035" lon="1.66095">
        <ele>230.85</ele>
        <time>2010-03-21T08:08:33Z</time>
      </trkpt>
      <trkpt lat="44.80353" lon="1.66102">
        <ele>232.3</ele>
        <time>2010-03-21T08:08:48Z</time>
      </trkpt>
      <trkpt lat="44.80345" lon="1.66108">
        <ele>234.22</ele>
        <time>2010-03-21T08:09:24Z</time>
      </trkpt>
      <trkpt lat="44.80344" lon="1.6611">
        <ele>233.74</ele>
        <time>2010-03-21T08:09:25Z</time>
      </trkpt>
      <trkpt lat="44.80337" lon="1.66113">
        <ele>231.81</ele>
        <time>2010-03-21T08:09:32Z</time>
      </trkpt>
      <trkpt lat="44.80332" lon="1.66115">
        <ele>230.85</ele>
        <time>2010-03-21T08:09:35Z</time>
      </trkpt>
      <trkpt lat="44.80325" lon="1.66122">
        <ele>230.85</ele>
        <time>2010-03-21T08:09:41Z</time>
      </trkpt>
      <trkpt lat="44.80319" lon="1.66135">
        <ele>230.85</ele>
        <time>2010-03-21T08:09:48Z</time>
      </trkpt>
      <trkpt lat="44.80318" lon="1.66137">
        <ele>230.37</ele>
        <time>2010-03-21T08:09:50Z</time>
      </trkpt>
      <trkpt lat="44.80314" lon="1.66155">
        <ele>231.33</ele>
        <time>2010-03-21T08:09:59Z</time>
      </trkpt>
      <trkpt lat="44.80312" lon="1.66163">
        <ele>232.78</ele>
        <time>2010-03-21T08:10:03Z</time>
      </trkpt>
      <trkpt lat="44.80311" lon="1.66169">
        <ele>231.33</ele>
        <time>2010-03-21T08:10:06Z</time>
      </trkpt>
      <trkpt lat="44.80302" lon="1.66188">
        <ele>232.78</ele>
        <time>2010-03-21T08:10:18Z</time>
      </trkpt>
      <trkpt lat="44.80296" lon="1.66194">
        <ele>234.22</ele>
        <time>2010-03-21T08:10:22Z</time>
      </trkpt>
      <trkpt lat="44.80285" lon="1.66211">
        <ele>233.26</ele>
        <time>2010-03-21T08:10:33Z</time>
      </trkpt>
      <trkpt lat="44.8028" lon="1.6622">
        <ele>234.22</ele>
        <time>2010-03-21T08:10:39Z</time>
      </trkpt>
      <trkpt lat="44.80275" lon="1.66225">
        <ele>233.26</ele>
        <time>2010-03-21T08:10:44Z</time>
      </trkpt>
      <trkpt lat="44.80261" lon="1.66247">
        <ele>231.81</ele>
        <time>2010-03-21T08:10:54Z</time>
      </trkpt>
      <trkpt lat="44.80257" lon="1.66253">
        <ele>231.81</ele>
        <time>2010-03-21T08:10:57Z</time>
      </trkpt>
      <trkpt lat="44.80246" lon="1.66267">
        <ele>232.3</ele>
        <time>2010-03-21T08:11:03Z</time>
      </trkpt>
      <trkpt lat="44.80234" lon="1.66288">
        <ele>232.3</ele>
        <time>2010-03-21T08:11:12Z</time>
      </trkpt>
      <trkpt lat="44.80221" lon="1.66306">
        <ele>231.81</ele>
        <time>2010-03-21T08:11:23Z</time>
      </trkpt>
      <trkpt lat="44.80215" lon="1.66316">
        <ele>230.85</ele>
        <time>2010-03-21T08:11:31Z</time>
      </trkpt>
      <trkpt lat="44.80205" lon="1.66338">
        <ele>230.37</ele>
        <time>2010-03-21T08:11:42Z</time>
      </trkpt>
      <trkpt lat="44.802" lon="1.66354">
        <ele>230.85</ele>
        <time>2010-03-21T08:11:51Z</time>
      </trkpt>
      <trkpt lat="44.80199" lon="1.66358">
        <ele>229.89</ele>
        <time>2010-03-21T08:11:53Z</time>
      </trkpt>
      <trkpt lat="44.80192" lon="1.6637">
        <ele>228.93</ele>
        <time>2010-03-21T08:12:01Z</time>
      </trkpt>
      <trkpt lat="44.80187" lon="1.66379">
        <ele>229.41</ele>
        <time>2010-03-21T08:12:09Z</time>
      </trkpt>
      <trkpt lat="44.80177" lon="1.66406">
        <ele>227.97</ele>
        <time>2010-03-21T08:12:22Z</time>
      </trkpt>
      <trkpt lat="44.80168" lon="1.66422">
        <ele>227.97</ele>
        <time>2010-03-21T08:12:30Z</time>
      </trkpt>
      <trkpt lat="44.80161" lon="1.66442">
        <ele>227.97</ele>
        <time>2010-03-21T08:12:39Z</time>
      </trkpt>
      <trkpt lat="44.80158" lon="1.66451">
        <ele>228.45</ele>
        <time>2010-03-21T08:12:42Z</time>
      </trkpt>
      <trkpt lat="44.80155" lon="1.66459">
        <ele>229.89</ele>
        <time>2010-03-21T08:12:46Z</time>
      </trkpt>
      <trkpt lat="44.80152" lon="1.6647">
        <ele>228.93</ele>
        <time>2010-03-21T08:12:51Z</time>
      </trkpt>
      <trkpt lat="44.80152" lon="1.66478">
        <ele>230.37</ele>
        <time>2010-03-21T08:12:54Z</time>
      </trkpt>
      <trkpt lat="44.80149" lon="1.6648">
        <ele>229.41</ele>
        <time>2010-03-21T08:12:57Z</time>
      </trkpt>
      <trkpt lat="44.80143" lon="1.66502">
        <ele>230.85</ele>
        <time>2010-03-21T08:13:07Z</time>
      </trkpt>
      <trkpt lat="44.8014" lon="1.66512">
        <ele>231.33</ele>
        <time>2010-03-21T08:13:11Z</time>
      </trkpt>
      <trkpt lat="44.80135" lon="1.66531">
        <ele>230.85</ele>
        <time>2010-03-21T08:13:19Z</time>
      </trkpt>
      <trkpt lat="44.80129" lon="1.66561">
        <ele>231.81</ele>
        <time>2010-03-21T08:13:31Z</time>
      </trkpt>
      <trkpt lat="44.80126" lon="1.66572">
        <ele>231.33</ele>
        <time>2010-03-21T08:13:37Z</time>
      </trkpt>
      <trkpt lat="44.80124" lon="1.66584">
        <ele>232.3</ele>
        <time>2010-03-21T08:13:44Z</time>
      </trkpt>
      <trkpt lat="44.80125" lon="1.66594">
        <ele>231.81</ele>
        <time>2010-03-21T08:13:49Z</time>
      </trkpt>
      <trkpt lat="44.80123" lon="1.66604">
        <ele>232.3</ele>
        <time>2010-03-21T08:13:52Z</time>
      </trkpt>
      <trkpt lat="44.80122" lon="1.6661">
        <ele>231.33</ele>
        <time>2010-03-21T08:13:55Z</time>
      </trkpt>
      <trkpt lat="44.80121" lon="1.66624">
        <ele>231.81</ele>
        <time>2010-03-21T08:14:03Z</time>
      </trkpt>
      <trkpt lat="44.8012" lon="1.66633">
        <ele>232.78</ele>
        <time>2010-03-21T08:14:07Z</time>
      </trkpt>
      <trkpt lat="44.80122" lon="1.66636">
        <ele>232.3</ele>
        <time>2010-03-21T08:14:09Z</time>
      </trkpt>
      <trkpt lat="44.80121" lon="1.66641">
        <ele>232.3</ele>
        <time>2010-03-21T08:14:12Z</time>
      </trkpt>
      <trkpt lat="44.80116" lon="1.66659">
        <ele>231.81</ele>
        <time>2010-03-21T08:14:21Z</time>
      </trkpt>
      <trkpt lat="44.80113" lon="1.66675">
        <ele>232.3</ele>
        <time>2010-03-21T08:14:28Z</time>
      </trkpt>
      <trkpt lat="44.80107" lon="1.66699">
        <ele>231.81</ele>
        <time>2010-03-21T08:14:37Z</time>
      </trkpt>
      <trkpt lat="44.80104" lon="1.66714">
        <ele>232.78</ele>
        <time>2010-03-21T08:14:43Z</time>
      </trkpt>
      <trkpt lat="44.80103" lon="1.66719">
        <ele>232.3</ele>
        <time>2010-03-21T08:14:46Z</time>
      </trkpt>
      <trkpt lat="44.80101" lon="1.66733">
        <ele>232.78</ele>
        <time>2010-03-21T08:14:54Z</time>
      </trkpt>
      <trkpt lat="44.80101" lon="1.66736">
        <ele>232.78</ele>
        <time>2010-03-21T08:14:55Z</time>
      </trkpt>
      <trkpt lat="44.801" lon="1.66753">
        <ele>232.3</ele>
        <time>2010-03-21T08:15:03Z</time>
      </trkpt>
      <trkpt lat="44.80096" lon="1.66765">
        <ele>233.74</ele>
        <time>2010-03-21T08:15:10Z</time>
      </trkpt>
      <trkpt lat="44.80092" lon="1.66776">
        <ele>234.22</ele>
        <time>2010-03-21T08:15:15Z</time>
      </trkpt>
      <trkpt lat="44.80092" lon="1.66784">
        <ele>233.74</ele>
        <time>2010-03-21T08:15:18Z</time>
      </trkpt>
      <trkpt lat="44.80093" lon="1.66789">
        <ele>234.22</ele>
        <time>2010-03-21T08:15:21Z</time>
      </trkpt>
      <trkpt lat="44.80092" lon="1.66796">
        <ele>235.18</ele>
        <time>2010-03-21T08:15:24Z</time>
      </trkpt>
      <trkpt lat="44.80089" lon="1.66812">
        <ele>234.7</ele>
        <time>2010-03-21T08:15:31Z</time>
      </trkpt>
      <trkpt lat="44.80087" lon="1.66818">
        <ele>234.7</ele>
        <time>2010-03-21T08:15:33Z</time>
      </trkpt>
      <trkpt lat="44.80088" lon="1.66821">
        <ele>235.18</ele>
        <time>2010-03-21T08:15:35Z</time>
      </trkpt>
      <trkpt lat="44.80086" lon="1.6683">
        <ele>235.66</ele>
        <time>2010-03-21T08:15:39Z</time>
      </trkpt>
      <trkpt lat="44.80084" lon="1.66846">
        <ele>232.78</ele>
        <time>2010-03-21T08:15:47Z</time>
      </trkpt>
      <trkpt lat="44.80075" lon="1.66869">
        <ele>233.26</ele>
        <time>2010-03-21T08:15:56Z</time>
      </trkpt>
      <trkpt lat="44.80073" lon="1.66873">
        <ele>232.78</ele>
        <time>2010-03-21T08:15:58Z</time>
      </trkpt>
      <trkpt lat="44.80066" lon="1.66896">
        <ele>232.3</ele>
        <time>2010-03-21T08:16:08Z</time>
      </trkpt>
      <trkpt lat="44.80064" lon="1.66909">
        <ele>233.26</ele>
        <time>2010-03-21T08:16:14Z</time>
      </trkpt>
      <trkpt lat="44.8006" lon="1.66919">
        <ele>232.3</ele>
        <time>2010-03-21T08:16:23Z</time>
      </trkpt>
      <trkpt lat="44.80054" lon="1.66962">
        <ele>232.3</ele>
        <time>2010-03-21T08:16:37Z</time>
      </trkpt>
      <trkpt lat="44.80054" lon="1.66966">
        <ele>232.78</ele>
        <time>2010-03-21T08:16:39Z</time>
      </trkpt>
      <trkpt lat="44.80055" lon="1.66981">
        <ele>232.78</ele>
        <time>2010-03-21T08:16:46Z</time>
      </trkpt>
      <trkpt lat="44.80056" lon="1.67007">
        <ele>232.78</ele>
        <time>2010-03-21T08:16:55Z</time>
      </trkpt>
      <trkpt lat="44.80057" lon="1.6701">
        <ele>233.74</ele>
        <time>2010-03-21T08:16:56Z</time>
      </trkpt>
      <trkpt lat="44.80055" lon="1.67018">
        <ele>233.26</ele>
        <time>2010-03-21T08:16:59Z</time>
      </trkpt>
      <trkpt lat="44.80052" lon="1.67027">
        <ele>233.74</ele>
        <time>2010-03-21T08:17:04Z</time>
      </trkpt>
      <trkpt lat="44.80049" lon="1.67032">
        <ele>235.18</ele>
        <time>2010-03-21T08:17:06Z</time>
      </trkpt>
      <trkpt lat="44.80048" lon="1.67045">
        <ele>235.66</ele>
        <time>2010-03-21T08:17:10Z</time>
      </trkpt>
      <trkpt lat="44.80052" lon="1.67058">
        <ele>237.1</ele>
        <time>2010-03-21T08:17:14Z</time>
      </trkpt>
      <trkpt lat="44.80052" lon="1.67067">
        <ele>239.02</ele>
        <time>2010-03-21T08:17:17Z</time>
      </trkpt>
      <trkpt lat="44.80051" lon="1.67083">
        <ele>239.51</ele>
        <time>2010-03-21T08:17:24Z</time>
      </trkpt>
      <trkpt lat="44.80051" lon="1.67085">
        <ele>238.06</ele>
        <time>2010-03-21T08:17:25Z</time>
      </trkpt>
      <trkpt lat="44.80053" lon="1.67101">
        <ele>237.58</ele>
        <time>2010-03-21T08:17:32Z</time>
      </trkpt>
      <trkpt lat="44.8005" lon="1.67109">
        <ele>239.02</ele>
        <time>2010-03-21T08:17:36Z</time>
      </trkpt>
      <trkpt lat="44.80051" lon="1.6712">
        <ele>238.06</ele>
        <time>2010-03-21T08:17:40Z</time>
      </trkpt>
      <trkpt lat="44.80046" lon="1.67125">
        <ele>239.02</ele>
        <time>2010-03-21T08:17:44Z</time>
      </trkpt>
      <trkpt lat="44.80039" lon="1.67139">
        <ele>239.51</ele>
        <time>2010-03-21T08:17:52Z</time>
      </trkpt>
      <trkpt lat="44.80037" lon="1.67142">
        <ele>240.47</ele>
        <time>2010-03-21T08:17:54Z</time>
      </trkpt>
      <trkpt lat="44.80029" lon="1.6716">
        <ele>239.51</ele>
        <time>2010-03-21T08:18:05Z</time>
      </trkpt>
      <trkpt lat="44.80027" lon="1.67165">
        <ele>239.99</ele>
        <time>2010-03-21T08:18:08Z</time>
      </trkpt>
      <trkpt lat="44.80023" lon="1.67186">
        <ele>240.47</ele>
        <time>2010-03-21T08:18:17Z</time>
      </trkpt>
      <trkpt lat="44.80018" lon="1.67203">
        <ele>240.47</ele>
        <time>2010-03-21T08:18:24Z</time>
      </trkpt>
      <trkpt lat="44.80015" lon="1.67213">
        <ele>240.95</ele>
        <time>2010-03-21T08:18:29Z</time>
      </trkpt>
      <trkpt lat="44.80012" lon="1.67224">
        <ele>240.47</ele>
        <time>2010-03-21T08:18:34Z</time>
      </trkpt>
      <trkpt lat="44.80013" lon="1.67237">
        <ele>241.91</ele>
        <time>2010-03-21T08:18:39Z</time>
      </trkpt>
      <trkpt lat="44.80007" lon="1.67242">
        <ele>243.35</ele>
        <time>2010-03-21T08:18:43Z</time>
      </trkpt>
      <trkpt lat="44.80008" lon="1.67246">
        <ele>242.87</ele>
        <time>2010-03-21T08:18:45Z</time>
      </trkpt>
      <trkpt lat="44.80008" lon="1.67258">
        <ele>244.31</ele>
        <time>2010-03-21T08:18:51Z</time>
      </trkpt>
      <trkpt lat="44.80008" lon="1.67261">
        <ele>243.83</ele>
        <time>2010-03-21T08:18:52Z</time>
      </trkpt>
      <trkpt lat="44.80002" lon="1.67269">
        <ele>243.35</ele>
        <time>2010-03-21T08:18:57Z</time>
      </trkpt>
      <trkpt lat="44.79999" lon="1.6728">
        <ele>243.83</ele>
        <time>2010-03-21T08:19:01Z</time>
      </trkpt>
      <trkpt lat="44.79994" lon="1.67295">
        <ele>244.79</ele>
        <time>2010-03-21T08:19:08Z</time>
      </trkpt>
      <trkpt lat="44.79989" lon="1.67308">
        <ele>243.35</ele>
        <time>2010-03-21T08:19:15Z</time>
      </trkpt>
      <trkpt lat="44.79988" lon="1.67313">
        <ele>243.83</ele>
        <time>2010-03-21T08:19:17Z</time>
      </trkpt>
      <trkpt lat="44.79985" lon="1.67321">
        <ele>244.79</ele>
        <time>2010-03-21T08:19:21Z</time>
      </trkpt>
      <trkpt lat="44.7998" lon="1.67343">
        <ele>245.27</ele>
        <time>2010-03-21T08:19:31Z</time>
      </trkpt>
      <trkpt lat="44.79977" lon="1.67365">
        <ele>244.79</ele>
        <time>2010-03-21T08:19:40Z</time>
      </trkpt>
      <trkpt lat="44.79972" lon="1.67373">
        <ele>245.27</ele>
        <time>2010-03-21T08:19:46Z</time>
      </trkpt>
      <trkpt lat="44.7997" lon="1.67375">
        <ele>245.75</ele>
        <time>2010-03-21T08:19:48Z</time>
      </trkpt>
      <trkpt lat="44.79962" lon="1.67393">
        <ele>245.75</ele>
        <time>2010-03-21T08:19:57Z</time>
      </trkpt>
      <trkpt lat="44.79958" lon="1.67405">
        <ele>247.2</ele>
        <time>2010-03-21T08:20:03Z</time>
      </trkpt>
      <trkpt lat="44.79955" lon="1.67414">
        <ele>246.72</ele>
        <time>2010-03-21T08:20:08Z</time>
      </trkpt>
      <trkpt lat="44.79953" lon="1.67425">
        <ele>247.2</ele>
        <time>2010-03-21T08:20:12Z</time>
      </trkpt>
      <trkpt lat="44.79946" lon="1.67444">
        <ele>247.2</ele>
        <time>2010-03-21T08:20:21Z</time>
      </trkpt>
      <trkpt lat="44.79949" lon="1.6746">
        <ele>248.64</ele>
        <time>2010-03-21T08:20:30Z</time>
      </trkpt>
      <trkpt lat="44.79945" lon="1.67474">
        <ele>249.12</ele>
        <time>2010-03-21T08:20:36Z</time>
      </trkpt>
      <trkpt lat="44.79943" lon="1.67479">
        <ele>248.64</ele>
        <time>2010-03-21T08:20:39Z</time>
      </trkpt>
      <trkpt lat="44.79939" lon="1.67497">
        <ele>249.12</ele>
        <time>2010-03-21T08:20:48Z</time>
      </trkpt>
      <trkpt lat="44.79938" lon="1.67516">
        <ele>249.6</ele>
        <time>2010-03-21T08:20:57Z</time>
      </trkpt>
      <trkpt lat="44.79938" lon="1.67526">
        <ele>249.6</ele>
        <time>2010-03-21T08:21:01Z</time>
      </trkpt>
      <trkpt lat="44.79932" lon="1.67547">
        <ele>249.6</ele>
        <time>2010-03-21T08:21:10Z</time>
      </trkpt>
      <trkpt lat="44.79932" lon="1.67554">
        <ele>249.6</ele>
        <time>2010-03-21T08:21:14Z</time>
      </trkpt>
      <trkpt lat="44.7993" lon="1.67559">
        <ele>250.56</ele>
        <time>2010-03-21T08:21:17Z</time>
      </trkpt>
      <trkpt lat="44.79927" lon="1.67568">
        <ele>250.56</ele>
        <time>2010-03-21T08:21:23Z</time>
      </trkpt>
      <trkpt lat="44.79926" lon="1.6757">
        <ele>250.08</ele>
        <time>2010-03-21T08:21:25Z</time>
      </trkpt>
      <trkpt lat="44.79927" lon="1.67585">
        <ele>250.56</ele>
        <time>2010-03-21T08:21:30Z</time>
      </trkpt>
      <trkpt lat="44.79924" lon="1.67594">
        <ele>251.04</ele>
        <time>2010-03-21T08:21:34Z</time>
      </trkpt>
      <trkpt lat="44.79925" lon="1.67604">
        <ele>250.56</ele>
        <time>2010-03-21T08:21:38Z</time>
      </trkpt>
      <trkpt lat="44.79923" lon="1.67626">
        <ele>251.04</ele>
        <time>2010-03-21T08:21:48Z</time>
      </trkpt>
      <trkpt lat="44.79918" lon="1.67643">
        <ele>250.56</ele>
        <time>2010-03-21T08:21:55Z</time>
      </trkpt>
      <trkpt lat="44.79916" lon="1.67654">
        <ele>250.56</ele>
        <time>2010-03-21T08:21:59Z</time>
      </trkpt>
      <trkpt lat="44.79916" lon="1.67659">
        <ele>250.56</ele>
        <time>2010-03-21T08:22:02Z</time>
      </trkpt>
      <trkpt lat="44.79917" lon="1.67664">
        <ele>250.56</ele>
        <time>2010-03-21T08:22:04Z</time>
      </trkpt>
      <trkpt lat="44.79914" lon="1.67674">
        <ele>250.56</ele>
        <time>2010-03-21T08:22:08Z</time>
      </trkpt>
      <trkpt lat="44.7991" lon="1.67695">
        <ele>251.04</ele>
        <time>2010-03-21T08:22:17Z</time>
      </trkpt>
      <trkpt lat="44.79905" lon="1.6771">
        <ele>251.04</ele>
        <time>2010-03-21T08:22:26Z</time>
      </trkpt>
      <trkpt lat="44.79901" lon="1.67722">
        <ele>251.04</ele>
        <time>2010-03-21T08:22:31Z</time>
      </trkpt>
      <trkpt lat="44.79891" lon="1.67737">
        <ele>251.52</ele>
        <time>2010-03-21T08:22:40Z</time>
      </trkpt>
      <trkpt lat="44.79882" lon="1.67748">
        <ele>251.52</ele>
        <time>2010-03-21T08:22:47Z</time>
      </trkpt>
      <trkpt lat="44.79876" lon="1.67756">
        <ele>251.52</ele>
        <time>2010-03-21T08:22:57Z</time>
      </trkpt>
      <trkpt lat="44.79874" lon="1.67757">
        <ele>252.48</ele>
        <time>2010-03-21T08:22:58Z</time>
      </trkpt>
      <trkpt lat="44.79867" lon="1.67764">
        <ele>252.48</ele>
        <time>2010-03-21T08:23:04Z</time>
      </trkpt>
      <trkpt lat="44.79854" lon="1.67783">
        <ele>252</ele>
        <time>2010-03-21T08:23:13Z</time>
      </trkpt>
      <trkpt lat="44.79843" lon="1.67795">
        <ele>253.44</ele>
        <time>2010-03-21T08:23:22Z</time>
      </trkpt>
      <trkpt lat="44.79842" lon="1.67798">
        <ele>253.44</ele>
        <time>2010-03-21T08:23:24Z</time>
      </trkpt>
      <trkpt lat="44.79841" lon="1.67798">
        <ele>254.89</ele>
        <time>2010-03-21T08:23:26Z</time>
      </trkpt>
      <trkpt lat="44.7983" lon="1.67809">
        <ele>254.41</ele>
        <time>2010-03-21T08:23:36Z</time>
      </trkpt>
      <trkpt lat="44.79819" lon="1.67819">
        <ele>253.44</ele>
        <time>2010-03-21T08:23:42Z</time>
      </trkpt>
      <trkpt lat="44.79807" lon="1.67828">
        <ele>254.41</ele>
        <time>2010-03-21T08:23:49Z</time>
      </trkpt>
      <trkpt lat="44.79802" lon="1.67831">
        <ele>253.93</ele>
        <time>2010-03-21T08:23:52Z</time>
      </trkpt>
      <trkpt lat="44.7979" lon="1.67839">
        <ele>252.48</ele>
        <time>2010-03-21T08:24:02Z</time>
      </trkpt>
      <trkpt lat="44.79781" lon="1.67835">
        <ele>252</ele>
        <time>2010-03-21T08:24:10Z</time>
      </trkpt>
      <trkpt lat="44.79768" lon="1.6783">
        <ele>252</ele>
        <time>2010-03-21T08:24:18Z</time>
      </trkpt>
      <trkpt lat="44.79764" lon="1.67825">
        <ele>250.56</ele>
        <time>2010-03-21T08:24:21Z</time>
      </trkpt>
      <trkpt lat="44.79755" lon="1.67815">
        <ele>250.56</ele>
        <time>2010-03-21T08:24:29Z</time>
      </trkpt>
      <trkpt lat="44.79744" lon="1.67801">
        <ele>252.96</ele>
        <time>2010-03-21T08:24:39Z</time>
      </trkpt>
      <trkpt lat="44.79739" lon="1.67792">
        <ele>256.33</ele>
        <time>2010-03-21T08:24:44Z</time>
      </trkpt>
      <trkpt lat="44.79722" lon="1.6778">
        <ele>256.81</ele>
        <time>2010-03-21T08:24:53Z</time>
      </trkpt>
      <trkpt lat="44.79719" lon="1.67777">
        <ele>256.81</ele>
        <time>2010-03-21T08:24:55Z</time>
      </trkpt>
      <trkpt lat="44.79713" lon="1.67773">
        <ele>257.29</ele>
        <time>2010-03-21T08:25:02Z</time>
      </trkpt>
      <trkpt lat="44.79703" lon="1.67766">
        <ele>257.29</ele>
        <time>2010-03-21T08:25:12Z</time>
      </trkpt>
      <trkpt lat="44.79701" lon="1.67761">
        <ele>258.25</ele>
        <time>2010-03-21T08:25:14Z</time>
      </trkpt>
      <trkpt lat="44.7969" lon="1.67737">
        <ele>258.25</ele>
        <time>2010-03-21T08:25:22Z</time>
      </trkpt>
      <trkpt lat="44.79685" lon="1.67734">
        <ele>258.73</ele>
        <time>2010-03-21T08:25:24Z</time>
      </trkpt>
      <trkpt lat="44.7967" lon="1.67729">
        <ele>260.17</ele>
        <time>2010-03-21T08:25:35Z</time>
      </trkpt>
      <trkpt lat="44.79662" lon="1.67722">
        <ele>259.21</ele>
        <time>2010-03-21T08:25:41Z</time>
      </trkpt>
      <trkpt lat="44.79656" lon="1.67715">
        <ele>260.17</ele>
        <time>2010-03-21T08:25:49Z</time>
      </trkpt>
      <trkpt lat="44.79648" lon="1.67698">
        <ele>259.21</ele>
        <time>2010-03-21T08:25:56Z</time>
      </trkpt>
      <trkpt lat="44.79639" lon="1.6768">
        <ele>260.17</ele>
        <time>2010-03-21T08:26:03Z</time>
      </trkpt>
      <trkpt lat="44.79633" lon="1.6767">
        <ele>259.69</ele>
        <time>2010-03-21T08:26:09Z</time>
      </trkpt>
      <trkpt lat="44.79625" lon="1.6766">
        <ele>260.17</ele>
        <time>2010-03-21T08:26:18Z</time>
      </trkpt>
      <trkpt lat="44.79617" lon="1.67649">
        <ele>259.69</ele>
        <time>2010-03-21T08:26:26Z</time>
      </trkpt>
      <trkpt lat="44.79612" lon="1.67631">
        <ele>259.21</ele>
        <time>2010-03-21T08:26:36Z</time>
      </trkpt>
      <trkpt lat="44.79608" lon="1.67621">
        <ele>259.69</ele>
        <time>2010-03-21T08:26:41Z</time>
      </trkpt>
      <trkpt lat="44.79603" lon="1.67612">
        <ele>258.73</ele>
        <time>2010-03-21T08:26:47Z</time>
      </trkpt>
      <trkpt lat="44.79583" lon="1.67606">
        <ele>258.73</ele>
        <time>2010-03-21T08:26:59Z</time>
      </trkpt>
      <trkpt lat="44.79574" lon="1.67595">
        <ele>258.73</ele>
        <time>2010-03-21T08:27:08Z</time>
      </trkpt>
      <trkpt lat="44.79558" lon="1.6759">
        <ele>258.73</ele>
        <time>2010-03-21T08:27:16Z</time>
      </trkpt>
      <trkpt lat="44.79552" lon="1.67589">
        <ele>258.25</ele>
        <time>2010-03-21T08:27:19Z</time>
      </trkpt>
      <trkpt lat="44.7955" lon="1.67587">
        <ele>258.73</ele>
        <time>2010-03-21T08:27:21Z</time>
      </trkpt>
      <trkpt lat="44.79532" lon="1.67579">
        <ele>258.73</ele>
        <time>2010-03-21T08:27:33Z</time>
      </trkpt>
      <trkpt lat="44.79532" lon="1.67578">
        <ele>259.21</ele>
        <time>2010-03-21T08:27:34Z</time>
      </trkpt>
      <trkpt lat="44.79525" lon="1.67573">
        <ele>259.21</ele>
        <time>2010-03-21T08:27:37Z</time>
      </trkpt>
      <trkpt lat="44.79514" lon="1.67557">
        <ele>259.21</ele>
        <time>2010-03-21T08:27:45Z</time>
      </trkpt>
      <trkpt lat="44.79506" lon="1.6754">
        <ele>258.73</ele>
        <time>2010-03-21T08:27:54Z</time>
      </trkpt>
      <trkpt lat="44.79503" lon="1.6753">
        <ele>258.25</ele>
        <time>2010-03-21T08:27:59Z</time>
      </trkpt>
      <trkpt lat="44.79502" lon="1.67516">
        <ele>257.77</ele>
        <time>2010-03-21T08:28:06Z</time>
      </trkpt>
      <trkpt lat="44.79499" lon="1.67508">
        <ele>256.33</ele>
        <time>2010-03-21T08:28:09Z</time>
      </trkpt>
      <trkpt lat="44.79487" lon="1.67497">
        <ele>257.29</ele>
        <time>2010-03-21T08:28:17Z</time>
      </trkpt>
      <trkpt lat="44.79482" lon="1.67492">
        <ele>255.85</ele>
        <time>2010-03-21T08:28:20Z</time>
      </trkpt>
      <trkpt lat="44.79473" lon="1.67494">
        <ele>254.89</ele>
        <time>2010-03-21T08:28:25Z</time>
      </trkpt>
      <trkpt lat="44.7947" lon="1.67494">
        <ele>254.41</ele>
        <time>2010-03-21T08:28:28Z</time>
      </trkpt>
      <trkpt lat="44.79465" lon="1.67494">
        <ele>255.37</ele>
        <time>2010-03-21T08:28:31Z</time>
      </trkpt>
      <trkpt lat="44.79457" lon="1.67491">
        <ele>254.41</ele>
        <time>2010-03-21T08:28:37Z</time>
      </trkpt>
      <trkpt lat="44.79453" lon="1.67489">
        <ele>252.96</ele>
        <time>2010-03-21T08:28:39Z</time>
      </trkpt>
      <trkpt lat="44.79449" lon="1.67485">
        <ele>252.96</ele>
        <time>2010-03-21T08:28:42Z</time>
      </trkpt>
      <trkpt lat="44.79437" lon="1.67492">
        <ele>251.52</ele>
        <time>2010-03-21T08:28:50Z</time>
      </trkpt>
      <trkpt lat="44.7943" lon="1.6749">
        <ele>251.04</ele>
        <time>2010-03-21T08:28:55Z</time>
      </trkpt>
      <trkpt lat="44.79425" lon="1.67488">
        <ele>252</ele>
        <time>2010-03-21T08:28:59Z</time>
      </trkpt>
      <trkpt lat="44.79417" lon="1.67491">
        <ele>251.52</ele>
        <time>2010-03-21T08:29:03Z</time>
      </trkpt>
      <trkpt lat="44.79396" lon="1.67484">
        <ele>249.6</ele>
        <time>2010-03-21T08:29:13Z</time>
      </trkpt>
      <trkpt lat="44.7939" lon="1.67484">
        <ele>250.08</ele>
        <time>2010-03-21T08:29:17Z</time>
      </trkpt>
      <trkpt lat="44.7938" lon="1.67482">
        <ele>250.08</ele>
        <time>2010-03-21T08:29:26Z</time>
      </trkpt>
      <trkpt lat="44.79377" lon="1.67481">
        <ele>248.16</ele>
        <time>2010-03-21T08:29:28Z</time>
      </trkpt>
      <trkpt lat="44.79371" lon="1.67482">
        <ele>248.64</ele>
        <time>2010-03-21T08:29:32Z</time>
      </trkpt>
      <trkpt lat="44.79364" lon="1.67481">
        <ele>249.6</ele>
        <time>2010-03-21T08:29:36Z</time>
      </trkpt>
      <trkpt lat="44.79356" lon="1.67475">
        <ele>250.08</ele>
        <time>2010-03-21T08:29:41Z</time>
      </trkpt>
      <trkpt lat="44.79348" lon="1.67454">
        <ele>250.08</ele>
        <time>2010-03-21T08:29:50Z</time>
      </trkpt>
      <trkpt lat="44.79343" lon="1.6744">
        <ele>249.12</ele>
        <time>2010-03-21T08:29:55Z</time>
      </trkpt>
      <trkpt lat="44.7934" lon="1.67435">
        <ele>248.64</ele>
        <time>2010-03-21T08:29:58Z</time>
      </trkpt>
      <trkpt lat="44.7934" lon="1.67422">
        <ele>248.64</ele>
        <time>2010-03-21T08:30:08Z</time>
      </trkpt>
      <trkpt lat="44.79339" lon="1.67423">
        <ele>248.64</ele>
        <time>2010-03-21T08:30:10Z</time>
      </trkpt>
      <trkpt lat="44.79331" lon="1.67419">
        <ele>250.08</ele>
        <time>2010-03-21T08:30:14Z</time>
      </trkpt>
      <trkpt lat="44.79319" lon="1.67415">
        <ele>249.12</ele>
        <time>2010-03-21T08:30:20Z</time>
      </trkpt>
      <trkpt lat="44.79317" lon="1.67412">
        <ele>250.08</ele>
        <time>2010-03-21T08:30:22Z</time>
      </trkpt>
      <trkpt lat="44.79314" lon="1.67412">
        <ele>249.6</ele>
        <time>2010-03-21T08:30:24Z</time>
      </trkpt>
      <trkpt lat="44.7931" lon="1.67411">
        <ele>248.64</ele>
        <time>2010-03-21T08:30:26Z</time>
      </trkpt>
      <trkpt lat="44.79299" lon="1.6741">
        <ele>249.12</ele>
        <time>2010-03-21T08:30:32Z</time>
      </trkpt>
      <trkpt lat="44.79296" lon="1.67409">
        <ele>249.12</ele>
        <time>2010-03-21T08:30:34Z</time>
      </trkpt>
      <trkpt lat="44.79293" lon="1.67405">
        <ele>249.6</ele>
        <time>2010-03-21T08:30:43Z</time>
      </trkpt>
      <trkpt lat="44.79285" lon="1.67386">
        <ele>250.56</ele>
        <time>2010-03-21T08:30:52Z</time>
      </trkpt>
      <trkpt lat="44.79276" lon="1.67365">
        <ele>250.56</ele>
        <time>2010-03-21T08:31:00Z</time>
      </trkpt>
      <trkpt lat="44.79267" lon="1.67348">
        <ele>251.04</ele>
        <time>2010-03-21T08:31:07Z</time>
      </trkpt>
      <trkpt lat="44.79265" lon="1.67339">
        <ele>250.56</ele>
        <time>2010-03-21T08:31:10Z</time>
      </trkpt>
      <trkpt lat="44.79257" lon="1.67336">
        <ele>250.08</ele>
        <time>2010-03-21T08:31:16Z</time>
      </trkpt>
      <trkpt lat="44.79246" lon="1.67335">
        <ele>251.52</ele>
        <time>2010-03-21T08:31:21Z</time>
      </trkpt>
      <trkpt lat="44.79243" lon="1.67336">
        <ele>250.56</ele>
        <time>2010-03-21T08:31:24Z</time>
      </trkpt>
      <trkpt lat="44.7923" lon="1.67337">
        <ele>252.48</ele>
        <time>2010-03-21T08:31:34Z</time>
      </trkpt>
      <trkpt lat="44.79212" lon="1.67334">
        <ele>254.41</ele>
        <time>2010-03-21T08:31:46Z</time>
      </trkpt>
      <trkpt lat="44.79205" lon="1.67332">
        <ele>254.41</ele>
        <time>2010-03-21T08:31:49Z</time>
      </trkpt>
      <trkpt lat="44.79186" lon="1.67329">
        <ele>254.89</ele>
        <time>2010-03-21T08:32:00Z</time>
      </trkpt>
      <trkpt lat="44.79179" lon="1.67328">
        <ele>255.85</ele>
        <time>2010-03-21T08:32:06Z</time>
      </trkpt>
      <trkpt lat="44.79174" lon="1.67326">
        <ele>254.89</ele>
        <time>2010-03-21T08:32:11Z</time>
      </trkpt>
      <trkpt lat="44.79167" lon="1.67326">
        <ele>255.85</ele>
        <time>2010-03-21T08:32:17Z</time>
      </trkpt>
      <trkpt lat="44.7916" lon="1.67325">
        <ele>256.33</ele>
        <time>2010-03-21T08:32:22Z</time>
      </trkpt>
      <trkpt lat="44.79152" lon="1.67325">
        <ele>256.33</ele>
        <time>2010-03-21T08:32:26Z</time>
      </trkpt>
      <trkpt lat="44.79143" lon="1.67325">
        <ele>256.33</ele>
        <time>2010-03-21T08:32:30Z</time>
      </trkpt>
      <trkpt lat="44.79134" lon="1.67319">
        <ele>255.85</ele>
        <time>2010-03-21T08:32:35Z</time>
      </trkpt>
      <trkpt lat="44.79126" lon="1.67316">
        <ele>255.37</ele>
        <time>2010-03-21T08:32:41Z</time>
      </trkpt>
      <trkpt lat="44.79116" lon="1.67308">
        <ele>255.85</ele>
        <time>2010-03-21T08:32:48Z</time>
      </trkpt>
      <trkpt lat="44.79109" lon="1.67309">
        <ele>255.37</ele>
        <time>2010-03-21T08:32:54Z</time>
      </trkpt>
      <trkpt lat="44.79092" lon="1.67302">
        <ele>254.89</ele>
        <time>2010-03-21T08:33:03Z</time>
      </trkpt>
      <trkpt lat="44.79087" lon="1.673">
        <ele>253.93</ele>
        <time>2010-03-21T08:33:07Z</time>
      </trkpt>
      <trkpt lat="44.79082" lon="1.67302">
        <ele>253.93</ele>
        <time>2010-03-21T08:33:12Z</time>
      </trkpt>
      <trkpt lat="44.79077" lon="1.67301">
        <ele>252.96</ele>
        <time>2010-03-21T08:33:16Z</time>
      </trkpt>
      <trkpt lat="44.79072" lon="1.673">
        <ele>252.48</ele>
        <time>2010-03-21T08:33:18Z</time>
      </trkpt>
      <trkpt lat="44.79069" lon="1.67298">
        <ele>252</ele>
        <time>2010-03-21T08:33:22Z</time>
      </trkpt>
      <trkpt lat="44.79062" lon="1.67294">
        <ele>251.04</ele>
        <time>2010-03-21T08:33:27Z</time>
      </trkpt>
      <trkpt lat="44.79042" lon="1.6728">
        <ele>251.04</ele>
        <time>2010-03-21T08:33:38Z</time>
      </trkpt>
      <trkpt lat="44.79034" lon="1.67273">
        <ele>248.16</ele>
        <time>2010-03-21T08:33:43Z</time>
      </trkpt>
      <trkpt lat="44.79033" lon="1.6725">
        <ele>246.72</ele>
        <time>2010-03-21T08:33:52Z</time>
      </trkpt>
      <trkpt lat="44.79036" lon="1.67232">
        <ele>246.72</ele>
        <time>2010-03-21T08:34:02Z</time>
      </trkpt>
      <trkpt lat="44.7904" lon="1.67212">
        <ele>246.23</ele>
        <time>2010-03-21T08:34:10Z</time>
      </trkpt>
      <trkpt lat="44.79043" lon="1.67196">
        <ele>245.27</ele>
        <time>2010-03-21T08:34:19Z</time>
      </trkpt>
      <trkpt lat="44.79045" lon="1.67187">
        <ele>245.27</ele>
        <time>2010-03-21T08:34:25Z</time>
      </trkpt>
      <trkpt lat="44.79045" lon="1.67172">
        <ele>245.75</ele>
        <time>2010-03-21T08:34:32Z</time>
      </trkpt>
      <trkpt lat="44.79045" lon="1.67155">
        <ele>245.27</ele>
        <time>2010-03-21T08:34:39Z</time>
      </trkpt>
      <trkpt lat="44.79045" lon="1.67152">
        <ele>244.79</ele>
        <time>2010-03-21T08:34:40Z</time>
      </trkpt>
      <trkpt lat="44.79047" lon="1.67135">
        <ele>243.83</ele>
        <time>2010-03-21T08:34:48Z</time>
      </trkpt>
      <trkpt lat="44.79047" lon="1.67132">
        <ele>243.83</ele>
        <time>2010-03-21T08:34:50Z</time>
      </trkpt>
      <trkpt lat="44.79046" lon="1.67123">
        <ele>244.31</ele>
        <time>2010-03-21T08:34:53Z</time>
      </trkpt>
      <trkpt lat="44.79053" lon="1.67098">
        <ele>242.87</ele>
        <time>2010-03-21T08:35:04Z</time>
      </trkpt>
      <trkpt lat="44.79055" lon="1.67087">
        <ele>241.91</ele>
        <time>2010-03-21T08:35:10Z</time>
      </trkpt>
      <trkpt lat="44.79055" lon="1.67084">
        <ele>242.39</ele>
        <time>2010-03-21T08:35:13Z</time>
      </trkpt>
      <trkpt lat="44.79068" lon="1.67084">
        <ele>243.35</ele>
        <time>2010-03-21T08:35:21Z</time>
      </trkpt>
      <trkpt lat="44.79065" lon="1.67084">
        <ele>242.39</ele>
        <time>2010-03-21T08:35:37Z</time>
      </trkpt>
      <trkpt lat="44.79063" lon="1.67083">
        <ele>241.91</ele>
        <time>2010-03-21T08:35:38Z</time>
      </trkpt>
      <trkpt lat="44.79059" lon="1.67081">
        <ele>241.91</ele>
        <time>2010-03-21T08:35:41Z</time>
      </trkpt>
      <trkpt lat="44.79051" lon="1.67084">
        <ele>241.43</ele>
        <time>2010-03-21T08:35:45Z</time>
      </trkpt>
      <trkpt lat="44.79042" lon="1.67096">
        <ele>240.47</ele>
        <time>2010-03-21T08:35:52Z</time>
      </trkpt>
      <trkpt lat="44.79033" lon="1.6711">
        <ele>238.06</ele>
        <time>2010-03-21T08:36:01Z</time>
      </trkpt>
      <trkpt lat="44.79026" lon="1.67125">
        <ele>238.06</ele>
        <time>2010-03-21T08:36:09Z</time>
      </trkpt>
      <trkpt lat="44.7902" lon="1.67136">
        <ele>237.1</ele>
        <time>2010-03-21T08:36:15Z</time>
      </trkpt>
      <trkpt lat="44.79016" lon="1.67152">
        <ele>235.18</ele>
        <time>2010-03-21T08:36:26Z</time>
      </trkpt>
      <trkpt lat="44.79011" lon="1.6717">
        <ele>233.26</ele>
        <time>2010-03-21T08:36:31Z</time>
      </trkpt>
      <trkpt lat="44.79003" lon="1.67185">
        <ele>229.89</ele>
        <time>2010-03-21T08:36:40Z</time>
      </trkpt>
      <trkpt lat="44.79003" lon="1.67188">
        <ele>229.89</ele>
        <time>2010-03-21T08:36:41Z</time>
      </trkpt>
      <trkpt lat="44.79" lon="1.67204">
        <ele>226.53</ele>
        <time>2010-03-21T08:36:49Z</time>
      </trkpt>
      <trkpt lat="44.78996" lon="1.67213">
        <ele>225.09</ele>
        <time>2010-03-21T08:36:54Z</time>
      </trkpt>
      <trkpt lat="44.7899" lon="1.67226">
        <ele>223.16</ele>
        <time>2010-03-21T08:36:59Z</time>
      </trkpt>
      <trkpt lat="44.78989" lon="1.67231">
        <ele>222.68</ele>
        <time>2010-03-21T08:37:01Z</time>
      </trkpt>
      <trkpt lat="44.78985" lon="1.67245">
        <ele>221.24</ele>
        <time>2010-03-21T08:37:07Z</time>
      </trkpt>
      <trkpt lat="44.78981" lon="1.67272">
        <ele>218.84</ele>
        <time>2010-03-21T08:37:15Z</time>
      </trkpt>
      <trkpt lat="44.7898" lon="1.67273">
        <ele>219.32</ele>
        <time>2010-03-21T08:37:17Z</time>
      </trkpt>
      <trkpt lat="44.78977" lon="1.67267">
        <ele>217.4</ele>
        <time>2010-03-21T08:37:23Z</time>
      </trkpt>
      <trkpt lat="44.7898" lon="1.67263">
        <ele>216.43</ele>
        <time>2010-03-21T08:37:25Z</time>
      </trkpt>
      <trkpt lat="44.78978" lon="1.6725">
        <ele>215.95</ele>
        <time>2010-03-21T08:37:31Z</time>
      </trkpt>
      <trkpt lat="44.78978" lon="1.67246">
        <ele>214.03</ele>
        <time>2010-03-21T08:37:34Z</time>
      </trkpt>
      <trkpt lat="44.7898" lon="1.67232">
        <ele>212.11</ele>
        <time>2010-03-21T08:37:39Z</time>
      </trkpt>
      <trkpt lat="44.78981" lon="1.67228">
        <ele>212.59</ele>
        <time>2010-03-21T08:37:41Z</time>
      </trkpt>
      <trkpt lat="44.7898" lon="1.67217">
        <ele>211.15</ele>
        <time>2010-03-21T08:37:45Z</time>
      </trkpt>
      <trkpt lat="44.7898" lon="1.67206">
        <ele>210.67</ele>
        <time>2010-03-21T08:37:50Z</time>
      </trkpt>
      <trkpt lat="44.78978" lon="1.67199">
        <ele>209.7</ele>
        <time>2010-03-21T08:37:52Z</time>
      </trkpt>
      <trkpt lat="44.78976" lon="1.67185">
        <ele>208.26</ele>
        <time>2010-03-21T08:37:58Z</time>
      </trkpt>
      <trkpt lat="44.7898" lon="1.67185">
        <ele>207.78</ele>
        <time>2010-03-21T08:38:00Z</time>
      </trkpt>
      <trkpt lat="44.78981" lon="1.67182">
        <ele>207.78</ele>
        <time>2010-03-21T08:38:02Z</time>
      </trkpt>
      <trkpt lat="44.78982" lon="1.67167">
        <ele>206.34</ele>
        <time>2010-03-21T08:38:08Z</time>
      </trkpt>
      <trkpt lat="44.78985" lon="1.67156">
        <ele>206.34</ele>
        <time>2010-03-21T08:38:13Z</time>
      </trkpt>
      <trkpt lat="44.78993" lon="1.67134">
        <ele>205.86</ele>
        <time>2010-03-21T08:38:21Z</time>
      </trkpt>
      <trkpt lat="44.78994" lon="1.67124">
        <ele>204.9</ele>
        <time>2010-03-21T08:38:25Z</time>
      </trkpt>
      <trkpt lat="44.79003" lon="1.67113">
        <ele>204.9</ele>
        <time>2010-03-21T08:38:29Z</time>
      </trkpt>
      <trkpt lat="44.79005" lon="1.67106">
        <ele>204.42</ele>
        <time>2010-03-21T08:38:33Z</time>
      </trkpt>
      <trkpt lat="44.79004" lon="1.67099">
        <ele>203.46</ele>
        <time>2010-03-21T08:38:39Z</time>
      </trkpt>
      <trkpt lat="44.79009" lon="1.67082">
        <ele>202.98</ele>
        <time>2010-03-21T08:38:48Z</time>
      </trkpt>
      <trkpt lat="44.79006" lon="1.67057">
        <ele>202.49</ele>
        <time>2010-03-21T08:38:58Z</time>
      </trkpt>
      <trkpt lat="44.79005" lon="1.67039">
        <ele>201.53</ele>
        <time>2010-03-21T08:39:06Z</time>
      </trkpt>
      <trkpt lat="44.79005" lon="1.67019">
        <ele>200.57</ele>
        <time>2010-03-21T08:39:13Z</time>
      </trkpt>
      <trkpt lat="44.79003" lon="1.67014">
        <ele>199.61</ele>
        <time>2010-03-21T08:39:17Z</time>
      </trkpt>
      <trkpt lat="44.79006" lon="1.67008">
        <ele>201.53</ele>
        <time>2010-03-21T08:39:19Z</time>
      </trkpt>
      <trkpt lat="44.79019" lon="1.66987">
        <ele>199.61</ele>
        <time>2010-03-21T08:39:27Z</time>
      </trkpt>
      <trkpt lat="44.79018" lon="1.66979">
        <ele>199.13</ele>
        <time>2010-03-21T08:39:33Z</time>
      </trkpt>
      <trkpt lat="44.79018" lon="1.66969">
        <ele>198.17</ele>
        <time>2010-03-21T08:39:39Z</time>
      </trkpt>
      <trkpt lat="44.79017" lon="1.66967">
        <ele>196.25</ele>
        <time>2010-03-21T08:39:43Z</time>
      </trkpt>
      <trkpt lat="44.79018" lon="1.66958">
        <ele>195.28</ele>
        <time>2010-03-21T08:39:50Z</time>
      </trkpt>
      <trkpt lat="44.7902" lon="1.66955">
        <ele>195.28</ele>
        <time>2010-03-21T08:39:53Z</time>
      </trkpt>
      <trkpt lat="44.79029" lon="1.66945">
        <ele>195.28</ele>
        <time>2010-03-21T08:40:01Z</time>
      </trkpt>
      <trkpt lat="44.79033" lon="1.66938">
        <ele>191.92</ele>
        <time>2010-03-21T08:40:09Z</time>
      </trkpt>
      <trkpt lat="44.79036" lon="1.66937">
        <ele>191.44</ele>
        <time>2010-03-21T08:40:10Z</time>
      </trkpt>
      <trkpt lat="44.79047" lon="1.66929">
        <ele>187.59</ele>
        <time>2010-03-21T08:40:15Z</time>
      </trkpt>
      <trkpt lat="44.79049" lon="1.66942">
        <ele>185.67</ele>
        <time>2010-03-21T08:40:26Z</time>
      </trkpt>
      <trkpt lat="44.79056" lon="1.66938">
        <ele>184.71</ele>
        <time>2010-03-21T08:40:34Z</time>
      </trkpt>
      <trkpt lat="44.79059" lon="1.6694">
        <ele>183.75</ele>
        <time>2010-03-21T08:40:36Z</time>
      </trkpt>
      <trkpt lat="44.79069" lon="1.66934">
        <ele>183.75</ele>
        <time>2010-03-21T08:40:48Z</time>
      </trkpt>
      <trkpt lat="44.79072" lon="1.66931">
        <ele>185.19</ele>
        <time>2010-03-21T08:40:50Z</time>
      </trkpt>
      <trkpt lat="44.7907" lon="1.66916">
        <ele>184.23</ele>
        <time>2010-03-21T08:40:53Z</time>
      </trkpt>
      <trkpt lat="44.79071" lon="1.66904">
        <ele>184.71</ele>
        <time>2010-03-21T08:40:56Z</time>
      </trkpt>
      <trkpt lat="44.79071" lon="1.66875">
        <ele>190</ele>
        <time>2010-03-21T08:41:06Z</time>
      </trkpt>
      <trkpt lat="44.79073" lon="1.66874">
        <ele>190</ele>
        <time>2010-03-21T08:41:09Z</time>
      </trkpt>
      <trkpt lat="44.79085" lon="1.66878">
        <ele>190.48</ele>
        <time>2010-03-21T08:41:13Z</time>
      </trkpt>
      <trkpt lat="44.79093" lon="1.66883">
        <ele>191.92</ele>
        <time>2010-03-21T08:41:21Z</time>
      </trkpt>
      <trkpt lat="44.79101" lon="1.66885">
        <ele>191.92</ele>
        <time>2010-03-21T08:41:24Z</time>
      </trkpt>
      <trkpt lat="44.79104" lon="1.66888">
        <ele>193.36</ele>
        <time>2010-03-21T08:41:27Z</time>
      </trkpt>
      <trkpt lat="44.7911" lon="1.66894">
        <ele>195.28</ele>
        <time>2010-03-21T08:41:32Z</time>
      </trkpt>
      <trkpt lat="44.79116" lon="1.66892">
        <ele>197.21</ele>
        <time>2010-03-21T08:41:39Z</time>
      </trkpt>
      <trkpt lat="44.79117" lon="1.66895">
        <ele>197.69</ele>
        <time>2010-03-21T08:41:43Z</time>
      </trkpt>
      <trkpt lat="44.79123" lon="1.66901">
        <ele>199.61</ele>
        <time>2010-03-21T08:41:50Z</time>
      </trkpt>
      <trkpt lat="44.79126" lon="1.66911">
        <ele>200.57</ele>
        <time>2010-03-21T08:41:57Z</time>
      </trkpt>
      <trkpt lat="44.7915" lon="1.66901">
        <ele>203.94</ele>
        <time>2010-03-21T08:42:04Z</time>
      </trkpt>
      <trkpt lat="44.79158" lon="1.669">
        <ele>204.9</ele>
        <time>2010-03-21T08:42:09Z</time>
      </trkpt>
      <trkpt lat="44.79165" lon="1.66896">
        <ele>206.34</ele>
        <time>2010-03-21T08:42:11Z</time>
      </trkpt>
      <trkpt lat="44.79164" lon="1.66899">
        <ele>205.38</ele>
        <time>2010-03-21T08:42:13Z</time>
      </trkpt>
      <trkpt lat="44.79167" lon="1.66898">
        <ele>205.38</ele>
        <time>2010-03-21T08:42:15Z</time>
      </trkpt>
      <trkpt lat="44.79155" lon="1.6691">
        <ele>206.34</ele>
        <time>2010-03-21T08:42:23Z</time>
      </trkpt>
      <trkpt lat="44.79156" lon="1.66909">
        <ele>205.86</ele>
        <time>2010-03-21T08:42:27Z</time>
      </trkpt>
      <trkpt lat="44.79164" lon="1.66912">
        <ele>206.82</ele>
        <time>2010-03-21T08:42:34Z</time>
      </trkpt>
      <trkpt lat="44.79162" lon="1.66917">
        <ele>207.3</ele>
        <time>2010-03-21T08:42:36Z</time>
      </trkpt>
      <trkpt lat="44.79168" lon="1.66921">
        <ele>206.34</ele>
        <time>2010-03-21T08:42:40Z</time>
      </trkpt>
      <trkpt lat="44.79173" lon="1.66922">
        <ele>207.3</ele>
        <time>2010-03-21T08:42:43Z</time>
      </trkpt>
      <trkpt lat="44.79171" lon="1.66928">
        <ele>206.34</ele>
        <time>2010-03-21T08:42:46Z</time>
      </trkpt>
      <trkpt lat="44.79161" lon="1.66952">
        <ele>208.26</ele>
        <time>2010-03-21T08:42:51Z</time>
      </trkpt>
      <trkpt lat="44.79165" lon="1.66955">
        <ele>208.26</ele>
        <time>2010-03-21T08:42:53Z</time>
      </trkpt>
      <trkpt lat="44.79169" lon="1.66961">
        <ele>206.82</ele>
        <time>2010-03-21T08:43:00Z</time>
      </trkpt>
      <trkpt lat="44.79138" lon="1.67012">
        <ele>205.38</ele>
        <time>2010-03-21T08:43:09Z</time>
      </trkpt>
      <trkpt lat="44.79141" lon="1.67018">
        <ele>204.42</ele>
        <time>2010-03-21T08:43:12Z</time>
      </trkpt>
      <trkpt lat="44.79145" lon="1.67026">
        <ele>201.05</ele>
        <time>2010-03-21T08:43:21Z</time>
      </trkpt>
      <trkpt lat="44.79145" lon="1.67027">
        <ele>201.05</ele>
        <time>2010-03-21T08:43:22Z</time>
      </trkpt>
      <trkpt lat="44.79146" lon="1.67033">
        <ele>197.21</ele>
        <time>2010-03-21T08:43:28Z</time>
      </trkpt>
      <trkpt lat="44.79153" lon="1.67042">
        <ele>194.32</ele>
        <time>2010-03-21T08:43:33Z</time>
      </trkpt>
      <trkpt lat="44.79152" lon="1.67042">
        <ele>193.36</ele>
        <time>2010-03-21T08:43:34Z</time>
      </trkpt>
      <trkpt lat="44.7915" lon="1.67038">
        <ele>191.92</ele>
        <time>2010-03-21T08:43:41Z</time>
      </trkpt>
      <trkpt lat="44.79147" lon="1.67024">
        <ele>188.08</ele>
        <time>2010-03-21T08:43:49Z</time>
      </trkpt>
      <trkpt lat="44.79148" lon="1.67025">
        <ele>187.11</ele>
        <time>2010-03-21T08:43:53Z</time>
      </trkpt>
      <trkpt lat="44.79151" lon="1.67024">
        <ele>183.27</ele>
        <time>2010-03-21T08:43:58Z</time>
      </trkpt>
      <trkpt lat="44.79158" lon="1.6703">
        <ele>180.38</ele>
        <time>2010-03-21T08:44:06Z</time>
      </trkpt>
      <trkpt lat="44.79154" lon="1.67027">
        <ele>177.02</ele>
        <time>2010-03-21T08:44:17Z</time>
      </trkpt>
      <trkpt lat="44.79148" lon="1.67023">
        <ele>175.1</ele>
        <time>2010-03-21T08:44:23Z</time>
      </trkpt>
      <trkpt lat="44.79149" lon="1.67015">
        <ele>172.69</ele>
        <time>2010-03-21T08:44:29Z</time>
      </trkpt>
      <trkpt lat="44.79149" lon="1.6701">
        <ele>168.85</ele>
        <time>2010-03-21T08:44:35Z</time>
      </trkpt>
      <trkpt lat="44.7915" lon="1.67009">
        <ele>170.29</ele>
        <time>2010-03-21T08:44:36Z</time>
      </trkpt>
      <trkpt lat="44.79172" lon="1.67015">
        <ele>168.37</ele>
        <time>2010-03-21T08:44:55Z</time>
      </trkpt>
      <trkpt lat="44.79174" lon="1.67016">
        <ele>166.93</ele>
        <time>2010-03-21T08:45:02Z</time>
      </trkpt>
      <trkpt lat="44.79204" lon="1.67024">
        <ele>167.41</ele>
        <time>2010-03-21T08:45:21Z</time>
      </trkpt>
      <trkpt lat="44.79211" lon="1.67024">
        <ele>166.45</ele>
        <time>2010-03-21T08:45:27Z</time>
      </trkpt>
      <trkpt lat="44.79222" lon="1.6702">
        <ele>165.96</ele>
        <time>2010-03-21T08:45:35Z</time>
      </trkpt>
      <trkpt lat="44.79228" lon="1.67007">
        <ele>165.96</ele>
        <time>2010-03-21T08:45:44Z</time>
      </trkpt>
      <trkpt lat="44.79238" lon="1.67003">
        <ele>167.89</ele>
        <time>2010-03-21T08:45:50Z</time>
      </trkpt>
      <trkpt lat="44.79254" lon="1.66999">
        <ele>166.45</ele>
        <time>2010-03-21T08:45:58Z</time>
      </trkpt>
      <trkpt lat="44.7926" lon="1.67005">
        <ele>167.41</ele>
        <time>2010-03-21T08:46:02Z</time>
      </trkpt>
      <trkpt lat="44.7927" lon="1.67007">
        <ele>167.89</ele>
        <time>2010-03-21T08:46:10Z</time>
      </trkpt>
      <trkpt lat="44.79273" lon="1.66994">
        <ele>167.89</ele>
        <time>2010-03-21T08:46:13Z</time>
      </trkpt>
      <trkpt lat="44.79293" lon="1.66971">
        <ele>165.96</ele>
        <time>2010-03-21T08:46:28Z</time>
      </trkpt>
      <trkpt lat="44.79301" lon="1.66963">
        <ele>166.45</ele>
        <time>2010-03-21T08:46:33Z</time>
      </trkpt>
      <trkpt lat="44.79314" lon="1.66941">
        <ele>165</ele>
        <time>2010-03-21T08:46:43Z</time>
      </trkpt>
      <trkpt lat="44.79317" lon="1.66939">
        <ele>165.48</ele>
        <time>2010-03-21T08:46:45Z</time>
      </trkpt>
      <trkpt lat="44.79327" lon="1.66934">
        <ele>166.45</ele>
        <time>2010-03-21T08:46:53Z</time>
      </trkpt>
      <trkpt lat="44.79334" lon="1.66915">
        <ele>166.45</ele>
        <time>2010-03-21T08:47:01Z</time>
      </trkpt>
      <trkpt lat="44.79348" lon="1.66913">
        <ele>165.96</ele>
        <time>2010-03-21T08:47:10Z</time>
      </trkpt>
      <trkpt lat="44.79361" lon="1.669">
        <ele>165.96</ele>
        <time>2010-03-21T08:47:20Z</time>
      </trkpt>
      <trkpt lat="44.79363" lon="1.66883">
        <ele>165.48</ele>
        <time>2010-03-21T08:47:29Z</time>
      </trkpt>
      <trkpt lat="44.79373" lon="1.66862">
        <ele>165.96</ele>
        <time>2010-03-21T08:47:35Z</time>
      </trkpt>
      <trkpt lat="44.79385" lon="1.6685">
        <ele>165.48</ele>
        <time>2010-03-21T08:47:43Z</time>
      </trkpt>
      <trkpt lat="44.79387" lon="1.66846">
        <ele>165.48</ele>
        <time>2010-03-21T08:47:44Z</time>
      </trkpt>
      <trkpt lat="44.79393" lon="1.66835">
        <ele>164.52</ele>
        <time>2010-03-21T08:47:52Z</time>
      </trkpt>
      <trkpt lat="44.79405" lon="1.66821">
        <ele>164.52</ele>
        <time>2010-03-21T08:47:58Z</time>
      </trkpt>
      <trkpt lat="44.7941" lon="1.66802">
        <ele>163.56</ele>
        <time>2010-03-21T08:48:04Z</time>
      </trkpt>
      <trkpt lat="44.7941" lon="1.66801">
        <ele>165.48</ele>
        <time>2010-03-21T08:48:07Z</time>
      </trkpt>
      <trkpt lat="44.79415" lon="1.66794">
        <ele>164.04</ele>
        <time>2010-03-21T08:48:12Z</time>
      </trkpt>
      <trkpt lat="44.79418" lon="1.66793">
        <ele>165</ele>
        <time>2010-03-21T08:48:14Z</time>
      </trkpt>
      <trkpt lat="44.79416" lon="1.66769">
        <ele>164.52</ele>
        <time>2010-03-21T08:48:24Z</time>
      </trkpt>
      <trkpt lat="44.7942" lon="1.66741">
        <ele>165</ele>
        <time>2010-03-21T08:48:36Z</time>
      </trkpt>
      <trkpt lat="44.79423" lon="1.66733">
        <ele>165</ele>
        <time>2010-03-21T08:48:42Z</time>
      </trkpt>
      <trkpt lat="44.79423" lon="1.66728">
        <ele>166.45</ele>
        <time>2010-03-21T08:48:44Z</time>
      </trkpt>
      <trkpt lat="44.79419" lon="1.66713">
        <ele>168.37</ele>
        <time>2010-03-21T08:48:54Z</time>
      </trkpt>
      <trkpt lat="44.79417" lon="1.66711">
        <ele>167.41</ele>
        <time>2010-03-21T08:49:02Z</time>
      </trkpt>
      <trkpt lat="44.7941" lon="1.66713">
        <ele>166.45</ele>
        <time>2010-03-21T08:49:17Z</time>
      </trkpt>
      <trkpt lat="44.79404" lon="1.66705">
        <ele>164.04</ele>
        <time>2010-03-21T08:49:25Z</time>
      </trkpt>
      <trkpt lat="44.794" lon="1.66688">
        <ele>162.12</ele>
        <time>2010-03-21T08:49:32Z</time>
      </trkpt>
      <trkpt lat="44.79398" lon="1.66666">
        <ele>158.75</ele>
        <time>2010-03-21T08:49:41Z</time>
      </trkpt>
      <trkpt lat="44.79399" lon="1.66658">
        <ele>160.68</ele>
        <time>2010-03-21T08:49:44Z</time>
      </trkpt>
      <trkpt lat="44.79396" lon="1.66638">
        <ele>158.27</ele>
        <time>2010-03-21T08:49:53Z</time>
      </trkpt>
      <trkpt lat="44.79396" lon="1.66633">
        <ele>157.79</ele>
        <time>2010-03-21T08:49:55Z</time>
      </trkpt>
      <trkpt lat="44.79393" lon="1.66625">
        <ele>159.24</ele>
        <time>2010-03-21T08:49:59Z</time>
      </trkpt>
      <trkpt lat="44.79391" lon="1.66617">
        <ele>157.31</ele>
        <time>2010-03-21T08:50:03Z</time>
      </trkpt>
      <trkpt lat="44.79392" lon="1.66613">
        <ele>159.24</ele>
        <time>2010-03-21T08:50:08Z</time>
      </trkpt>
      <trkpt lat="44.79393" lon="1.66593">
        <ele>156.83</ele>
        <time>2010-03-21T08:50:14Z</time>
      </trkpt>
      <trkpt lat="44.79392" lon="1.66592">
        <ele>156.35</ele>
        <time>2010-03-21T08:50:16Z</time>
      </trkpt>
      <trkpt lat="44.79386" lon="1.66593">
        <ele>157.31</ele>
        <time>2010-03-21T08:50:20Z</time>
      </trkpt>
      <trkpt lat="44.79386" lon="1.66565">
        <ele>159.72</ele>
        <time>2010-03-21T08:50:32Z</time>
      </trkpt>
      <trkpt lat="44.79382" lon="1.66549">
        <ele>159.72</ele>
        <time>2010-03-21T08:50:40Z</time>
      </trkpt>
      <trkpt lat="44.79383" lon="1.66546">
        <ele>161.16</ele>
        <time>2010-03-21T08:50:42Z</time>
      </trkpt>
      <trkpt lat="44.79388" lon="1.66532">
        <ele>161.64</ele>
        <time>2010-03-21T08:50:50Z</time>
      </trkpt>
      <trkpt lat="44.794" lon="1.66511">
        <ele>160.2</ele>
        <time>2010-03-21T08:51:01Z</time>
      </trkpt>
      <trkpt lat="44.79409" lon="1.66489">
        <ele>159.72</ele>
        <time>2010-03-21T08:51:13Z</time>
      </trkpt>
      <trkpt lat="44.79412" lon="1.66484">
        <ele>160.2</ele>
        <time>2010-03-21T08:51:16Z</time>
      </trkpt>
      <trkpt lat="44.79423" lon="1.6647">
        <ele>162.6</ele>
        <time>2010-03-21T08:51:27Z</time>
      </trkpt>
      <trkpt lat="44.79424" lon="1.66467">
        <ele>161.16</ele>
        <time>2010-03-21T08:51:29Z</time>
      </trkpt>
      <trkpt lat="44.79436" lon="1.6645">
        <ele>160.2</ele>
        <time>2010-03-21T08:51:42Z</time>
      </trkpt>
      <trkpt lat="44.79449" lon="1.66431">
        <ele>160.68</ele>
        <time>2010-03-21T08:51:48Z</time>
      </trkpt>
      <trkpt lat="44.7945" lon="1.66429">
        <ele>161.16</ele>
        <time>2010-03-21T08:51:49Z</time>
      </trkpt>
      <trkpt lat="44.79456" lon="1.66413">
        <ele>159.72</ele>
        <time>2010-03-21T08:51:55Z</time>
      </trkpt>
      <trkpt lat="44.79454" lon="1.66398">
        <ele>159.72</ele>
        <time>2010-03-21T08:52:01Z</time>
      </trkpt>
      <trkpt lat="44.79466" lon="1.66364">
        <ele>160.68</ele>
        <time>2010-03-21T08:52:14Z</time>
      </trkpt>
      <trkpt lat="44.79473" lon="1.66348">
        <ele>158.75</ele>
        <time>2010-03-21T08:52:23Z</time>
      </trkpt>
      <trkpt lat="44.79484" lon="1.66337">
        <ele>157.79</ele>
        <time>2010-03-21T08:52:36Z</time>
      </trkpt>
      <trkpt lat="44.79498" lon="1.6634">
        <ele>160.68</ele>
        <time>2010-03-21T08:52:46Z</time>
      </trkpt>
      <trkpt lat="44.79515" lon="1.66333">
        <ele>160.2</ele>
        <time>2010-03-21T08:53:00Z</time>
      </trkpt>
      <trkpt lat="44.79517" lon="1.66331">
        <ele>158.75</ele>
        <time>2010-03-21T08:53:02Z</time>
      </trkpt>
      <trkpt lat="44.79526" lon="1.66329">
        <ele>159.24</ele>
        <time>2010-03-21T08:53:10Z</time>
      </trkpt>
      <trkpt lat="44.79533" lon="1.66323">
        <ele>157.31</ele>
        <time>2010-03-21T08:53:14Z</time>
      </trkpt>
      <trkpt lat="44.79545" lon="1.66325">
        <ele>157.79</ele>
        <time>2010-03-21T08:53:23Z</time>
      </trkpt>
      <trkpt lat="44.7957" lon="1.66306">
        <ele>158.75</ele>
        <time>2010-03-21T08:53:32Z</time>
      </trkpt>
      <trkpt lat="44.79577" lon="1.66295">
        <ele>157.79</ele>
        <time>2010-03-21T08:53:40Z</time>
      </trkpt>
      <trkpt lat="44.79588" lon="1.66279">
        <ele>156.83</ele>
        <time>2010-03-21T08:53:46Z</time>
      </trkpt>
      <trkpt lat="44.79588" lon="1.66279">
        <ele>156.83</ele>
        <time>2010-03-21T08:53:47Z</time>
      </trkpt>
      <trkpt lat="44.79592" lon="1.66275">
        <ele>159.24</ele>
        <time>2010-03-21T08:53:50Z</time>
      </trkpt>
      <trkpt lat="44.79607" lon="1.66266">
        <ele>158.75</ele>
        <time>2010-03-21T08:54:00Z</time>
      </trkpt>
      <trkpt lat="44.79614" lon="1.66254">
        <ele>160.68</ele>
        <time>2010-03-21T08:54:10Z</time>
      </trkpt>
      <trkpt lat="44.79619" lon="1.6625">
        <ele>161.16</ele>
        <time>2010-03-21T08:54:13Z</time>
      </trkpt>
      <trkpt lat="44.79622" lon="1.66247">
        <ele>160.68</ele>
        <time>2010-03-21T08:54:15Z</time>
      </trkpt>
      <trkpt lat="44.79627" lon="1.66244">
        <ele>159.72</ele>
        <time>2010-03-21T08:54:17Z</time>
      </trkpt>
      <trkpt lat="44.79639" lon="1.66229">
        <ele>160.68</ele>
        <time>2010-03-21T08:54:24Z</time>
      </trkpt>
      <trkpt lat="44.79648" lon="1.66227">
        <ele>161.64</ele>
        <time>2010-03-21T08:54:30Z</time>
      </trkpt>
      <trkpt lat="44.79656" lon="1.66222">
        <ele>162.12</ele>
        <time>2010-03-21T08:54:36Z</time>
      </trkpt>
      <trkpt lat="44.79657" lon="1.66219">
        <ele>161.64</ele>
        <time>2010-03-21T08:54:38Z</time>
      </trkpt>
      <trkpt lat="44.7966" lon="1.6622">
        <ele>160.68</ele>
        <time>2010-03-21T08:54:40Z</time>
      </trkpt>
      <trkpt lat="44.79664" lon="1.66218">
        <ele>160.68</ele>
        <time>2010-03-21T08:54:42Z</time>
      </trkpt>
      <trkpt lat="44.79678" lon="1.66206">
        <ele>160.2</ele>
        <time>2010-03-21T08:54:50Z</time>
      </trkpt>
      <trkpt lat="44.7968" lon="1.66206">
        <ele>158.75</ele>
        <time>2010-03-21T08:54:53Z</time>
      </trkpt>
      <trkpt lat="44.79683" lon="1.66203">
        <ele>159.24</ele>
        <time>2010-03-21T08:54:55Z</time>
      </trkpt>
      <trkpt lat="44.79686" lon="1.66196">
        <ele>158.75</ele>
        <time>2010-03-21T08:55:02Z</time>
      </trkpt>
      <trkpt lat="44.79685" lon="1.66197">
        <ele>158.27</ele>
        <time>2010-03-21T08:55:03Z</time>
      </trkpt>
      <trkpt lat="44.7968" lon="1.66205">
        <ele>155.39</ele>
        <time>2010-03-21T08:55:09Z</time>
      </trkpt>
      <trkpt lat="44.79673" lon="1.66216">
        <ele>156.83</ele>
        <time>2010-03-21T08:55:17Z</time>
      </trkpt>
      <trkpt lat="44.79672" lon="1.66215">
        <ele>156.83</ele>
        <time>2010-03-21T08:55:20Z</time>
      </trkpt>
      <trkpt lat="44.79676" lon="1.66206">
        <ele>154.91</ele>
        <time>2010-03-21T08:55:24Z</time>
      </trkpt>
      <trkpt lat="44.79674" lon="1.66197">
        <ele>154.91</ele>
        <time>2010-03-21T08:55:29Z</time>
      </trkpt>
      <trkpt lat="44.79669" lon="1.66201">
        <ele>153.47</ele>
        <time>2010-03-21T08:55:32Z</time>
      </trkpt>
      <trkpt lat="44.79667" lon="1.66192">
        <ele>153.95</ele>
        <time>2010-03-21T08:55:39Z</time>
      </trkpt>
      <trkpt lat="44.79674" lon="1.66166">
        <ele>154.43</ele>
        <time>2010-03-21T08:55:49Z</time>
      </trkpt>
      <trkpt lat="44.79683" lon="1.6616">
        <ele>152.99</ele>
        <time>2010-03-21T08:55:59Z</time>
      </trkpt>
      <trkpt lat="44.79687" lon="1.66168">
        <ele>153.47</ele>
        <time>2010-03-21T08:56:03Z</time>
      </trkpt>
      <trkpt lat="44.79686" lon="1.66145">
        <ele>156.35</ele>
        <time>2010-03-21T08:56:11Z</time>
      </trkpt>
      <trkpt lat="44.79685" lon="1.66134">
        <ele>157.79</ele>
        <time>2010-03-21T08:56:19Z</time>
      </trkpt>
      <trkpt lat="44.79695" lon="1.66122">
        <ele>159.24</ele>
        <time>2010-03-21T08:56:25Z</time>
      </trkpt>
      <trkpt lat="44.79698" lon="1.66118">
        <ele>161.16</ele>
        <time>2010-03-21T08:56:29Z</time>
      </trkpt>
      <trkpt lat="44.79716" lon="1.6611">
        <ele>163.56</ele>
        <time>2010-03-21T08:56:41Z</time>
      </trkpt>
      <trkpt lat="44.79722" lon="1.66111">
        <ele>165.48</ele>
        <time>2010-03-21T08:56:47Z</time>
      </trkpt>
      <trkpt lat="44.7972" lon="1.66104">
        <ele>166.93</ele>
        <time>2010-03-21T08:56:50Z</time>
      </trkpt>
      <trkpt lat="44.79715" lon="1.66106">
        <ele>167.41</ele>
        <time>2010-03-21T08:56:58Z</time>
      </trkpt>
      <trkpt lat="44.79709" lon="1.66107">
        <ele>169.33</ele>
        <time>2010-03-21T08:57:06Z</time>
      </trkpt>
      <trkpt lat="44.79701" lon="1.66102">
        <ele>170.29</ele>
        <time>2010-03-21T08:57:17Z</time>
      </trkpt>
      <trkpt lat="44.79695" lon="1.66101">
        <ele>173.17</ele>
        <time>2010-03-21T08:57:22Z</time>
      </trkpt>
      <trkpt lat="44.79686" lon="1.66106">
        <ele>175.1</ele>
        <time>2010-03-21T08:57:30Z</time>
      </trkpt>
      <trkpt lat="44.79676" lon="1.66105">
        <ele>178.46</ele>
        <time>2010-03-21T08:57:41Z</time>
      </trkpt>
      <trkpt lat="44.79676" lon="1.66106">
        <ele>178.94</ele>
        <time>2010-03-21T08:57:42Z</time>
      </trkpt>
      <trkpt lat="44.79661" lon="1.66109">
        <ele>180.38</ele>
        <time>2010-03-21T08:57:56Z</time>
      </trkpt>
      <trkpt lat="44.79656" lon="1.6611">
        <ele>181.35</ele>
        <time>2010-03-21T08:58:02Z</time>
      </trkpt>
      <trkpt lat="44.79648" lon="1.66108">
        <ele>185.67</ele>
        <time>2010-03-21T08:58:12Z</time>
      </trkpt>
      <trkpt lat="44.79647" lon="1.66108">
        <ele>185.19</ele>
        <time>2010-03-21T08:58:13Z</time>
      </trkpt>
      <trkpt lat="44.79646" lon="1.66107">
        <ele>183.75</ele>
        <time>2010-03-21T08:58:17Z</time>
      </trkpt>
      <trkpt lat="44.79647" lon="1.66103">
        <ele>186.15</ele>
        <time>2010-03-21T08:58:21Z</time>
      </trkpt>
      <trkpt lat="44.79654" lon="1.66087">
        <ele>187.59</ele>
        <time>2010-03-21T08:58:30Z</time>
      </trkpt>
      <trkpt lat="44.79664" lon="1.66083">
        <ele>190</ele>
        <time>2010-03-21T08:58:42Z</time>
      </trkpt>
      <trkpt lat="44.79667" lon="1.6608">
        <ele>191.92</ele>
        <time>2010-03-21T08:58:47Z</time>
      </trkpt>
      <trkpt lat="44.7967" lon="1.66075">
        <ele>191.92</ele>
        <time>2010-03-21T08:58:55Z</time>
      </trkpt>
      <trkpt lat="44.79683" lon="1.66059">
        <ele>194.8</ele>
        <time>2010-03-21T08:59:13Z</time>
      </trkpt>
      <trkpt lat="44.79689" lon="1.66055">
        <ele>197.69</ele>
        <time>2010-03-21T08:59:26Z</time>
      </trkpt>
      <trkpt lat="44.79698" lon="1.66043">
        <ele>201.53</ele>
        <time>2010-03-21T08:59:42Z</time>
      </trkpt>
      <trkpt lat="44.79703" lon="1.66038">
        <ele>203.46</ele>
        <time>2010-03-21T08:59:57Z</time>
      </trkpt>
      <trkpt lat="44.79711" lon="1.6602">
        <ele>206.82</ele>
        <time>2010-03-21T09:00:11Z</time>
      </trkpt>
      <trkpt lat="44.79722" lon="1.66006">
        <ele>208.74</ele>
        <time>2010-03-21T09:00:26Z</time>
      </trkpt>
      <trkpt lat="44.7973" lon="1.66">
        <ele>211.15</ele>
        <time>2010-03-21T09:00:42Z</time>
      </trkpt>
      <trkpt lat="44.79743" lon="1.65986">
        <ele>213.07</ele>
        <time>2010-03-21T09:00:58Z</time>
      </trkpt>
      <trkpt lat="44.79754" lon="1.65981">
        <ele>216.43</ele>
        <time>2010-03-21T09:01:13Z</time>
      </trkpt>
      <trkpt lat="44.7976" lon="1.65976">
        <ele>218.36</ele>
        <time>2010-03-21T09:01:28Z</time>
      </trkpt>
      <trkpt lat="44.79768" lon="1.65969">
        <ele>220.28</ele>
        <time>2010-03-21T09:01:46Z</time>
      </trkpt>
      <trkpt lat="44.79775" lon="1.65968">
        <ele>223.64</ele>
        <time>2010-03-21T09:01:58Z</time>
      </trkpt>
      <trkpt lat="44.79783" lon="1.65962">
        <ele>225.09</ele>
        <time>2010-03-21T09:02:16Z</time>
      </trkpt>
      <trkpt lat="44.79794" lon="1.65959">
        <ele>227.97</ele>
        <time>2010-03-21T09:02:30Z</time>
      </trkpt>
      <trkpt lat="44.79802" lon="1.65955">
        <ele>230.37</ele>
        <time>2010-03-21T09:02:47Z</time>
      </trkpt>
      <trkpt lat="44.79805" lon="1.65944">
        <ele>231.81</ele>
        <time>2010-03-21T09:03:11Z</time>
      </trkpt>
      <trkpt lat="44.79807" lon="1.65939">
        <ele>233.26</ele>
        <time>2010-03-21T09:03:14Z</time>
      </trkpt>
      <trkpt lat="44.79808" lon="1.65924">
        <ele>235.18</ele>
        <time>2010-03-21T09:03:22Z</time>
      </trkpt>
      <trkpt lat="44.79805" lon="1.65927">
        <ele>239.02</ele>
        <time>2010-03-21T09:03:36Z</time>
      </trkpt>
      <trkpt lat="44.79805" lon="1.65927">
        <ele>237.1</ele>
        <time>2010-03-21T09:03:37Z</time>
      </trkpt>
      <trkpt lat="44.79809" lon="1.65918">
        <ele>240.95</ele>
        <time>2010-03-21T09:03:51Z</time>
      </trkpt>
      <trkpt lat="44.7981" lon="1.65919">
        <ele>242.87</ele>
        <time>2010-03-21T09:03:58Z</time>
      </trkpt>
      <trkpt lat="44.79806" lon="1.65914">
        <ele>243.35</ele>
        <time>2010-03-21T09:04:11Z</time>
      </trkpt>
      <trkpt lat="44.798" lon="1.65915">
        <ele>245.27</ele>
        <time>2010-03-21T09:04:22Z</time>
      </trkpt>
      <trkpt lat="44.79792" lon="1.65925">
        <ele>247.2</ele>
        <time>2010-03-21T09:04:37Z</time>
      </trkpt>
      <trkpt lat="44.79784" lon="1.65931">
        <ele>246.72</ele>
        <time>2010-03-21T09:04:51Z</time>
      </trkpt>
      <trkpt lat="44.79774" lon="1.65923">
        <ele>247.2</ele>
        <time>2010-03-21T09:05:21Z</time>
      </trkpt>
      <trkpt lat="44.79767" lon="1.65927">
        <ele>246.23</ele>
        <time>2010-03-21T09:05:26Z</time>
      </trkpt>
      <trkpt lat="44.79753" lon="1.65939">
        <ele>249.12</ele>
        <time>2010-03-21T09:05:35Z</time>
      </trkpt>
      <trkpt lat="44.79745" lon="1.65947">
        <ele>250.08</ele>
        <time>2010-03-21T09:05:43Z</time>
      </trkpt>
      <trkpt lat="44.79742" lon="1.65953">
        <ele>252</ele>
        <time>2010-03-21T09:05:49Z</time>
      </trkpt>
      <trkpt lat="44.79741" lon="1.65954">
        <ele>251.52</ele>
        <time>2010-03-21T09:05:50Z</time>
      </trkpt>
      <trkpt lat="44.79729" lon="1.65956">
        <ele>252</ele>
        <time>2010-03-21T09:06:00Z</time>
      </trkpt>
      <trkpt lat="44.7972" lon="1.65964">
        <ele>252.48</ele>
        <time>2010-03-21T09:06:08Z</time>
      </trkpt>
      <trkpt lat="44.79707" lon="1.65968">
        <ele>253.44</ele>
        <time>2010-03-21T09:06:15Z</time>
      </trkpt>
      <trkpt lat="44.79701" lon="1.65972">
        <ele>252.96</ele>
        <time>2010-03-21T09:06:21Z</time>
      </trkpt>
      <trkpt lat="44.79696" lon="1.65971">
        <ele>254.41</ele>
        <time>2010-03-21T09:06:25Z</time>
      </trkpt>
      <trkpt lat="44.79692" lon="1.65974">
        <ele>253.44</ele>
        <time>2010-03-21T09:06:27Z</time>
      </trkpt>
      <trkpt lat="44.7969" lon="1.65975">
        <ele>252.96</ele>
        <time>2010-03-21T09:06:30Z</time>
      </trkpt>
      <trkpt lat="44.79686" lon="1.65978">
        <ele>252.96</ele>
        <time>2010-03-21T09:06:34Z</time>
      </trkpt>
      <trkpt lat="44.79683" lon="1.65987">
        <ele>254.41</ele>
        <time>2010-03-21T09:06:36Z</time>
      </trkpt>
      <trkpt lat="44.7968" lon="1.65989">
        <ele>253.44</ele>
        <time>2010-03-21T09:06:38Z</time>
      </trkpt>
      <trkpt lat="44.79678" lon="1.6599">
        <ele>254.41</ele>
        <time>2010-03-21T09:06:41Z</time>
      </trkpt>
      <trkpt lat="44.79672" lon="1.6599">
        <ele>254.89</ele>
        <time>2010-03-21T09:06:45Z</time>
      </trkpt>
      <trkpt lat="44.7967" lon="1.6599">
        <ele>253.93</ele>
        <time>2010-03-21T09:06:47Z</time>
      </trkpt>
      <trkpt lat="44.79659" lon="1.65992">
        <ele>253.93</ele>
        <time>2010-03-21T09:06:56Z</time>
      </trkpt>
      <trkpt lat="44.79647" lon="1.65999">
        <ele>252.96</ele>
        <time>2010-03-21T09:07:03Z</time>
      </trkpt>
      <trkpt lat="44.79646" lon="1.65999">
        <ele>253.93</ele>
        <time>2010-03-21T09:07:05Z</time>
      </trkpt>
      <trkpt lat="44.79635" lon="1.66005">
        <ele>254.41</ele>
        <time>2010-03-21T09:07:11Z</time>
      </trkpt>
      <trkpt lat="44.7963" lon="1.66013">
        <ele>253.93</ele>
        <time>2010-03-21T09:07:19Z</time>
      </trkpt>
      <trkpt lat="44.79619" lon="1.6602">
        <ele>252.48</ele>
        <time>2010-03-21T09:07:27Z</time>
      </trkpt>
      <trkpt lat="44.79609" lon="1.66027">
        <ele>252</ele>
        <time>2010-03-21T09:07:32Z</time>
      </trkpt>
      <trkpt lat="44.79603" lon="1.66029">
        <ele>252.96</ele>
        <time>2010-03-21T09:07:36Z</time>
      </trkpt>
      <trkpt lat="44.79594" lon="1.66046">
        <ele>252.96</ele>
        <time>2010-03-21T09:07:45Z</time>
      </trkpt>
      <trkpt lat="44.79592" lon="1.66046">
        <ele>252</ele>
        <time>2010-03-21T09:07:48Z</time>
      </trkpt>
      <trkpt lat="44.79586" lon="1.66051">
        <ele>252.96</ele>
        <time>2010-03-21T09:07:53Z</time>
      </trkpt>
      <trkpt lat="44.79582" lon="1.66062">
        <ele>250.56</ele>
        <time>2010-03-21T09:07:58Z</time>
      </trkpt>
      <trkpt lat="44.79581" lon="1.66065">
        <ele>252</ele>
        <time>2010-03-21T09:08:00Z</time>
      </trkpt>
      <trkpt lat="44.79578" lon="1.6607">
        <ele>249.6</ele>
        <time>2010-03-21T09:08:05Z</time>
      </trkpt>
      <trkpt lat="44.7957" lon="1.66078">
        <ele>250.08</ele>
        <time>2010-03-21T09:08:10Z</time>
      </trkpt>
      <trkpt lat="44.7957" lon="1.66082">
        <ele>251.04</ele>
        <time>2010-03-21T09:08:13Z</time>
      </trkpt>
      <trkpt lat="44.79558" lon="1.66097">
        <ele>253.44</ele>
        <time>2010-03-21T09:08:22Z</time>
      </trkpt>
      <trkpt lat="44.7955" lon="1.66105">
        <ele>253.93</ele>
        <time>2010-03-21T09:08:30Z</time>
      </trkpt>
      <trkpt lat="44.79546" lon="1.66116">
        <ele>253.93</ele>
        <time>2010-03-21T09:08:38Z</time>
      </trkpt>
      <trkpt lat="44.79538" lon="1.66127">
        <ele>253.44</ele>
        <time>2010-03-21T09:08:45Z</time>
      </trkpt>
      <trkpt lat="44.79531" lon="1.66142">
        <ele>252.48</ele>
        <time>2010-03-21T09:08:54Z</time>
      </trkpt>
      <trkpt lat="44.7953" lon="1.66146">
        <ele>252.96</ele>
        <time>2010-03-21T09:08:56Z</time>
      </trkpt>
      <trkpt lat="44.79527" lon="1.66151">
        <ele>252</ele>
        <time>2010-03-21T09:08:59Z</time>
      </trkpt>
      <trkpt lat="44.7952" lon="1.66168">
        <ele>252.48</ele>
        <time>2010-03-21T09:09:07Z</time>
      </trkpt>
      <trkpt lat="44.79515" lon="1.66174">
        <ele>251.52</ele>
        <time>2010-03-21T09:09:12Z</time>
      </trkpt>
      <trkpt lat="44.79509" lon="1.6618">
        <ele>251.04</ele>
        <time>2010-03-21T09:09:16Z</time>
      </trkpt>
      <trkpt lat="44.79508" lon="1.66185">
        <ele>251.52</ele>
        <time>2010-03-21T09:09:18Z</time>
      </trkpt>
      <trkpt lat="44.79505" lon="1.66191">
        <ele>252.48</ele>
        <time>2010-03-21T09:09:21Z</time>
      </trkpt>
      <trkpt lat="44.79489" lon="1.66202">
        <ele>250.08</ele>
        <time>2010-03-21T09:09:31Z</time>
      </trkpt>
      <trkpt lat="44.79481" lon="1.66204">
        <ele>251.04</ele>
        <time>2010-03-21T09:09:38Z</time>
      </trkpt>
      <trkpt lat="44.7948" lon="1.66205">
        <ele>250.08</ele>
        <time>2010-03-21T09:09:39Z</time>
      </trkpt>
      <trkpt lat="44.79473" lon="1.66205">
        <ele>250.08</ele>
        <time>2010-03-21T09:09:46Z</time>
      </trkpt>
      <trkpt lat="44.79471" lon="1.66202">
        <ele>250.08</ele>
        <time>2010-03-21T09:09:50Z</time>
      </trkpt>
      <trkpt lat="44.79465" lon="1.66181">
        <ele>249.6</ele>
        <time>2010-03-21T09:09:58Z</time>
      </trkpt>
      <trkpt lat="44.79453" lon="1.66165">
        <ele>250.56</ele>
        <time>2010-03-21T09:10:09Z</time>
      </trkpt>
      <trkpt lat="44.79439" lon="1.66169">
        <ele>251.04</ele>
        <time>2010-03-21T09:10:20Z</time>
      </trkpt>
      <trkpt lat="44.79424" lon="1.66176">
        <ele>248.64</ele>
        <time>2010-03-21T09:10:31Z</time>
      </trkpt>
      <trkpt lat="44.79411" lon="1.662">
        <ele>249.12</ele>
        <time>2010-03-21T09:10:43Z</time>
      </trkpt>
      <trkpt lat="44.79409" lon="1.662">
        <ele>248.64</ele>
        <time>2010-03-21T09:10:44Z</time>
      </trkpt>
      <trkpt lat="44.79408" lon="1.66205">
        <ele>248.16</ele>
        <time>2010-03-21T09:10:48Z</time>
      </trkpt>
      <trkpt lat="44.79401" lon="1.66218">
        <ele>246.72</ele>
        <time>2010-03-21T09:11:00Z</time>
      </trkpt>
      <trkpt lat="44.79401" lon="1.66229">
        <ele>248.16</ele>
        <time>2010-03-21T09:11:06Z</time>
      </trkpt>
      <trkpt lat="44.79401" lon="1.66241">
        <ele>246.23</ele>
        <time>2010-03-21T09:11:11Z</time>
      </trkpt>
      <trkpt lat="44.79402" lon="1.66249">
        <ele>246.23</ele>
        <time>2010-03-21T09:11:15Z</time>
      </trkpt>
      <trkpt lat="44.79399" lon="1.66257">
        <ele>246.23</ele>
        <time>2010-03-21T09:11:19Z</time>
      </trkpt>
      <trkpt lat="44.79396" lon="1.6627">
        <ele>247.68</ele>
        <time>2010-03-21T09:11:27Z</time>
      </trkpt>
      <trkpt lat="44.79393" lon="1.66282">
        <ele>247.2</ele>
        <time>2010-03-21T09:11:32Z</time>
      </trkpt>
      <trkpt lat="44.79384" lon="1.66295">
        <ele>245.75</ele>
        <time>2010-03-21T09:11:38Z</time>
      </trkpt>
      <trkpt lat="44.79384" lon="1.66299">
        <ele>245.27</ele>
        <time>2010-03-21T09:11:40Z</time>
      </trkpt>
      <trkpt lat="44.79371" lon="1.66322">
        <ele>243.35</ele>
        <time>2010-03-21T09:11:53Z</time>
      </trkpt>
      <trkpt lat="44.79367" lon="1.66339">
        <ele>242.87</ele>
        <time>2010-03-21T09:12:03Z</time>
      </trkpt>
      <trkpt lat="44.79361" lon="1.66351">
        <ele>241.91</ele>
        <time>2010-03-21T09:12:09Z</time>
      </trkpt>
      <trkpt lat="44.79356" lon="1.66356">
        <ele>240.47</ele>
        <time>2010-03-21T09:12:12Z</time>
      </trkpt>
      <trkpt lat="44.79353" lon="1.66361">
        <ele>240.95</ele>
        <time>2010-03-21T09:12:15Z</time>
      </trkpt>
      <trkpt lat="44.79351" lon="1.66374">
        <ele>236.14</ele>
        <time>2010-03-21T09:12:24Z</time>
      </trkpt>
      <trkpt lat="44.79346" lon="1.66385">
        <ele>235.18</ele>
        <time>2010-03-21T09:12:38Z</time>
      </trkpt>
      <trkpt lat="44.79341" lon="1.66402">
        <ele>233.74</ele>
        <time>2010-03-21T09:12:46Z</time>
      </trkpt>
      <trkpt lat="44.79327" lon="1.6643">
        <ele>237.1</ele>
        <time>2010-03-21T09:12:59Z</time>
      </trkpt>
      <trkpt lat="44.79323" lon="1.66436">
        <ele>238.06</ele>
        <time>2010-03-21T09:13:04Z</time>
      </trkpt>
      <trkpt lat="44.79311" lon="1.66447">
        <ele>238.54</ele>
        <time>2010-03-21T09:13:14Z</time>
      </trkpt>
      <trkpt lat="44.79299" lon="1.66463">
        <ele>241.43</ele>
        <time>2010-03-21T09:13:24Z</time>
      </trkpt>
      <trkpt lat="44.7928" lon="1.66477">
        <ele>242.87</ele>
        <time>2010-03-21T09:13:40Z</time>
      </trkpt>
      <trkpt lat="44.79279" lon="1.6648">
        <ele>243.83</ele>
        <time>2010-03-21T09:13:43Z</time>
      </trkpt>
      <trkpt lat="44.79275" lon="1.66489">
        <ele>246.72</ele>
        <time>2010-03-21T09:13:48Z</time>
      </trkpt>
      <trkpt lat="44.79266" lon="1.66505">
        <ele>247.68</ele>
        <time>2010-03-21T09:13:59Z</time>
      </trkpt>
      <trkpt lat="44.79259" lon="1.66518">
        <ele>249.6</ele>
        <time>2010-03-21T09:14:09Z</time>
      </trkpt>
      <trkpt lat="44.7925" lon="1.66531">
        <ele>250.56</ele>
        <time>2010-03-21T09:14:19Z</time>
      </trkpt>
      <trkpt lat="44.79239" lon="1.66542">
        <ele>250.56</ele>
        <time>2010-03-21T09:14:31Z</time>
      </trkpt>
      <trkpt lat="44.79238" lon="1.66555">
        <ele>251.52</ele>
        <time>2010-03-21T09:14:45Z</time>
      </trkpt>
      <trkpt lat="44.79239" lon="1.66565">
        <ele>249.6</ele>
        <time>2010-03-21T09:14:54Z</time>
      </trkpt>
      <trkpt lat="44.79245" lon="1.6659">
        <ele>251.04</ele>
        <time>2010-03-21T09:15:05Z</time>
      </trkpt>
      <trkpt lat="44.79253" lon="1.66597">
        <ele>252</ele>
        <time>2010-03-21T09:15:14Z</time>
      </trkpt>
      <trkpt lat="44.79257" lon="1.66598">
        <ele>250.56</ele>
        <time>2010-03-21T09:15:17Z</time>
      </trkpt>
      <trkpt lat="44.79271" lon="1.66614">
        <ele>251.52</ele>
        <time>2010-03-21T09:15:29Z</time>
      </trkpt>
      <trkpt lat="44.79287" lon="1.66607">
        <ele>249.12</ele>
        <time>2010-03-21T09:15:39Z</time>
      </trkpt>
      <trkpt lat="44.79288" lon="1.66609">
        <ele>249.6</ele>
        <time>2010-03-21T09:15:40Z</time>
      </trkpt>
      <trkpt lat="44.793" lon="1.66624">
        <ele>247.2</ele>
        <time>2010-03-21T09:15:51Z</time>
      </trkpt>
      <trkpt lat="44.79302" lon="1.66631">
        <ele>247.2</ele>
        <time>2010-03-21T09:15:55Z</time>
      </trkpt>
      <trkpt lat="44.79309" lon="1.66645">
        <ele>246.72</ele>
        <time>2010-03-21T09:16:05Z</time>
      </trkpt>
      <trkpt lat="44.79309" lon="1.66656">
        <ele>246.23</ele>
        <time>2010-03-21T09:16:11Z</time>
      </trkpt>
      <trkpt lat="44.79313" lon="1.6667">
        <ele>246.72</ele>
        <time>2010-03-21T09:16:17Z</time>
      </trkpt>
      <trkpt lat="44.79308" lon="1.66699">
        <ele>246.23</ele>
        <time>2010-03-21T09:16:27Z</time>
      </trkpt>
      <trkpt lat="44.79308" lon="1.66701">
        <ele>245.75</ele>
        <time>2010-03-21T09:16:28Z</time>
      </trkpt>
      <trkpt lat="44.79306" lon="1.66719">
        <ele>247.68</ele>
        <time>2010-03-21T09:16:38Z</time>
      </trkpt>
      <trkpt lat="44.79296" lon="1.66738">
        <ele>249.12</ele>
        <time>2010-03-21T09:16:50Z</time>
      </trkpt>
      <trkpt lat="44.79286" lon="1.66759">
        <ele>251.04</ele>
        <time>2010-03-21T09:17:01Z</time>
      </trkpt>
      <trkpt lat="44.79284" lon="1.66761">
        <ele>250.56</ele>
        <time>2010-03-21T09:17:02Z</time>
      </trkpt>
      <trkpt lat="44.79283" lon="1.66762">
        <ele>251.52</ele>
        <time>2010-03-21T09:17:03Z</time>
      </trkpt>
      <trkpt lat="44.79273" lon="1.66769">
        <ele>251.52</ele>
        <time>2010-03-21T09:17:10Z</time>
      </trkpt>
      <trkpt lat="44.7927" lon="1.66771">
        <ele>250.08</ele>
        <time>2010-03-21T09:17:12Z</time>
      </trkpt>
      <trkpt lat="44.79256" lon="1.66799">
        <ele>249.6</ele>
        <time>2010-03-21T09:17:24Z</time>
      </trkpt>
      <trkpt lat="44.79254" lon="1.66801">
        <ele>250.08</ele>
        <time>2010-03-21T09:17:26Z</time>
      </trkpt>
      <trkpt lat="44.79252" lon="1.66806">
        <ele>251.04</ele>
        <time>2010-03-21T09:17:28Z</time>
      </trkpt>
      <trkpt lat="44.7925" lon="1.66813">
        <ele>251.52</ele>
        <time>2010-03-21T09:17:31Z</time>
      </trkpt>
      <trkpt lat="44.7924" lon="1.66818">
        <ele>251.52</ele>
        <time>2010-03-21T09:17:36Z</time>
      </trkpt>
      <trkpt lat="44.79232" lon="1.66828">
        <ele>250.08</ele>
        <time>2010-03-21T09:17:44Z</time>
      </trkpt>
      <trkpt lat="44.79221" lon="1.66842">
        <ele>251.04</ele>
        <time>2010-03-21T09:17:51Z</time>
      </trkpt>
      <trkpt lat="44.79217" lon="1.66843">
        <ele>251.04</ele>
        <time>2010-03-21T09:17:54Z</time>
      </trkpt>
      <trkpt lat="44.79204" lon="1.66846">
        <ele>250.08</ele>
        <time>2010-03-21T09:18:01Z</time>
      </trkpt>
      <trkpt lat="44.79203" lon="1.66833">
        <ele>250.56</ele>
        <time>2010-03-21T09:18:10Z</time>
      </trkpt>
      <trkpt lat="44.79203" lon="1.6682">
        <ele>249.6</ele>
        <time>2010-03-21T09:18:15Z</time>
      </trkpt>
      <trkpt lat="44.79202" lon="1.66819">
        <ele>251.52</ele>
        <time>2010-03-21T09:18:19Z</time>
      </trkpt>
      <trkpt lat="44.79196" lon="1.66809">
        <ele>252.96</ele>
        <time>2010-03-21T09:18:25Z</time>
      </trkpt>
      <trkpt lat="44.79196" lon="1.66795">
        <ele>252.48</ele>
        <time>2010-03-21T09:18:33Z</time>
      </trkpt>
      <trkpt lat="44.79194" lon="1.66788">
        <ele>252.96</ele>
        <time>2010-03-21T09:18:36Z</time>
      </trkpt>
      <trkpt lat="44.79189" lon="1.66782">
        <ele>252.96</ele>
        <time>2010-03-21T09:18:40Z</time>
      </trkpt>
      <trkpt lat="44.79188" lon="1.66772">
        <ele>254.89</ele>
        <time>2010-03-21T09:18:44Z</time>
      </trkpt>
      <trkpt lat="44.79188" lon="1.66771">
        <ele>252.96</ele>
        <time>2010-03-21T09:18:45Z</time>
      </trkpt>
      <trkpt lat="44.79179" lon="1.66759">
        <ele>254.89</ele>
        <time>2010-03-21T09:18:53Z</time>
      </trkpt>
      <trkpt lat="44.79174" lon="1.66754">
        <ele>254.41</ele>
        <time>2010-03-21T09:18:59Z</time>
      </trkpt>
      <trkpt lat="44.79165" lon="1.66748">
        <ele>254.89</ele>
        <time>2010-03-21T09:19:06Z</time>
      </trkpt>
      <trkpt lat="44.79157" lon="1.66739">
        <ele>252.48</ele>
        <time>2010-03-21T09:19:12Z</time>
      </trkpt>
      <trkpt lat="44.7915" lon="1.66736">
        <ele>252.96</ele>
        <time>2010-03-21T09:19:20Z</time>
      </trkpt>
      <trkpt lat="44.79135" lon="1.66741">
        <ele>252.96</ele>
        <time>2010-03-21T09:19:30Z</time>
      </trkpt>
      <trkpt lat="44.79134" lon="1.66741">
        <ele>254.41</ele>
        <time>2010-03-21T09:19:32Z</time>
      </trkpt>
      <trkpt lat="44.79126" lon="1.66748">
        <ele>253.93</ele>
        <time>2010-03-21T09:19:40Z</time>
      </trkpt>
      <trkpt lat="44.79118" lon="1.66748">
        <ele>252</ele>
        <time>2010-03-21T09:19:45Z</time>
      </trkpt>
      <trkpt lat="44.79109" lon="1.66749">
        <ele>252.96</ele>
        <time>2010-03-21T09:19:49Z</time>
      </trkpt>
      <trkpt lat="44.79105" lon="1.66751">
        <ele>253.44</ele>
        <time>2010-03-21T09:19:51Z</time>
      </trkpt>
      <trkpt lat="44.79104" lon="1.66751">
        <ele>252</ele>
        <time>2010-03-21T09:19:53Z</time>
      </trkpt>
      <trkpt lat="44.79102" lon="1.66753">
        <ele>252.96</ele>
        <time>2010-03-21T09:19:55Z</time>
      </trkpt>
      <trkpt lat="44.79101" lon="1.66753">
        <ele>252</ele>
        <time>2010-03-21T09:19:57Z</time>
      </trkpt>
      <trkpt lat="44.79098" lon="1.66752">
        <ele>252.96</ele>
        <time>2010-03-21T09:19:59Z</time>
      </trkpt>
      <trkpt lat="44.79091" lon="1.66757">
        <ele>252.48</ele>
        <time>2010-03-21T09:20:05Z</time>
      </trkpt>
      <trkpt lat="44.79071" lon="1.66765">
        <ele>252</ele>
        <time>2010-03-21T09:20:22Z</time>
      </trkpt>
      <trkpt lat="44.7907" lon="1.66766">
        <ele>251.04</ele>
        <time>2010-03-21T09:20:24Z</time>
      </trkpt>
      <trkpt lat="44.79063" lon="1.66769">
        <ele>251.52</ele>
        <time>2010-03-21T09:20:29Z</time>
      </trkpt>
      <trkpt lat="44.79054" lon="1.66778">
        <ele>252.96</ele>
        <time>2010-03-21T09:20:37Z</time>
      </trkpt>
      <trkpt lat="44.79046" lon="1.66786">
        <ele>250.56</ele>
        <time>2010-03-21T09:20:43Z</time>
      </trkpt>
      <trkpt lat="44.7904" lon="1.6679">
        <ele>252</ele>
        <time>2010-03-21T09:20:47Z</time>
      </trkpt>
      <trkpt lat="44.79036" lon="1.66792">
        <ele>250.08</ele>
        <time>2010-03-21T09:20:50Z</time>
      </trkpt>
      <trkpt lat="44.79028" lon="1.66795">
        <ele>250.56</ele>
        <time>2010-03-21T09:20:58Z</time>
      </trkpt>
      <trkpt lat="44.79019" lon="1.66802">
        <ele>248.16</ele>
        <time>2010-03-21T09:21:03Z</time>
      </trkpt>
      <trkpt lat="44.79011" lon="1.66806">
        <ele>250.56</ele>
        <time>2010-03-21T09:21:10Z</time>
      </trkpt>
      <trkpt lat="44.79006" lon="1.66805">
        <ele>250.08</ele>
        <time>2010-03-21T09:21:13Z</time>
      </trkpt>
      <trkpt lat="44.78992" lon="1.66798">
        <ele>250.56</ele>
        <time>2010-03-21T09:21:21Z</time>
      </trkpt>
      <trkpt lat="44.78983" lon="1.668">
        <ele>249.6</ele>
        <time>2010-03-21T09:21:31Z</time>
      </trkpt>
      <trkpt lat="44.78981" lon="1.66796">
        <ele>250.56</ele>
        <time>2010-03-21T09:21:34Z</time>
      </trkpt>
      <trkpt lat="44.78978" lon="1.6679">
        <ele>251.52</ele>
        <time>2010-03-21T09:21:38Z</time>
      </trkpt>
      <trkpt lat="44.78977" lon="1.66788">
        <ele>251.04</ele>
        <time>2010-03-21T09:21:40Z</time>
      </trkpt>
      <trkpt lat="44.78974" lon="1.66786">
        <ele>253.93</ele>
        <time>2010-03-21T09:21:43Z</time>
      </trkpt>
      <trkpt lat="44.78968" lon="1.66785">
        <ele>251.52</ele>
        <time>2010-03-21T09:21:46Z</time>
      </trkpt>
      <trkpt lat="44.78958" lon="1.66801">
        <ele>252.96</ele>
        <time>2010-03-21T09:21:54Z</time>
      </trkpt>
      <trkpt lat="44.7895" lon="1.6682">
        <ele>252.48</ele>
        <time>2010-03-21T09:22:06Z</time>
      </trkpt>
      <trkpt lat="44.78943" lon="1.66827">
        <ele>251.04</ele>
        <time>2010-03-21T09:22:12Z</time>
      </trkpt>
      <trkpt lat="44.78943" lon="1.66835">
        <ele>251.04</ele>
        <time>2010-03-21T09:22:27Z</time>
      </trkpt>
      <trkpt lat="44.78945" lon="1.66837">
        <ele>251.52</ele>
        <time>2010-03-21T09:22:32Z</time>
      </trkpt>
      <trkpt lat="44.78945" lon="1.66838">
        <ele>249.6</ele>
        <time>2010-03-21T09:22:44Z</time>
      </trkpt>
      <trkpt lat="44.78943" lon="1.66843">
        <ele>252</ele>
        <time>2010-03-21T09:22:53Z</time>
      </trkpt>
      <trkpt lat="44.78941" lon="1.6685">
        <ele>254.89</ele>
        <time>2010-03-21T09:23:07Z</time>
      </trkpt>
      <trkpt lat="44.78932" lon="1.6687">
        <ele>255.85</ele>
        <time>2010-03-21T09:23:17Z</time>
      </trkpt>
      <trkpt lat="44.78921" lon="1.6691">
        <ele>254.89</ele>
        <time>2010-03-21T09:23:29Z</time>
      </trkpt>
      <trkpt lat="44.78919" lon="1.6692">
        <ele>255.85</ele>
        <time>2010-03-21T09:23:36Z</time>
      </trkpt>
      <trkpt lat="44.78913" lon="1.66946">
        <ele>255.85</ele>
        <time>2010-03-21T09:23:47Z</time>
      </trkpt>
      <trkpt lat="44.78911" lon="1.66953">
        <ele>254.89</ele>
        <time>2010-03-21T09:23:50Z</time>
      </trkpt>
      <trkpt lat="44.78916" lon="1.66972">
        <ele>253.93</ele>
        <time>2010-03-21T09:23:58Z</time>
      </trkpt>
      <trkpt lat="44.78917" lon="1.66975">
        <ele>252.48</ele>
        <time>2010-03-21T09:23:59Z</time>
      </trkpt>
      <trkpt lat="44.78915" lon="1.66989">
        <ele>253.93</ele>
        <time>2010-03-21T09:24:06Z</time>
      </trkpt>
      <trkpt lat="44.78912" lon="1.66997">
        <ele>253.93</ele>
        <time>2010-03-21T09:24:10Z</time>
      </trkpt>
      <trkpt lat="44.78909" lon="1.67004">
        <ele>254.41</ele>
        <time>2010-03-21T09:24:23Z</time>
      </trkpt>
      <trkpt lat="44.78905" lon="1.67001">
        <ele>254.41</ele>
        <time>2010-03-21T09:24:32Z</time>
      </trkpt>
      <trkpt lat="44.78894" lon="1.66995">
        <ele>256.81</ele>
        <time>2010-03-21T09:24:43Z</time>
      </trkpt>
      <trkpt lat="44.78888" lon="1.66984">
        <ele>257.77</ele>
        <time>2010-03-21T09:24:54Z</time>
      </trkpt>
      <trkpt lat="44.78875" lon="1.66976">
        <ele>260.17</ele>
        <time>2010-03-21T09:25:05Z</time>
      </trkpt>
      <trkpt lat="44.78866" lon="1.66972">
        <ele>262.58</ele>
        <time>2010-03-21T09:25:17Z</time>
      </trkpt>
      <trkpt lat="44.78863" lon="1.66969">
        <ele>265.46</ele>
        <time>2010-03-21T09:25:25Z</time>
      </trkpt>
      <trkpt lat="44.78851" lon="1.66959">
        <ele>268.83</ele>
        <time>2010-03-21T09:25:39Z</time>
      </trkpt>
      <trkpt lat="44.78848" lon="1.66959">
        <ele>267.86</ele>
        <time>2010-03-21T09:25:47Z</time>
      </trkpt>
      <trkpt lat="44.78845" lon="1.66954">
        <ele>269.79</ele>
        <time>2010-03-21T09:25:51Z</time>
      </trkpt>
      <trkpt lat="44.78843" lon="1.66953">
        <ele>268.83</ele>
        <time>2010-03-21T09:25:52Z</time>
      </trkpt>
      <trkpt lat="44.78835" lon="1.66941">
        <ele>271.23</ele>
        <time>2010-03-21T09:26:03Z</time>
      </trkpt>
      <trkpt lat="44.78829" lon="1.66933">
        <ele>273.15</ele>
        <time>2010-03-21T09:26:16Z</time>
      </trkpt>
      <trkpt lat="44.78827" lon="1.66933">
        <ele>272.67</ele>
        <time>2010-03-21T09:26:17Z</time>
      </trkpt>
      <trkpt lat="44.78822" lon="1.66929">
        <ele>275.07</ele>
        <time>2010-03-21T09:26:27Z</time>
      </trkpt>
      <trkpt lat="44.78815" lon="1.66923">
        <ele>278.44</ele>
        <time>2010-03-21T09:26:41Z</time>
      </trkpt>
      <trkpt lat="44.78806" lon="1.66918">
        <ele>278.44</ele>
        <time>2010-03-21T09:26:55Z</time>
      </trkpt>
      <trkpt lat="44.78799" lon="1.66911">
        <ele>281.8</ele>
        <time>2010-03-21T09:27:03Z</time>
      </trkpt>
      <trkpt lat="44.78793" lon="1.66903">
        <ele>281.8</ele>
        <time>2010-03-21T09:27:14Z</time>
      </trkpt>
      <trkpt lat="44.78784" lon="1.66898">
        <ele>284.69</ele>
        <time>2010-03-21T09:27:28Z</time>
      </trkpt>
      <trkpt lat="44.78779" lon="1.66895">
        <ele>286.61</ele>
        <time>2010-03-21T09:27:39Z</time>
      </trkpt>
      <trkpt lat="44.78778" lon="1.6689">
        <ele>289.49</ele>
        <time>2010-03-21T09:27:53Z</time>
      </trkpt>
      <trkpt lat="44.78773" lon="1.66888">
        <ele>291.42</ele>
        <time>2010-03-21T09:28:02Z</time>
      </trkpt>
      <trkpt lat="44.78759" lon="1.66878">
        <ele>293.34</ele>
        <time>2010-03-21T09:28:18Z</time>
      </trkpt>
      <trkpt lat="44.78754" lon="1.66876">
        <ele>293.82</ele>
        <time>2010-03-21T09:28:31Z</time>
      </trkpt>
      <trkpt lat="44.78751" lon="1.66866">
        <ele>295.26</ele>
        <time>2010-03-21T09:28:39Z</time>
      </trkpt>
      <trkpt lat="44.78741" lon="1.66859">
        <ele>297.18</ele>
        <time>2010-03-21T09:28:51Z</time>
      </trkpt>
      <trkpt lat="44.78733" lon="1.66851">
        <ele>299.11</ele>
        <time>2010-03-21T09:29:04Z</time>
      </trkpt>
      <trkpt lat="44.78727" lon="1.6685">
        <ele>301.99</ele>
        <time>2010-03-21T09:29:14Z</time>
      </trkpt>
      <trkpt lat="44.78717" lon="1.6684">
        <ele>302.95</ele>
        <time>2010-03-21T09:29:24Z</time>
      </trkpt>
      <trkpt lat="44.78703" lon="1.66832">
        <ele>303.91</ele>
        <time>2010-03-21T09:29:37Z</time>
      </trkpt>
      <trkpt lat="44.78698" lon="1.66827">
        <ele>303.43</ele>
        <time>2010-03-21T09:29:41Z</time>
      </trkpt>
      <trkpt lat="44.78696" lon="1.66831">
        <ele>302.95</ele>
        <time>2010-03-21T09:29:43Z</time>
      </trkpt>
      <trkpt lat="44.78685" lon="1.66818">
        <ele>302.47</ele>
        <time>2010-03-21T09:29:55Z</time>
      </trkpt>
      <trkpt lat="44.78678" lon="1.66815">
        <ele>303.91</ele>
        <time>2010-03-21T09:30:07Z</time>
      </trkpt>
      <trkpt lat="44.78671" lon="1.66808">
        <ele>306.32</ele>
        <time>2010-03-21T09:30:17Z</time>
      </trkpt>
      <trkpt lat="44.78663" lon="1.66803">
        <ele>308.72</ele>
        <time>2010-03-21T09:30:27Z</time>
      </trkpt>
      <trkpt lat="44.78656" lon="1.66796">
        <ele>307.76</ele>
        <time>2010-03-21T09:30:33Z</time>
      </trkpt>
      <trkpt lat="44.78648" lon="1.66785">
        <ele>308.72</ele>
        <time>2010-03-21T09:30:42Z</time>
      </trkpt>
      <trkpt lat="44.78633" lon="1.66774">
        <ele>307.76</ele>
        <time>2010-03-21T09:30:52Z</time>
      </trkpt>
      <trkpt lat="44.78631" lon="1.66767">
        <ele>308.24</ele>
        <time>2010-03-21T09:30:57Z</time>
      </trkpt>
      <trkpt lat="44.78627" lon="1.66757">
        <ele>307.76</ele>
        <time>2010-03-21T09:30:59Z</time>
      </trkpt>
      <trkpt lat="44.78628" lon="1.66754">
        <ele>308.72</ele>
        <time>2010-03-21T09:31:01Z</time>
      </trkpt>
      <trkpt lat="44.78631" lon="1.66743">
        <ele>308.72</ele>
        <time>2010-03-21T09:31:06Z</time>
      </trkpt>
      <trkpt lat="44.78636" lon="1.66731">
        <ele>308.72</ele>
        <time>2010-03-21T09:31:14Z</time>
      </trkpt>
      <trkpt lat="44.78637" lon="1.66716">
        <ele>307.76</ele>
        <time>2010-03-21T09:31:23Z</time>
      </trkpt>
      <trkpt lat="44.78639" lon="1.66706">
        <ele>308.72</ele>
        <time>2010-03-21T09:31:26Z</time>
      </trkpt>
      <trkpt lat="44.78642" lon="1.66692">
        <ele>307.76</ele>
        <time>2010-03-21T09:31:30Z</time>
      </trkpt>
      <trkpt lat="44.78646" lon="1.66686">
        <ele>308.24</ele>
        <time>2010-03-21T09:31:36Z</time>
      </trkpt>
      <trkpt lat="44.78647" lon="1.6666">
        <ele>308.24</ele>
        <time>2010-03-21T09:31:45Z</time>
      </trkpt>
      <trkpt lat="44.78648" lon="1.6666">
        <ele>307.76</ele>
        <time>2010-03-21T09:31:46Z</time>
      </trkpt>
      <trkpt lat="44.7865" lon="1.6665">
        <ele>307.28</ele>
        <time>2010-03-21T09:31:50Z</time>
      </trkpt>
      <trkpt lat="44.78651" lon="1.6665">
        <ele>307.28</ele>
        <time>2010-03-21T09:31:55Z</time>
      </trkpt>
      <trkpt lat="44.78649" lon="1.66641">
        <ele>306.32</ele>
        <time>2010-03-21T09:32:00Z</time>
      </trkpt>
      <trkpt lat="44.78653" lon="1.66624">
        <ele>306.32</ele>
        <time>2010-03-21T09:32:11Z</time>
      </trkpt>
      <trkpt lat="44.78656" lon="1.66614">
        <ele>305.84</ele>
        <time>2010-03-21T09:32:15Z</time>
      </trkpt>
      <trkpt lat="44.78658" lon="1.66609">
        <ele>306.32</ele>
        <time>2010-03-21T09:32:18Z</time>
      </trkpt>
      <trkpt lat="44.78657" lon="1.66604">
        <ele>305.36</ele>
        <time>2010-03-21T09:32:22Z</time>
      </trkpt>
      <trkpt lat="44.78658" lon="1.666">
        <ele>305.84</ele>
        <time>2010-03-21T09:32:24Z</time>
      </trkpt>
      <trkpt lat="44.78659" lon="1.66599">
        <ele>305.36</ele>
        <time>2010-03-21T09:32:25Z</time>
      </trkpt>
      <trkpt lat="44.78659" lon="1.66585">
        <ele>304.88</ele>
        <time>2010-03-21T09:32:31Z</time>
      </trkpt>
      <trkpt lat="44.78663" lon="1.66569">
        <ele>304.39</ele>
        <time>2010-03-21T09:32:43Z</time>
      </trkpt>
      <trkpt lat="44.78668" lon="1.66551">
        <ele>303.91</ele>
        <time>2010-03-21T09:32:50Z</time>
      </trkpt>
      <trkpt lat="44.78675" lon="1.66541">
        <ele>304.39</ele>
        <time>2010-03-21T09:32:58Z</time>
      </trkpt>
      <trkpt lat="44.78676" lon="1.66529">
        <ele>304.88</ele>
        <time>2010-03-21T09:33:07Z</time>
      </trkpt>
      <trkpt lat="44.78681" lon="1.66513">
        <ele>304.39</ele>
        <time>2010-03-21T09:33:15Z</time>
      </trkpt>
      <trkpt lat="44.78684" lon="1.66496">
        <ele>303.43</ele>
        <time>2010-03-21T09:33:21Z</time>
      </trkpt>
      <trkpt lat="44.78692" lon="1.66474">
        <ele>302.95</ele>
        <time>2010-03-21T09:33:30Z</time>
      </trkpt>
      <trkpt lat="44.78694" lon="1.66471">
        <ele>302.47</ele>
        <time>2010-03-21T09:33:32Z</time>
      </trkpt>
      <trkpt lat="44.78695" lon="1.66457">
        <ele>301.03</ele>
        <time>2010-03-21T09:33:42Z</time>
      </trkpt>
      <trkpt lat="44.78698" lon="1.66449">
        <ele>300.55</ele>
        <time>2010-03-21T09:33:45Z</time>
      </trkpt>
      <trkpt lat="44.78697" lon="1.66441">
        <ele>300.55</ele>
        <time>2010-03-21T09:33:48Z</time>
      </trkpt>
      <trkpt lat="44.78697" lon="1.66435">
        <ele>299.11</ele>
        <time>2010-03-21T09:33:52Z</time>
      </trkpt>
      <trkpt lat="44.78697" lon="1.66417">
        <ele>298.15</ele>
        <time>2010-03-21T09:34:00Z</time>
      </trkpt>
      <trkpt lat="44.78697" lon="1.66409">
        <ele>296.7</ele>
        <time>2010-03-21T09:34:04Z</time>
      </trkpt>
      <trkpt lat="44.78699" lon="1.66401">
        <ele>296.22</ele>
        <time>2010-03-21T09:34:11Z</time>
      </trkpt>
      <trkpt lat="44.78701" lon="1.66385">
        <ele>296.22</ele>
        <time>2010-03-21T09:34:17Z</time>
      </trkpt>
      <trkpt lat="44.78701" lon="1.66372">
        <ele>295.26</ele>
        <time>2010-03-21T09:34:24Z</time>
      </trkpt>
      <trkpt lat="44.78705" lon="1.66359">
        <ele>294.3</ele>
        <time>2010-03-21T09:34:32Z</time>
      </trkpt>
      <trkpt lat="44.78705" lon="1.66332">
        <ele>292.86</ele>
        <time>2010-03-21T09:34:46Z</time>
      </trkpt>
      <trkpt lat="44.78705" lon="1.66329">
        <ele>291.9</ele>
        <time>2010-03-21T09:34:47Z</time>
      </trkpt>
      <trkpt lat="44.78702" lon="1.66306">
        <ele>289.97</ele>
        <time>2010-03-21T09:34:58Z</time>
      </trkpt>
      <trkpt lat="44.78703" lon="1.66292">
        <ele>289.97</ele>
        <time>2010-03-21T09:35:03Z</time>
      </trkpt>
      <trkpt lat="44.78705" lon="1.66281">
        <ele>289.01</ele>
        <time>2010-03-21T09:35:07Z</time>
      </trkpt>
      <trkpt lat="44.78708" lon="1.66271">
        <ele>289.01</ele>
        <time>2010-03-21T09:35:11Z</time>
      </trkpt>
      <trkpt lat="44.78713" lon="1.66257">
        <ele>287.09</ele>
        <time>2010-03-21T09:35:18Z</time>
      </trkpt>
      <trkpt lat="44.78714" lon="1.66254">
        <ele>287.09</ele>
        <time>2010-03-21T09:35:19Z</time>
      </trkpt>
      <trkpt lat="44.78714" lon="1.66239">
        <ele>283.25</ele>
        <time>2010-03-21T09:35:28Z</time>
      </trkpt>
      <trkpt lat="44.78716" lon="1.66233">
        <ele>284.69</ele>
        <time>2010-03-21T09:35:31Z</time>
      </trkpt>
      <trkpt lat="44.78723" lon="1.66226">
        <ele>284.21</ele>
        <time>2010-03-21T09:35:38Z</time>
      </trkpt>
      <trkpt lat="44.78728" lon="1.66217">
        <ele>282.77</ele>
        <time>2010-03-21T09:35:47Z</time>
      </trkpt>
      <trkpt lat="44.78734" lon="1.66211">
        <ele>281.32</ele>
        <time>2010-03-21T09:35:52Z</time>
      </trkpt>
      <trkpt lat="44.78734" lon="1.66209">
        <ele>280.84</ele>
        <time>2010-03-21T09:35:53Z</time>
      </trkpt>
      <trkpt lat="44.78737" lon="1.66193">
        <ele>279.4</ele>
        <time>2010-03-21T09:35:59Z</time>
      </trkpt>
      <trkpt lat="44.78741" lon="1.66182">
        <ele>278.92</ele>
        <time>2010-03-21T09:36:04Z</time>
      </trkpt>
      <trkpt lat="44.78741" lon="1.66175">
        <ele>278.44</ele>
        <time>2010-03-21T09:36:06Z</time>
      </trkpt>
      <trkpt lat="44.78746" lon="1.66164">
        <ele>277.96</ele>
        <time>2010-03-21T09:36:10Z</time>
      </trkpt>
      <trkpt lat="44.7875" lon="1.66152">
        <ele>278.92</ele>
        <time>2010-03-21T09:36:16Z</time>
      </trkpt>
      <trkpt lat="44.78752" lon="1.66134">
        <ele>277.48</ele>
        <time>2010-03-21T09:36:23Z</time>
      </trkpt>
      <trkpt lat="44.78753" lon="1.66118">
        <ele>275.07</ele>
        <time>2010-03-21T09:36:29Z</time>
      </trkpt>
      <trkpt lat="44.7876" lon="1.66105">
        <ele>274.59</ele>
        <time>2010-03-21T09:36:38Z</time>
      </trkpt>
      <trkpt lat="44.78761" lon="1.66103">
        <ele>276.04</ele>
        <time>2010-03-21T09:36:41Z</time>
      </trkpt>
      <trkpt lat="44.78765" lon="1.66096">
        <ele>274.11</ele>
        <time>2010-03-21T09:36:45Z</time>
      </trkpt>
      <trkpt lat="44.7877" lon="1.6609">
        <ele>272.67</ele>
        <time>2010-03-21T09:36:48Z</time>
      </trkpt>
      <trkpt lat="44.78777" lon="1.66069">
        <ele>270.27</ele>
        <time>2010-03-21T09:36:58Z</time>
      </trkpt>
      <trkpt lat="44.7878" lon="1.66061">
        <ele>269.79</ele>
        <time>2010-03-21T09:37:02Z</time>
      </trkpt>
      <trkpt lat="44.78787" lon="1.66052">
        <ele>269.31</ele>
        <time>2010-03-21T09:37:09Z</time>
      </trkpt>
      <trkpt lat="44.78791" lon="1.6604">
        <ele>268.83</ele>
        <time>2010-03-21T09:37:17Z</time>
      </trkpt>
      <trkpt lat="44.78798" lon="1.66033">
        <ele>266.9</ele>
        <time>2010-03-21T09:37:22Z</time>
      </trkpt>
      <trkpt lat="44.788" lon="1.66033">
        <ele>266.42</ele>
        <time>2010-03-21T09:37:24Z</time>
      </trkpt>
      <trkpt lat="44.78807" lon="1.66024">
        <ele>266.42</ele>
        <time>2010-03-21T09:37:29Z</time>
      </trkpt>
      <trkpt lat="44.78814" lon="1.66007">
        <ele>265.94</ele>
        <time>2010-03-21T09:37:40Z</time>
      </trkpt>
      <trkpt lat="44.7882" lon="1.66003">
        <ele>266.42</ele>
        <time>2010-03-21T09:37:49Z</time>
      </trkpt>
      <trkpt lat="44.78832" lon="1.65983">
        <ele>263.54</ele>
        <time>2010-03-21T09:37:57Z</time>
      </trkpt>
      <trkpt lat="44.78837" lon="1.65978">
        <ele>261.14</ele>
        <time>2010-03-21T09:38:01Z</time>
      </trkpt>
      <trkpt lat="44.7884" lon="1.65969">
        <ele>259.21</ele>
        <time>2010-03-21T09:38:06Z</time>
      </trkpt>
      <trkpt lat="44.7884" lon="1.65963">
        <ele>259.69</ele>
        <time>2010-03-21T09:38:09Z</time>
      </trkpt>
      <trkpt lat="44.78847" lon="1.65933">
        <ele>257.29</ele>
        <time>2010-03-21T09:38:19Z</time>
      </trkpt>
      <trkpt lat="44.78846" lon="1.65919">
        <ele>257.29</ele>
        <time>2010-03-21T09:38:28Z</time>
      </trkpt>
      <trkpt lat="44.78844" lon="1.65911">
        <ele>255.37</ele>
        <time>2010-03-21T09:38:32Z</time>
      </trkpt>
      <trkpt lat="44.78834" lon="1.65886">
        <ele>254.41</ele>
        <time>2010-03-21T09:38:43Z</time>
      </trkpt>
      <trkpt lat="44.7883" lon="1.65871">
        <ele>253.93</ele>
        <time>2010-03-21T09:38:51Z</time>
      </trkpt>
      <trkpt lat="44.78823" lon="1.65859">
        <ele>254.89</ele>
        <time>2010-03-21T09:38:59Z</time>
      </trkpt>
      <trkpt lat="44.78818" lon="1.6585">
        <ele>255.37</ele>
        <time>2010-03-21T09:39:06Z</time>
      </trkpt>
      <trkpt lat="44.78815" lon="1.65846">
        <ele>256.81</ele>
        <time>2010-03-21T09:39:09Z</time>
      </trkpt>
      <trkpt lat="44.7881" lon="1.65834">
        <ele>255.85</ele>
        <time>2010-03-21T09:39:16Z</time>
      </trkpt>
      <trkpt lat="44.78803" lon="1.65817">
        <ele>255.85</ele>
        <time>2010-03-21T09:39:24Z</time>
      </trkpt>
      <trkpt lat="44.788" lon="1.65796">
        <ele>253.93</ele>
        <time>2010-03-21T09:39:35Z</time>
      </trkpt>
      <trkpt lat="44.788" lon="1.65793">
        <ele>255.37</ele>
        <time>2010-03-21T09:39:37Z</time>
      </trkpt>
      <trkpt lat="44.78797" lon="1.65778">
        <ele>254.89</ele>
        <time>2010-03-21T09:39:43Z</time>
      </trkpt>
      <trkpt lat="44.78796" lon="1.65771">
        <ele>253.93</ele>
        <time>2010-03-21T09:39:46Z</time>
      </trkpt>
      <trkpt lat="44.78795" lon="1.65757">
        <ele>253.93</ele>
        <time>2010-03-21T09:39:53Z</time>
      </trkpt>
      <trkpt lat="44.78792" lon="1.65747">
        <ele>253.93</ele>
        <time>2010-03-21T09:40:01Z</time>
      </trkpt>
      <trkpt lat="44.78789" lon="1.6572">
        <ele>251.52</ele>
        <time>2010-03-21T09:40:13Z</time>
      </trkpt>
      <trkpt lat="44.78783" lon="1.65695">
        <ele>250.56</ele>
        <time>2010-03-21T09:40:23Z</time>
      </trkpt>
      <trkpt lat="44.78779" lon="1.65684">
        <ele>251.52</ele>
        <time>2010-03-21T09:40:29Z</time>
      </trkpt>
      <trkpt lat="44.78776" lon="1.65658">
        <ele>249.6</ele>
        <time>2010-03-21T09:40:42Z</time>
      </trkpt>
      <trkpt lat="44.78767" lon="1.65636">
        <ele>249.6</ele>
        <time>2010-03-21T09:40:52Z</time>
      </trkpt>
      <trkpt lat="44.7876" lon="1.65617">
        <ele>252</ele>
        <time>2010-03-21T09:41:04Z</time>
      </trkpt>
      <trkpt lat="44.78754" lon="1.65597">
        <ele>250.56</ele>
        <time>2010-03-21T09:41:13Z</time>
      </trkpt>
      <trkpt lat="44.78751" lon="1.65579">
        <ele>251.52</ele>
        <time>2010-03-21T09:41:22Z</time>
      </trkpt>
      <trkpt lat="44.78747" lon="1.65562">
        <ele>251.52</ele>
        <time>2010-03-21T09:41:31Z</time>
      </trkpt>
      <trkpt lat="44.78745" lon="1.65551">
        <ele>251.52</ele>
        <time>2010-03-21T09:41:38Z</time>
      </trkpt>
      <trkpt lat="44.78738" lon="1.65534">
        <ele>251.04</ele>
        <time>2010-03-21T09:41:47Z</time>
      </trkpt>
      <trkpt lat="44.78732" lon="1.65511">
        <ele>250.08</ele>
        <time>2010-03-21T09:41:56Z</time>
      </trkpt>
      <trkpt lat="44.78725" lon="1.65495">
        <ele>250.56</ele>
        <time>2010-03-21T09:42:06Z</time>
      </trkpt>
      <trkpt lat="44.78724" lon="1.65493">
        <ele>251.04</ele>
        <time>2010-03-21T09:42:07Z</time>
      </trkpt>
      <trkpt lat="44.78719" lon="1.65486">
        <ele>251.52</ele>
        <time>2010-03-21T09:42:12Z</time>
      </trkpt>
      <trkpt lat="44.78719" lon="1.65485">
        <ele>251.04</ele>
        <time>2010-03-21T09:42:13Z</time>
      </trkpt>
      <trkpt lat="44.78717" lon="1.6546">
        <ele>251.52</ele>
        <time>2010-03-21T09:42:26Z</time>
      </trkpt>
      <trkpt lat="44.78714" lon="1.65435">
        <ele>252.96</ele>
        <time>2010-03-21T09:42:35Z</time>
      </trkpt>
      <trkpt lat="44.78711" lon="1.6542">
        <ele>253.93</ele>
        <time>2010-03-21T09:42:43Z</time>
      </trkpt>
      <trkpt lat="44.78711" lon="1.65416">
        <ele>254.41</ele>
        <time>2010-03-21T09:42:45Z</time>
      </trkpt>
      <trkpt lat="44.78708" lon="1.65407">
        <ele>252.48</ele>
        <time>2010-03-21T09:42:50Z</time>
      </trkpt>
      <trkpt lat="44.78704" lon="1.65394">
        <ele>254.41</ele>
        <time>2010-03-21T09:42:59Z</time>
      </trkpt>
      <trkpt lat="44.78693" lon="1.65382">
        <ele>254.89</ele>
        <time>2010-03-21T09:43:06Z</time>
      </trkpt>
      <trkpt lat="44.78689" lon="1.6537">
        <ele>258.25</ele>
        <time>2010-03-21T09:43:11Z</time>
      </trkpt>
      <trkpt lat="44.78688" lon="1.65369">
        <ele>257.29</ele>
        <time>2010-03-21T09:43:12Z</time>
      </trkpt>
      <trkpt lat="44.78673" lon="1.65355">
        <ele>259.69</ele>
        <time>2010-03-21T09:43:27Z</time>
      </trkpt>
      <trkpt lat="44.78665" lon="1.65346">
        <ele>258.25</ele>
        <time>2010-03-21T09:43:32Z</time>
      </trkpt>
      <trkpt lat="44.78654" lon="1.65329">
        <ele>256.81</ele>
        <time>2010-03-21T09:43:41Z</time>
      </trkpt>
      <trkpt lat="44.78648" lon="1.65319">
        <ele>256.33</ele>
        <time>2010-03-21T09:43:46Z</time>
      </trkpt>
      <trkpt lat="44.78644" lon="1.65312">
        <ele>257.29</ele>
        <time>2010-03-21T09:43:50Z</time>
      </trkpt>
      <trkpt lat="44.78639" lon="1.65295">
        <ele>257.29</ele>
        <time>2010-03-21T09:44:01Z</time>
      </trkpt>
      <trkpt lat="44.78632" lon="1.65279">
        <ele>256.33</ele>
        <time>2010-03-21T09:44:10Z</time>
      </trkpt>
      <trkpt lat="44.78627" lon="1.65264">
        <ele>257.29</ele>
        <time>2010-03-21T09:44:18Z</time>
      </trkpt>
      <trkpt lat="44.7862" lon="1.65244">
        <ele>255.85</ele>
        <time>2010-03-21T09:44:28Z</time>
      </trkpt>
      <trkpt lat="44.78615" lon="1.65223">
        <ele>255.85</ele>
        <time>2010-03-21T09:44:38Z</time>
      </trkpt>
      <trkpt lat="44.78612" lon="1.65215">
        <ele>256.81</ele>
        <time>2010-03-21T09:44:42Z</time>
      </trkpt>
      <trkpt lat="44.786" lon="1.65194">
        <ele>256.81</ele>
        <time>2010-03-21T09:44:50Z</time>
      </trkpt>
      <trkpt lat="44.7859" lon="1.65177">
        <ele>256.33</ele>
        <time>2010-03-21T09:44:59Z</time>
      </trkpt>
      <trkpt lat="44.78587" lon="1.6516">
        <ele>255.37</ele>
        <time>2010-03-21T09:45:10Z</time>
      </trkpt>
      <trkpt lat="44.78583" lon="1.65147">
        <ele>254.41</ele>
        <time>2010-03-21T09:45:17Z</time>
      </trkpt>
      <trkpt lat="44.78572" lon="1.65128">
        <ele>253.44</ele>
        <time>2010-03-21T09:45:35Z</time>
      </trkpt>
      <trkpt lat="44.78561" lon="1.65112">
        <ele>255.37</ele>
        <time>2010-03-21T09:45:47Z</time>
      </trkpt>
      <trkpt lat="44.78548" lon="1.65091">
        <ele>252.96</ele>
        <time>2010-03-21T09:45:58Z</time>
      </trkpt>
      <trkpt lat="44.78539" lon="1.65081">
        <ele>254.89</ele>
        <time>2010-03-21T09:46:06Z</time>
      </trkpt>
      <trkpt lat="44.78516" lon="1.65054">
        <ele>254.89</ele>
        <time>2010-03-21T09:46:17Z</time>
      </trkpt>
      <trkpt lat="44.7851" lon="1.65043">
        <ele>255.37</ele>
        <time>2010-03-21T09:46:22Z</time>
      </trkpt>
      <trkpt lat="44.78509" lon="1.65038">
        <ele>255.85</ele>
        <time>2010-03-21T09:46:26Z</time>
      </trkpt>
      <trkpt lat="44.78498" lon="1.65025">
        <ele>255.85</ele>
        <time>2010-03-21T09:46:35Z</time>
      </trkpt>
      <trkpt lat="44.78493" lon="1.65019">
        <ele>255.85</ele>
        <time>2010-03-21T09:46:39Z</time>
      </trkpt>
      <trkpt lat="44.78492" lon="1.65018">
        <ele>254.41</ele>
        <time>2010-03-21T09:46:40Z</time>
      </trkpt>
      <trkpt lat="44.78483" lon="1.6501">
        <ele>255.37</ele>
        <time>2010-03-21T09:46:46Z</time>
      </trkpt>
      <trkpt lat="44.78474" lon="1.65006">
        <ele>254.41</ele>
        <time>2010-03-21T09:46:52Z</time>
      </trkpt>
      <trkpt lat="44.78458" lon="1.64997">
        <ele>254.89</ele>
        <time>2010-03-21T09:47:02Z</time>
      </trkpt>
      <trkpt lat="44.78451" lon="1.64991">
        <ele>253.44</ele>
        <time>2010-03-21T09:47:06Z</time>
      </trkpt>
      <trkpt lat="44.78439" lon="1.64997">
        <ele>254.89</ele>
        <time>2010-03-21T09:47:14Z</time>
      </trkpt>
      <trkpt lat="44.78428" lon="1.65003">
        <ele>253.93</ele>
        <time>2010-03-21T09:47:21Z</time>
      </trkpt>
      <trkpt lat="44.7842" lon="1.65003">
        <ele>256.81</ele>
        <time>2010-03-21T09:47:28Z</time>
      </trkpt>
      <trkpt lat="44.78412" lon="1.65001">
        <ele>259.21</ele>
        <time>2010-03-21T09:47:34Z</time>
      </trkpt>
      <trkpt lat="44.78404" lon="1.65002">
        <ele>262.58</ele>
        <time>2010-03-21T09:47:39Z</time>
      </trkpt>
      <trkpt lat="44.78397" lon="1.65003">
        <ele>263.06</ele>
        <time>2010-03-21T09:47:43Z</time>
      </trkpt>
      <trkpt lat="44.78395" lon="1.65006">
        <ele>264.5</ele>
        <time>2010-03-21T09:47:46Z</time>
      </trkpt>
      <trkpt lat="44.78386" lon="1.65006">
        <ele>263.06</ele>
        <time>2010-03-21T09:47:53Z</time>
      </trkpt>
      <trkpt lat="44.78384" lon="1.65004">
        <ele>264.5</ele>
        <time>2010-03-21T09:47:55Z</time>
      </trkpt>
      <trkpt lat="44.78365" lon="1.65">
        <ele>263.54</ele>
        <time>2010-03-21T09:48:05Z</time>
      </trkpt>
      <trkpt lat="44.78361" lon="1.65">
        <ele>264.02</ele>
        <time>2010-03-21T09:48:07Z</time>
      </trkpt>
      <trkpt lat="44.78349" lon="1.64999">
        <ele>265.46</ele>
        <time>2010-03-21T09:48:17Z</time>
      </trkpt>
      <trkpt lat="44.78348" lon="1.64999">
        <ele>265.46</ele>
        <time>2010-03-21T09:48:18Z</time>
      </trkpt>
      <trkpt lat="44.78339" lon="1.65002">
        <ele>263.06</ele>
        <time>2010-03-21T09:48:23Z</time>
      </trkpt>
      <trkpt lat="44.78333" lon="1.65006">
        <ele>264.5</ele>
        <time>2010-03-21T09:48:28Z</time>
      </trkpt>
      <trkpt lat="44.78321" lon="1.6502">
        <ele>264.98</ele>
        <time>2010-03-21T09:48:37Z</time>
      </trkpt>
      <trkpt lat="44.78314" lon="1.65028">
        <ele>263.06</ele>
        <time>2010-03-21T09:48:45Z</time>
      </trkpt>
      <trkpt lat="44.78303" lon="1.65038">
        <ele>265.94</ele>
        <time>2010-03-21T09:48:54Z</time>
      </trkpt>
      <trkpt lat="44.78301" lon="1.65039">
        <ele>264.02</ele>
        <time>2010-03-21T09:48:56Z</time>
      </trkpt>
      <trkpt lat="44.7829" lon="1.65051">
        <ele>263.54</ele>
        <time>2010-03-21T09:49:04Z</time>
      </trkpt>
      <trkpt lat="44.78275" lon="1.65065">
        <ele>265.94</ele>
        <time>2010-03-21T09:49:18Z</time>
      </trkpt>
      <trkpt lat="44.78275" lon="1.65065">
        <ele>265.46</ele>
        <time>2010-03-21T09:49:19Z</time>
      </trkpt>
      <trkpt lat="44.78279" lon="1.65062">
        <ele>265.94</ele>
        <time>2010-03-21T09:49:26Z</time>
      </trkpt>
      <trkpt lat="44.78287" lon="1.65054">
        <ele>263.54</ele>
        <time>2010-03-21T09:49:34Z</time>
      </trkpt>
      <trkpt lat="44.78295" lon="1.65046">
        <ele>265.94</ele>
        <time>2010-03-21T09:49:40Z</time>
      </trkpt>
      <trkpt lat="44.78295" lon="1.65044">
        <ele>263.54</ele>
        <time>2010-03-21T09:49:43Z</time>
      </trkpt>
      <trkpt lat="44.78296" lon="1.6504">
        <ele>264.98</ele>
        <time>2010-03-21T09:49:45Z</time>
      </trkpt>
      <trkpt lat="44.783" lon="1.65033">
        <ele>263.06</ele>
        <time>2010-03-21T09:49:50Z</time>
      </trkpt>
      <trkpt lat="44.78318" lon="1.65019">
        <ele>262.58</ele>
        <time>2010-03-21T09:49:58Z</time>
      </trkpt>
      <trkpt lat="44.78328" lon="1.65007">
        <ele>262.58</ele>
        <time>2010-03-21T09:50:05Z</time>
      </trkpt>
      <trkpt lat="44.78337" lon="1.64996">
        <ele>262.58</ele>
        <time>2010-03-21T09:50:10Z</time>
      </trkpt>
      <trkpt lat="44.78348" lon="1.64992">
        <ele>262.58</ele>
        <time>2010-03-21T09:50:16Z</time>
      </trkpt>
      <trkpt lat="44.78356" lon="1.64983">
        <ele>264.02</ele>
        <time>2010-03-21T09:50:21Z</time>
      </trkpt>
      <trkpt lat="44.78367" lon="1.6497">
        <ele>264.02</ele>
        <time>2010-03-21T09:50:29Z</time>
      </trkpt>
      <trkpt lat="44.78371" lon="1.64959">
        <ele>264.98</ele>
        <time>2010-03-21T09:50:34Z</time>
      </trkpt>
      <trkpt lat="44.78383" lon="1.64951">
        <ele>264.5</ele>
        <time>2010-03-21T09:50:41Z</time>
      </trkpt>
      <trkpt lat="44.78384" lon="1.6495">
        <ele>265.46</ele>
        <time>2010-03-21T09:50:42Z</time>
      </trkpt>
      <trkpt lat="44.78394" lon="1.64938">
        <ele>264.98</ele>
        <time>2010-03-21T09:50:49Z</time>
      </trkpt>
      <trkpt lat="44.78395" lon="1.64931">
        <ele>263.54</ele>
        <time>2010-03-21T09:50:54Z</time>
      </trkpt>
      <trkpt lat="44.78399" lon="1.64925">
        <ele>264.02</ele>
        <time>2010-03-21T09:50:58Z</time>
      </trkpt>
      <trkpt lat="44.78401" lon="1.64925">
        <ele>262.58</ele>
        <time>2010-03-21T09:51:01Z</time>
      </trkpt>
      <trkpt lat="44.78407" lon="1.64917">
        <ele>260.17</ele>
        <time>2010-03-21T09:51:08Z</time>
      </trkpt>
      <trkpt lat="44.78415" lon="1.64907">
        <ele>261.62</ele>
        <time>2010-03-21T09:51:16Z</time>
      </trkpt>
      <trkpt lat="44.78427" lon="1.64894">
        <ele>261.14</ele>
        <time>2010-03-21T09:51:22Z</time>
      </trkpt>
      <trkpt lat="44.78429" lon="1.64889">
        <ele>261.62</ele>
        <time>2010-03-21T09:51:25Z</time>
      </trkpt>
      <trkpt lat="44.78448" lon="1.64874">
        <ele>261.14</ele>
        <time>2010-03-21T09:51:32Z</time>
      </trkpt>
      <trkpt lat="44.78452" lon="1.64872">
        <ele>262.58</ele>
        <time>2010-03-21T09:51:34Z</time>
      </trkpt>
      <trkpt lat="44.78465" lon="1.6486">
        <ele>262.58</ele>
        <time>2010-03-21T09:51:41Z</time>
      </trkpt>
      <trkpt lat="44.78467" lon="1.64859">
        <ele>262.58</ele>
        <time>2010-03-21T09:51:42Z</time>
      </trkpt>
      <trkpt lat="44.7847" lon="1.64856">
        <ele>261.14</ele>
        <time>2010-03-21T09:51:44Z</time>
      </trkpt>
      <trkpt lat="44.78476" lon="1.64852">
        <ele>260.65</ele>
        <time>2010-03-21T09:51:49Z</time>
      </trkpt>
      <trkpt lat="44.78483" lon="1.64844">
        <ele>261.62</ele>
        <time>2010-03-21T09:51:54Z</time>
      </trkpt>
      <trkpt lat="44.7849" lon="1.64842">
        <ele>262.58</ele>
        <time>2010-03-21T09:51:59Z</time>
      </trkpt>
      <trkpt lat="44.78495" lon="1.64836">
        <ele>262.1</ele>
        <time>2010-03-21T09:52:05Z</time>
      </trkpt>
      <trkpt lat="44.78498" lon="1.64832">
        <ele>263.54</ele>
        <time>2010-03-21T09:52:10Z</time>
      </trkpt>
      <trkpt lat="44.78501" lon="1.6483">
        <ele>262.1</ele>
        <time>2010-03-21T09:52:13Z</time>
      </trkpt>
      <trkpt lat="44.78507" lon="1.64828">
        <ele>263.06</ele>
        <time>2010-03-21T09:52:20Z</time>
      </trkpt>
      <trkpt lat="44.78508" lon="1.64827">
        <ele>262.58</ele>
        <time>2010-03-21T09:52:21Z</time>
      </trkpt>
      <trkpt lat="44.78515" lon="1.64821">
        <ele>261.62</ele>
        <time>2010-03-21T09:52:24Z</time>
      </trkpt>
      <trkpt lat="44.78519" lon="1.64818">
        <ele>260.17</ele>
        <time>2010-03-21T09:52:26Z</time>
      </trkpt>
      <trkpt lat="44.78526" lon="1.64814">
        <ele>261.62</ele>
        <time>2010-03-21T09:52:29Z</time>
      </trkpt>
      <trkpt lat="44.78538" lon="1.64809">
        <ele>261.14</ele>
        <time>2010-03-21T09:52:35Z</time>
      </trkpt>
      <trkpt lat="44.78556" lon="1.64798">
        <ele>263.06</ele>
        <time>2010-03-21T09:52:44Z</time>
      </trkpt>
      <trkpt lat="44.78569" lon="1.64789">
        <ele>262.1</ele>
        <time>2010-03-21T09:52:52Z</time>
      </trkpt>
      <trkpt lat="44.78574" lon="1.64789">
        <ele>265.94</ele>
        <time>2010-03-21T09:52:56Z</time>
      </trkpt>
      <trkpt lat="44.78578" lon="1.64784">
        <ele>264.02</ele>
        <time>2010-03-21T09:53:01Z</time>
      </trkpt>
      <trkpt lat="44.78587" lon="1.64784">
        <ele>263.54</ele>
        <time>2010-03-21T09:53:09Z</time>
      </trkpt>
      <trkpt lat="44.78592" lon="1.64783">
        <ele>265.46</ele>
        <time>2010-03-21T09:53:13Z</time>
      </trkpt>
      <trkpt lat="44.78606" lon="1.64773">
        <ele>263.54</ele>
        <time>2010-03-21T09:53:21Z</time>
      </trkpt>
      <trkpt lat="44.78607" lon="1.64771">
        <ele>264.02</ele>
        <time>2010-03-21T09:53:23Z</time>
      </trkpt>
      <trkpt lat="44.78612" lon="1.64766">
        <ele>264.98</ele>
        <time>2010-03-21T09:53:27Z</time>
      </trkpt>
      <trkpt lat="44.78629" lon="1.64764">
        <ele>264.98</ele>
        <time>2010-03-21T09:53:37Z</time>
      </trkpt>
      <trkpt lat="44.78643" lon="1.6475">
        <ele>264.5</ele>
        <time>2010-03-21T09:53:45Z</time>
      </trkpt>
      <trkpt lat="44.78648" lon="1.64751">
        <ele>264.5</ele>
        <time>2010-03-21T09:53:48Z</time>
      </trkpt>
      <trkpt lat="44.78656" lon="1.64746">
        <ele>264.02</ele>
        <time>2010-03-21T09:53:52Z</time>
      </trkpt>
      <trkpt lat="44.78661" lon="1.64744">
        <ele>265.46</ele>
        <time>2010-03-21T09:53:54Z</time>
      </trkpt>
      <trkpt lat="44.78668" lon="1.64739">
        <ele>263.54</ele>
        <time>2010-03-21T09:53:58Z</time>
      </trkpt>
      <trkpt lat="44.7867" lon="1.64736">
        <ele>264.98</ele>
        <time>2010-03-21T09:54:00Z</time>
      </trkpt>
      <trkpt lat="44.78675" lon="1.64731">
        <ele>265.46</ele>
        <time>2010-03-21T09:54:03Z</time>
      </trkpt>
      <trkpt lat="44.78682" lon="1.64724">
        <ele>262.58</ele>
        <time>2010-03-21T09:54:10Z</time>
      </trkpt>
      <trkpt lat="44.78689" lon="1.64716">
        <ele>263.06</ele>
        <time>2010-03-21T09:54:14Z</time>
      </trkpt>
      <trkpt lat="44.78694" lon="1.64707">
        <ele>262.58</ele>
        <time>2010-03-21T09:54:23Z</time>
      </trkpt>
      <trkpt lat="44.78701" lon="1.64701">
        <ele>262.1</ele>
        <time>2010-03-21T09:54:30Z</time>
      </trkpt>
      <trkpt lat="44.78706" lon="1.64698">
        <ele>264.98</ele>
        <time>2010-03-21T09:54:33Z</time>
      </trkpt>
      <trkpt lat="44.78719" lon="1.64689">
        <ele>265.46</ele>
        <time>2010-03-21T09:54:41Z</time>
      </trkpt>
      <trkpt lat="44.78723" lon="1.64686">
        <ele>263.54</ele>
        <time>2010-03-21T09:54:43Z</time>
      </trkpt>
      <trkpt lat="44.78726" lon="1.64685">
        <ele>264.02</ele>
        <time>2010-03-21T09:54:45Z</time>
      </trkpt>
      <trkpt lat="44.78728" lon="1.6468">
        <ele>265.46</ele>
        <time>2010-03-21T09:54:47Z</time>
      </trkpt>
      <trkpt lat="44.78735" lon="1.6466">
        <ele>265.94</ele>
        <time>2010-03-21T09:54:55Z</time>
      </trkpt>
      <trkpt lat="44.78738" lon="1.64645">
        <ele>264.02</ele>
        <time>2010-03-21T09:55:01Z</time>
      </trkpt>
      <trkpt lat="44.78738" lon="1.64628">
        <ele>266.9</ele>
        <time>2010-03-21T09:55:08Z</time>
      </trkpt>
      <trkpt lat="44.78738" lon="1.64625">
        <ele>265.94</ele>
        <time>2010-03-21T09:55:10Z</time>
      </trkpt>
      <trkpt lat="44.78739" lon="1.64617">
        <ele>268.35</ele>
        <time>2010-03-21T09:55:17Z</time>
      </trkpt>
      <trkpt lat="44.7874" lon="1.64606">
        <ele>267.38</ele>
        <time>2010-03-21T09:55:23Z</time>
      </trkpt>
      <trkpt lat="44.7875" lon="1.64589">
        <ele>266.9</ele>
        <time>2010-03-21T09:55:32Z</time>
      </trkpt>
      <trkpt lat="44.78759" lon="1.6458">
        <ele>269.31</ele>
        <time>2010-03-21T09:55:38Z</time>
      </trkpt>
      <trkpt lat="44.78764" lon="1.64572">
        <ele>267.38</ele>
        <time>2010-03-21T09:55:43Z</time>
      </trkpt>
      <trkpt lat="44.78772" lon="1.64559">
        <ele>270.75</ele>
        <time>2010-03-21T09:55:52Z</time>
      </trkpt>
      <trkpt lat="44.78777" lon="1.64548">
        <ele>270.75</ele>
        <time>2010-03-21T09:55:59Z</time>
      </trkpt>
      <trkpt lat="44.78783" lon="1.64537">
        <ele>270.27</ele>
        <time>2010-03-21T09:56:09Z</time>
      </trkpt>
      <trkpt lat="44.78789" lon="1.64524">
        <ele>271.23</ele>
        <time>2010-03-21T09:56:16Z</time>
      </trkpt>
      <trkpt lat="44.7879" lon="1.64522">
        <ele>271.71</ele>
        <time>2010-03-21T09:56:17Z</time>
      </trkpt>
      <trkpt lat="44.78798" lon="1.64508">
        <ele>272.19</ele>
        <time>2010-03-21T09:56:25Z</time>
      </trkpt>
      <trkpt lat="44.78801" lon="1.64508">
        <ele>274.59</ele>
        <time>2010-03-21T09:56:28Z</time>
      </trkpt>
      <trkpt lat="44.78808" lon="1.64506">
        <ele>273.15</ele>
        <time>2010-03-21T09:56:34Z</time>
      </trkpt>
      <trkpt lat="44.78813" lon="1.64502">
        <ele>272.67</ele>
        <time>2010-03-21T09:56:38Z</time>
      </trkpt>
      <trkpt lat="44.78814" lon="1.64503">
        <ele>272.19</ele>
        <time>2010-03-21T09:56:40Z</time>
      </trkpt>
      <trkpt lat="44.78835" lon="1.64491">
        <ele>272.67</ele>
        <time>2010-03-21T09:56:54Z</time>
      </trkpt>
      <trkpt lat="44.78841" lon="1.64487">
        <ele>274.11</ele>
        <time>2010-03-21T09:56:57Z</time>
      </trkpt>
      <trkpt lat="44.78854" lon="1.64482">
        <ele>272.19</ele>
        <time>2010-03-21T09:57:04Z</time>
      </trkpt>
      <trkpt lat="44.78865" lon="1.6448">
        <ele>273.63</ele>
        <time>2010-03-21T09:57:11Z</time>
      </trkpt>
      <trkpt lat="44.78881" lon="1.64469">
        <ele>272.67</ele>
        <time>2010-03-21T09:57:17Z</time>
      </trkpt>
      <trkpt lat="44.78883" lon="1.64467">
        <ele>273.15</ele>
        <time>2010-03-21T09:57:18Z</time>
      </trkpt>
      <trkpt lat="44.78903" lon="1.64458">
        <ele>275.07</ele>
        <time>2010-03-21T09:57:26Z</time>
      </trkpt>
      <trkpt lat="44.78912" lon="1.64455">
        <ele>273.15</ele>
        <time>2010-03-21T09:57:30Z</time>
      </trkpt>
      <trkpt lat="44.78915" lon="1.64456">
        <ele>274.59</ele>
        <time>2010-03-21T09:57:32Z</time>
      </trkpt>
      <trkpt lat="44.78921" lon="1.64455">
        <ele>272.67</ele>
        <time>2010-03-21T09:57:35Z</time>
      </trkpt>
      <trkpt lat="44.78931" lon="1.64448">
        <ele>274.59</ele>
        <time>2010-03-21T09:57:42Z</time>
      </trkpt>
      <trkpt lat="44.78942" lon="1.64443">
        <ele>271.23</ele>
        <time>2010-03-21T09:57:48Z</time>
      </trkpt>
      <trkpt lat="44.78944" lon="1.64442">
        <ele>271.71</ele>
        <time>2010-03-21T09:57:49Z</time>
      </trkpt>
      <trkpt lat="44.78947" lon="1.64441">
        <ele>274.11</ele>
        <time>2010-03-21T09:57:51Z</time>
      </trkpt>
      <trkpt lat="44.78955" lon="1.64448">
        <ele>271.23</ele>
        <time>2010-03-21T09:57:57Z</time>
      </trkpt>
      <trkpt lat="44.78968" lon="1.64442">
        <ele>270.27</ele>
        <time>2010-03-21T09:58:06Z</time>
      </trkpt>
      <trkpt lat="44.78973" lon="1.6444">
        <ele>272.19</ele>
        <time>2010-03-21T09:58:10Z</time>
      </trkpt>
      <trkpt lat="44.78976" lon="1.64441">
        <ele>271.71</ele>
        <time>2010-03-21T09:58:12Z</time>
      </trkpt>
      <trkpt lat="44.78981" lon="1.64438">
        <ele>272.19</ele>
        <time>2010-03-21T09:58:15Z</time>
      </trkpt>
      <trkpt lat="44.78988" lon="1.64437">
        <ele>270.27</ele>
        <time>2010-03-21T09:58:21Z</time>
      </trkpt>
      <trkpt lat="44.78993" lon="1.64431">
        <ele>272.19</ele>
        <time>2010-03-21T09:58:25Z</time>
      </trkpt>
      <trkpt lat="44.78994" lon="1.64431">
        <ele>271.23</ele>
        <time>2010-03-21T09:58:27Z</time>
      </trkpt>
      <trkpt lat="44.79004" lon="1.64418">
        <ele>271.71</ele>
        <time>2010-03-21T09:58:35Z</time>
      </trkpt>
      <trkpt lat="44.79005" lon="1.64417">
        <ele>272.19</ele>
        <time>2010-03-21T09:58:36Z</time>
      </trkpt>
      <trkpt lat="44.79009" lon="1.64412">
        <ele>270.75</ele>
        <time>2010-03-21T09:58:40Z</time>
      </trkpt>
      <trkpt lat="44.79014" lon="1.64406">
        <ele>274.59</ele>
        <time>2010-03-21T09:58:45Z</time>
      </trkpt>
      <trkpt lat="44.79026" lon="1.64398">
        <ele>272.19</ele>
        <time>2010-03-21T09:58:53Z</time>
      </trkpt>
      <trkpt lat="44.79028" lon="1.64397">
        <ele>274.11</ele>
        <time>2010-03-21T09:58:56Z</time>
      </trkpt>
      <trkpt lat="44.79038" lon="1.64389">
        <ele>271.71</ele>
        <time>2010-03-21T09:59:02Z</time>
      </trkpt>
      <trkpt lat="44.7905" lon="1.64377">
        <ele>274.59</ele>
        <time>2010-03-21T09:59:10Z</time>
      </trkpt>
      <trkpt lat="44.79058" lon="1.64366">
        <ele>275.56</ele>
        <time>2010-03-21T09:59:16Z</time>
      </trkpt>
      <trkpt lat="44.79062" lon="1.64363">
        <ele>273.63</ele>
        <time>2010-03-21T09:59:20Z</time>
      </trkpt>
      <trkpt lat="44.79067" lon="1.64357">
        <ele>271.71</ele>
        <time>2010-03-21T09:59:23Z</time>
      </trkpt>
      <trkpt lat="44.79067" lon="1.64355">
        <ele>271.71</ele>
        <time>2010-03-21T09:59:24Z</time>
      </trkpt>
      <trkpt lat="44.7907" lon="1.64342">
        <ele>274.59</ele>
        <time>2010-03-21T09:59:33Z</time>
      </trkpt>
      <trkpt lat="44.79072" lon="1.64326">
        <ele>276.04</ele>
        <time>2010-03-21T09:59:41Z</time>
      </trkpt>
      <trkpt lat="44.79071" lon="1.64321">
        <ele>276.04</ele>
        <time>2010-03-21T09:59:43Z</time>
      </trkpt>
      <trkpt lat="44.79069" lon="1.64307">
        <ele>274.59</ele>
        <time>2010-03-21T09:59:48Z</time>
      </trkpt>
      <trkpt lat="44.79066" lon="1.64303">
        <ele>277</ele>
        <time>2010-03-21T09:59:51Z</time>
      </trkpt>
      <trkpt lat="44.79065" lon="1.64295">
        <ele>277</ele>
        <time>2010-03-21T09:59:56Z</time>
      </trkpt>
      <trkpt lat="44.79065" lon="1.6428">
        <ele>277.96</ele>
        <time>2010-03-21T10:00:04Z</time>
      </trkpt>
      <trkpt lat="44.79063" lon="1.64253">
        <ele>277.48</ele>
        <time>2010-03-21T10:00:13Z</time>
      </trkpt>
      <trkpt lat="44.79063" lon="1.64239">
        <ele>278.44</ele>
        <time>2010-03-21T10:00:19Z</time>
      </trkpt>
      <trkpt lat="44.79062" lon="1.64238">
        <ele>280.36</ele>
        <time>2010-03-21T10:00:22Z</time>
      </trkpt>
      <trkpt lat="44.7906" lon="1.64234">
        <ele>279.88</ele>
        <time>2010-03-21T10:00:28Z</time>
      </trkpt>
      <trkpt lat="44.79054" lon="1.64225">
        <ele>281.8</ele>
        <time>2010-03-21T10:00:33Z</time>
      </trkpt>
      <trkpt lat="44.79043" lon="1.64211">
        <ele>282.28</ele>
        <time>2010-03-21T10:00:41Z</time>
      </trkpt>
      <trkpt lat="44.79041" lon="1.64206">
        <ele>281.32</ele>
        <time>2010-03-21T10:00:44Z</time>
      </trkpt>
      <trkpt lat="44.7904" lon="1.64201">
        <ele>280.84</ele>
        <time>2010-03-21T10:00:47Z</time>
      </trkpt>
      <trkpt lat="44.7904" lon="1.64196">
        <ele>283.25</ele>
        <time>2010-03-21T10:00:50Z</time>
      </trkpt>
      <trkpt lat="44.7903" lon="1.64179">
        <ele>283.25</ele>
        <time>2010-03-21T10:01:02Z</time>
      </trkpt>
      <trkpt lat="44.79027" lon="1.64175">
        <ele>283.73</ele>
        <time>2010-03-21T10:01:05Z</time>
      </trkpt>
      <trkpt lat="44.79017" lon="1.64166">
        <ele>283.25</ele>
        <time>2010-03-21T10:01:11Z</time>
      </trkpt>
      <trkpt lat="44.79013" lon="1.64163">
        <ele>282.28</ele>
        <time>2010-03-21T10:01:14Z</time>
      </trkpt>
      <trkpt lat="44.79002" lon="1.64158">
        <ele>283.73</ele>
        <time>2010-03-21T10:01:18Z</time>
      </trkpt>
      <trkpt lat="44.78987" lon="1.64149">
        <ele>284.69</ele>
        <time>2010-03-21T10:01:27Z</time>
      </trkpt>
      <trkpt lat="44.78981" lon="1.64138">
        <ele>284.21</ele>
        <time>2010-03-21T10:01:33Z</time>
      </trkpt>
      <trkpt lat="44.78972" lon="1.6412">
        <ele>286.13</ele>
        <time>2010-03-21T10:01:42Z</time>
      </trkpt>
      <trkpt lat="44.78969" lon="1.64116">
        <ele>284.21</ele>
        <time>2010-03-21T10:01:44Z</time>
      </trkpt>
      <trkpt lat="44.78965" lon="1.641">
        <ele>284.69</ele>
        <time>2010-03-21T10:01:52Z</time>
      </trkpt>
      <trkpt lat="44.78962" lon="1.64096">
        <ele>285.65</ele>
        <time>2010-03-21T10:01:54Z</time>
      </trkpt>
      <trkpt lat="44.7896" lon="1.64092">
        <ele>289.01</ele>
        <time>2010-03-21T10:01:56Z</time>
      </trkpt>
      <trkpt lat="44.78953" lon="1.64083">
        <ele>290.46</ele>
        <time>2010-03-21T10:02:00Z</time>
      </trkpt>
      <trkpt lat="44.78946" lon="1.64076">
        <ele>292.86</ele>
        <time>2010-03-21T10:02:06Z</time>
      </trkpt>
      <trkpt lat="44.78943" lon="1.64074">
        <ele>289.49</ele>
        <time>2010-03-21T10:02:08Z</time>
      </trkpt>
      <trkpt lat="44.78941" lon="1.64072">
        <ele>289.97</ele>
        <time>2010-03-21T10:02:09Z</time>
      </trkpt>
      <trkpt lat="44.78937" lon="1.64069">
        <ele>292.38</ele>
        <time>2010-03-21T10:02:12Z</time>
      </trkpt>
      <trkpt lat="44.78922" lon="1.6406">
        <ele>290.94</ele>
        <time>2010-03-21T10:02:21Z</time>
      </trkpt>
      <trkpt lat="44.78919" lon="1.64059">
        <ele>292.86</ele>
        <time>2010-03-21T10:02:24Z</time>
      </trkpt>
      <trkpt lat="44.78915" lon="1.64056">
        <ele>292.38</ele>
        <time>2010-03-21T10:02:28Z</time>
      </trkpt>
      <trkpt lat="44.7891" lon="1.64054">
        <ele>291.9</ele>
        <time>2010-03-21T10:02:32Z</time>
      </trkpt>
      <trkpt lat="44.78905" lon="1.64048">
        <ele>293.82</ele>
        <time>2010-03-21T10:02:37Z</time>
      </trkpt>
      <trkpt lat="44.78904" lon="1.64044">
        <ele>292.86</ele>
        <time>2010-03-21T10:02:39Z</time>
      </trkpt>
      <trkpt lat="44.78904" lon="1.64043">
        <ele>294.3</ele>
        <time>2010-03-21T10:02:40Z</time>
      </trkpt>
      <trkpt lat="44.78901" lon="1.64037">
        <ele>294.3</ele>
        <time>2010-03-21T10:02:43Z</time>
      </trkpt>
      <trkpt lat="44.78899" lon="1.64032">
        <ele>292.86</ele>
        <time>2010-03-21T10:02:46Z</time>
      </trkpt>
      <trkpt lat="44.7889" lon="1.64005">
        <ele>294.3</ele>
        <time>2010-03-21T10:02:59Z</time>
      </trkpt>
      <trkpt lat="44.78889" lon="1.64">
        <ele>291.9</ele>
        <time>2010-03-21T10:03:01Z</time>
      </trkpt>
      <trkpt lat="44.78882" lon="1.63976">
        <ele>291.42</ele>
        <time>2010-03-21T10:03:12Z</time>
      </trkpt>
      <trkpt lat="44.78879" lon="1.63967">
        <ele>291.42</ele>
        <time>2010-03-21T10:03:19Z</time>
      </trkpt>
      <trkpt lat="44.78872" lon="1.63946">
        <ele>290.46</ele>
        <time>2010-03-21T10:03:30Z</time>
      </trkpt>
      <trkpt lat="44.78866" lon="1.63934">
        <ele>289.49</ele>
        <time>2010-03-21T10:03:36Z</time>
      </trkpt>
      <trkpt lat="44.78862" lon="1.63925">
        <ele>291.42</ele>
        <time>2010-03-21T10:03:40Z</time>
      </trkpt>
      <trkpt lat="44.78856" lon="1.63912">
        <ele>290.46</ele>
        <time>2010-03-21T10:03:45Z</time>
      </trkpt>
      <trkpt lat="44.78849" lon="1.63903">
        <ele>289.01</ele>
        <time>2010-03-21T10:03:49Z</time>
      </trkpt>
      <trkpt lat="44.78847" lon="1.639">
        <ele>290.46</ele>
        <time>2010-03-21T10:03:51Z</time>
      </trkpt>
      <trkpt lat="44.78844" lon="1.63886">
        <ele>289.01</ele>
        <time>2010-03-21T10:03:57Z</time>
      </trkpt>
      <trkpt lat="44.78845" lon="1.63882">
        <ele>288.53</ele>
        <time>2010-03-21T10:03:59Z</time>
      </trkpt>
      <trkpt lat="44.7884" lon="1.63867">
        <ele>289.01</ele>
        <time>2010-03-21T10:04:06Z</time>
      </trkpt>
      <trkpt lat="44.78846" lon="1.63862">
        <ele>288.53</ele>
        <time>2010-03-21T10:04:12Z</time>
      </trkpt>
      <trkpt lat="44.78851" lon="1.63863">
        <ele>288.53</ele>
        <time>2010-03-21T10:04:18Z</time>
      </trkpt>
      <trkpt lat="44.78852" lon="1.63863">
        <ele>288.05</ele>
        <time>2010-03-21T10:04:22Z</time>
      </trkpt>
      <trkpt lat="44.78851" lon="1.63863">
        <ele>290.46</ele>
        <time>2010-03-21T10:04:25Z</time>
      </trkpt>
      <trkpt lat="44.78855" lon="1.63869">
        <ele>289.49</ele>
        <time>2010-03-21T10:04:52Z</time>
      </trkpt>
      <trkpt lat="44.78855" lon="1.6387">
        <ele>291.9</ele>
        <time>2010-03-21T10:04:55Z</time>
      </trkpt>
      <trkpt lat="44.78855" lon="1.6387">
        <ele>290.46</ele>
        <time>2010-03-21T10:04:59Z</time>
      </trkpt>
      <trkpt lat="44.78848" lon="1.63867">
        <ele>290.46</ele>
        <time>2010-03-21T10:05:15Z</time>
      </trkpt>
      <trkpt lat="44.78844" lon="1.63866">
        <ele>292.38</ele>
        <time>2010-03-21T10:05:19Z</time>
      </trkpt>
      <trkpt lat="44.7884" lon="1.63864">
        <ele>293.34</ele>
        <time>2010-03-21T10:05:21Z</time>
      </trkpt>
      <trkpt lat="44.78828" lon="1.63854">
        <ele>292.86</ele>
        <time>2010-03-21T10:05:32Z</time>
      </trkpt>
      <trkpt lat="44.78825" lon="1.63852">
        <ele>292.38</ele>
        <time>2010-03-21T10:05:37Z</time>
      </trkpt>
      <trkpt lat="44.78828" lon="1.63853">
        <ele>292.38</ele>
        <time>2010-03-21T10:05:46Z</time>
      </trkpt>
      <trkpt lat="44.78831" lon="1.63854">
        <ele>292.86</ele>
        <time>2010-03-21T10:05:48Z</time>
      </trkpt>
      <trkpt lat="44.78846" lon="1.63865">
        <ele>291.42</ele>
        <time>2010-03-21T10:06:07Z</time>
      </trkpt>
      <trkpt lat="44.78846" lon="1.63865">
        <ele>291.42</ele>
        <time>2010-03-21T10:06:08Z</time>
      </trkpt>
      <trkpt lat="44.78845" lon="1.63863">
        <ele>291.9</ele>
        <time>2010-03-21T10:06:14Z</time>
      </trkpt>
      <trkpt lat="44.78841" lon="1.63861">
        <ele>291.9</ele>
        <time>2010-03-21T10:06:20Z</time>
      </trkpt>
      <trkpt lat="44.78838" lon="1.63859">
        <ele>293.34</ele>
        <time>2010-03-21T10:06:22Z</time>
      </trkpt>
      <trkpt lat="44.78823" lon="1.63848">
        <ele>293.82</ele>
        <time>2010-03-21T10:06:33Z</time>
      </trkpt>
      <trkpt lat="44.78818" lon="1.63841">
        <ele>292.86</ele>
        <time>2010-03-21T10:06:38Z</time>
      </trkpt>
      <trkpt lat="44.78808" lon="1.63828">
        <ele>291.9</ele>
        <time>2010-03-21T10:06:47Z</time>
      </trkpt>
      <trkpt lat="44.78806" lon="1.63825">
        <ele>290.46</ele>
        <time>2010-03-21T10:06:49Z</time>
      </trkpt>
      <trkpt lat="44.78804" lon="1.6382">
        <ele>289.01</ele>
        <time>2010-03-21T10:06:53Z</time>
      </trkpt>
      <trkpt lat="44.78802" lon="1.63811">
        <ele>292.86</ele>
        <time>2010-03-21T10:06:56Z</time>
      </trkpt>
      <trkpt lat="44.788" lon="1.63807">
        <ele>291.42</ele>
        <time>2010-03-21T10:06:58Z</time>
      </trkpt>
      <trkpt lat="44.78795" lon="1.63791">
        <ele>292.86</ele>
        <time>2010-03-21T10:07:05Z</time>
      </trkpt>
      <trkpt lat="44.78791" lon="1.63784">
        <ele>290.94</ele>
        <time>2010-03-21T10:07:08Z</time>
      </trkpt>
      <trkpt lat="44.78789" lon="1.63779">
        <ele>293.34</ele>
        <time>2010-03-21T10:07:10Z</time>
      </trkpt>
      <trkpt lat="44.78785" lon="1.63768">
        <ele>292.38</ele>
        <time>2010-03-21T10:07:15Z</time>
      </trkpt>
      <trkpt lat="44.78783" lon="1.63766">
        <ele>290.94</ele>
        <time>2010-03-21T10:07:17Z</time>
      </trkpt>
      <trkpt lat="44.78779" lon="1.6376">
        <ele>290.46</ele>
        <time>2010-03-21T10:07:21Z</time>
      </trkpt>
      <trkpt lat="44.78776" lon="1.63758">
        <ele>289.97</ele>
        <time>2010-03-21T10:07:23Z</time>
      </trkpt>
      <trkpt lat="44.78774" lon="1.63754">
        <ele>292.38</ele>
        <time>2010-03-21T10:07:25Z</time>
      </trkpt>
      <trkpt lat="44.78766" lon="1.63749">
        <ele>290.94</ele>
        <time>2010-03-21T10:07:31Z</time>
      </trkpt>
      <trkpt lat="44.78766" lon="1.63749">
        <ele>290.46</ele>
        <time>2010-03-21T10:07:32Z</time>
      </trkpt>
      <trkpt lat="44.78762" lon="1.63744">
        <ele>289.01</ele>
        <time>2010-03-21T10:07:35Z</time>
      </trkpt>
      <trkpt lat="44.78756" lon="1.63739">
        <ele>289.49</ele>
        <time>2010-03-21T10:07:41Z</time>
      </trkpt>
      <trkpt lat="44.78748" lon="1.63729">
        <ele>287.09</ele>
        <time>2010-03-21T10:07:50Z</time>
      </trkpt>
      <trkpt lat="44.78743" lon="1.6372">
        <ele>287.09</ele>
        <time>2010-03-21T10:07:55Z</time>
      </trkpt>
      <trkpt lat="44.78739" lon="1.63711">
        <ele>288.53</ele>
        <time>2010-03-21T10:07:58Z</time>
      </trkpt>
      <trkpt lat="44.78732" lon="1.63693">
        <ele>288.05</ele>
        <time>2010-03-21T10:08:06Z</time>
      </trkpt>
      <trkpt lat="44.78731" lon="1.63688">
        <ele>286.13</ele>
        <time>2010-03-21T10:08:09Z</time>
      </trkpt>
      <trkpt lat="44.7873" lon="1.63684">
        <ele>286.13</ele>
        <time>2010-03-21T10:08:11Z</time>
      </trkpt>
      <trkpt lat="44.78724" lon="1.63675">
        <ele>287.09</ele>
        <time>2010-03-21T10:08:16Z</time>
      </trkpt>
      <trkpt lat="44.78723" lon="1.63671">
        <ele>286.61</ele>
        <time>2010-03-21T10:08:18Z</time>
      </trkpt>
      <trkpt lat="44.78718" lon="1.63658">
        <ele>284.21</ele>
        <time>2010-03-21T10:08:24Z</time>
      </trkpt>
      <trkpt lat="44.78715" lon="1.63646">
        <ele>283.25</ele>
        <time>2010-03-21T10:08:29Z</time>
      </trkpt>
      <trkpt lat="44.78713" lon="1.63641">
        <ele>286.13</ele>
        <time>2010-03-21T10:08:33Z</time>
      </trkpt>
      <trkpt lat="44.7871" lon="1.63636">
        <ele>284.21</ele>
        <time>2010-03-21T10:08:36Z</time>
      </trkpt>
      <trkpt lat="44.78708" lon="1.63633">
        <ele>284.69</ele>
        <time>2010-03-21T10:08:38Z</time>
      </trkpt>
      <trkpt lat="44.78706" lon="1.63627">
        <ele>281.8</ele>
        <time>2010-03-21T10:08:42Z</time>
      </trkpt>
      <trkpt lat="44.78703" lon="1.63619">
        <ele>282.28</ele>
        <time>2010-03-21T10:08:47Z</time>
      </trkpt>
      <trkpt lat="44.78702" lon="1.63609">
        <ele>284.21</ele>
        <time>2010-03-21T10:08:51Z</time>
      </trkpt>
      <trkpt lat="44.78699" lon="1.63598">
        <ele>282.28</ele>
        <time>2010-03-21T10:08:56Z</time>
      </trkpt>
      <trkpt lat="44.78698" lon="1.63593">
        <ele>280.84</ele>
        <time>2010-03-21T10:08:59Z</time>
      </trkpt>
      <trkpt lat="44.78692" lon="1.63571">
        <ele>281.8</ele>
        <time>2010-03-21T10:09:09Z</time>
      </trkpt>
      <trkpt lat="44.78683" lon="1.63552">
        <ele>283.25</ele>
        <time>2010-03-21T10:09:18Z</time>
      </trkpt>
      <trkpt lat="44.78679" lon="1.63545">
        <ele>282.28</ele>
        <time>2010-03-21T10:09:21Z</time>
      </trkpt>
      <trkpt lat="44.78673" lon="1.63527">
        <ele>281.32</ele>
        <time>2010-03-21T10:09:29Z</time>
      </trkpt>
      <trkpt lat="44.78668" lon="1.63518">
        <ele>283.25</ele>
        <time>2010-03-21T10:09:35Z</time>
      </trkpt>
      <trkpt lat="44.78668" lon="1.63514">
        <ele>281.8</ele>
        <time>2010-03-21T10:09:37Z</time>
      </trkpt>
      <trkpt lat="44.78666" lon="1.63494">
        <ele>281.8</ele>
        <time>2010-03-21T10:09:45Z</time>
      </trkpt>
      <trkpt lat="44.78666" lon="1.63489">
        <ele>280.84</ele>
        <time>2010-03-21T10:09:47Z</time>
      </trkpt>
      <trkpt lat="44.78663" lon="1.63482">
        <ele>282.77</ele>
        <time>2010-03-21T10:09:51Z</time>
      </trkpt>
      <trkpt lat="44.78654" lon="1.63458">
        <ele>280.84</ele>
        <time>2010-03-21T10:10:02Z</time>
      </trkpt>
      <trkpt lat="44.78649" lon="1.63445">
        <ele>280.84</ele>
        <time>2010-03-21T10:10:09Z</time>
      </trkpt>
      <trkpt lat="44.78652" lon="1.63436">
        <ele>283.73</ele>
        <time>2010-03-21T10:10:13Z</time>
      </trkpt>
      <trkpt lat="44.78654" lon="1.63427">
        <ele>282.28</ele>
        <time>2010-03-21T10:10:17Z</time>
      </trkpt>
      <trkpt lat="44.78655" lon="1.63424">
        <ele>282.77</ele>
        <time>2010-03-21T10:10:18Z</time>
      </trkpt>
      <trkpt lat="44.78661" lon="1.63403">
        <ele>285.17</ele>
        <time>2010-03-21T10:10:29Z</time>
      </trkpt>
      <trkpt lat="44.78661" lon="1.63402">
        <ele>285.17</ele>
        <time>2010-03-21T10:10:30Z</time>
      </trkpt>
      <trkpt lat="44.78661" lon="1.6339">
        <ele>288.05</ele>
        <time>2010-03-21T10:10:34Z</time>
      </trkpt>
      <trkpt lat="44.78661" lon="1.63385">
        <ele>286.13</ele>
        <time>2010-03-21T10:10:37Z</time>
      </trkpt>
      <trkpt lat="44.78665" lon="1.63371">
        <ele>287.09</ele>
        <time>2010-03-21T10:10:43Z</time>
      </trkpt>
      <trkpt lat="44.78672" lon="1.63346">
        <ele>287.57</ele>
        <time>2010-03-21T10:10:52Z</time>
      </trkpt>
      <trkpt lat="44.78673" lon="1.6334">
        <ele>286.61</ele>
        <time>2010-03-21T10:10:55Z</time>
      </trkpt>
      <trkpt lat="44.78686" lon="1.63319">
        <ele>288.53</ele>
        <time>2010-03-21T10:11:03Z</time>
      </trkpt>
      <trkpt lat="44.78694" lon="1.63306">
        <ele>285.17</ele>
        <time>2010-03-21T10:11:09Z</time>
      </trkpt>
      <trkpt lat="44.787" lon="1.63292">
        <ele>287.09</ele>
        <time>2010-03-21T10:11:16Z</time>
      </trkpt>
      <trkpt lat="44.78709" lon="1.63274">
        <ele>287.57</ele>
        <time>2010-03-21T10:11:25Z</time>
      </trkpt>
      <trkpt lat="44.78711" lon="1.63271">
        <ele>287.57</ele>
        <time>2010-03-21T10:11:26Z</time>
      </trkpt>
      <trkpt lat="44.78717" lon="1.63259">
        <ele>285.65</ele>
        <time>2010-03-21T10:11:34Z</time>
      </trkpt>
      <trkpt lat="44.78719" lon="1.63254">
        <ele>287.09</ele>
        <time>2010-03-21T10:11:37Z</time>
      </trkpt>
      <trkpt lat="44.78724" lon="1.63248">
        <ele>285.17</ele>
        <time>2010-03-21T10:11:40Z</time>
      </trkpt>
      <trkpt lat="44.7873" lon="1.63237">
        <ele>285.17</ele>
        <time>2010-03-21T10:11:47Z</time>
      </trkpt>
      <trkpt lat="44.78737" lon="1.63227">
        <ele>287.09</ele>
        <time>2010-03-21T10:11:55Z</time>
      </trkpt>
      <trkpt lat="44.78741" lon="1.63214">
        <ele>286.13</ele>
        <time>2010-03-21T10:12:03Z</time>
      </trkpt>
      <trkpt lat="44.78751" lon="1.63199">
        <ele>284.21</ele>
        <time>2010-03-21T10:12:13Z</time>
      </trkpt>
      <trkpt lat="44.78756" lon="1.63191">
        <ele>283.73</ele>
        <time>2010-03-21T10:12:18Z</time>
      </trkpt>
      <trkpt lat="44.78751" lon="1.63171">
        <ele>284.69</ele>
        <time>2010-03-21T10:12:24Z</time>
      </trkpt>
      <trkpt lat="44.78758" lon="1.63159">
        <ele>285.65</ele>
        <time>2010-03-21T10:12:33Z</time>
      </trkpt>
      <trkpt lat="44.78773" lon="1.63142">
        <ele>285.17</ele>
        <time>2010-03-21T10:12:46Z</time>
      </trkpt>
      <trkpt lat="44.78775" lon="1.6314">
        <ele>284.69</ele>
        <time>2010-03-21T10:12:48Z</time>
      </trkpt>
      <trkpt lat="44.78776" lon="1.63134">
        <ele>284.21</ele>
        <time>2010-03-21T10:12:52Z</time>
      </trkpt>
      <trkpt lat="44.78787" lon="1.63113">
        <ele>284.69</ele>
        <time>2010-03-21T10:13:04Z</time>
      </trkpt>
      <trkpt lat="44.78789" lon="1.63111">
        <ele>284.21</ele>
        <time>2010-03-21T10:13:05Z</time>
      </trkpt>
      <trkpt lat="44.78802" lon="1.63087">
        <ele>285.17</ele>
        <time>2010-03-21T10:13:18Z</time>
      </trkpt>
      <trkpt lat="44.78804" lon="1.63085">
        <ele>285.65</ele>
        <time>2010-03-21T10:13:20Z</time>
      </trkpt>
      <trkpt lat="44.78808" lon="1.63073">
        <ele>282.28</ele>
        <time>2010-03-21T10:13:26Z</time>
      </trkpt>
      <trkpt lat="44.7881" lon="1.63069">
        <ele>283.25</ele>
        <time>2010-03-21T10:13:28Z</time>
      </trkpt>
      <trkpt lat="44.78815" lon="1.63062">
        <ele>284.21</ele>
        <time>2010-03-21T10:13:35Z</time>
      </trkpt>
      <trkpt lat="44.78816" lon="1.63063">
        <ele>283.25</ele>
        <time>2010-03-21T10:13:37Z</time>
      </trkpt>
      <trkpt lat="44.78818" lon="1.63064">
        <ele>284.21</ele>
        <time>2010-03-21T10:13:39Z</time>
      </trkpt>
      <trkpt lat="44.78822" lon="1.63063">
        <ele>282.28</ele>
        <time>2010-03-21T10:13:42Z</time>
      </trkpt>
      <trkpt lat="44.78836" lon="1.63061">
        <ele>280.84</ele>
        <time>2010-03-21T10:13:52Z</time>
      </trkpt>
      <trkpt lat="44.7884" lon="1.6306">
        <ele>281.32</ele>
        <time>2010-03-21T10:13:54Z</time>
      </trkpt>
      <trkpt lat="44.78843" lon="1.63062">
        <ele>282.28</ele>
        <time>2010-03-21T10:13:56Z</time>
      </trkpt>
      <trkpt lat="44.78847" lon="1.63063">
        <ele>280.36</ele>
        <time>2010-03-21T10:14:00Z</time>
      </trkpt>
      <trkpt lat="44.7885" lon="1.63064">
        <ele>281.8</ele>
        <time>2010-03-21T10:14:02Z</time>
      </trkpt>
      <trkpt lat="44.78855" lon="1.63062">
        <ele>280.36</ele>
        <time>2010-03-21T10:14:05Z</time>
      </trkpt>
      <trkpt lat="44.7887" lon="1.63058">
        <ele>280.84</ele>
        <time>2010-03-21T10:14:13Z</time>
      </trkpt>
      <trkpt lat="44.78879" lon="1.63051">
        <ele>279.88</ele>
        <time>2010-03-21T10:14:21Z</time>
      </trkpt>
      <trkpt lat="44.78891" lon="1.63043">
        <ele>279.4</ele>
        <time>2010-03-21T10:14:29Z</time>
      </trkpt>
      <trkpt lat="44.78904" lon="1.63032">
        <ele>278.44</ele>
        <time>2010-03-21T10:14:37Z</time>
      </trkpt>
      <trkpt lat="44.78911" lon="1.63023">
        <ele>279.4</ele>
        <time>2010-03-21T10:14:42Z</time>
      </trkpt>
      <trkpt lat="44.78929" lon="1.63008">
        <ele>278.44</ele>
        <time>2010-03-21T10:14:52Z</time>
      </trkpt>
      <trkpt lat="44.78938" lon="1.62993">
        <ele>278.44</ele>
        <time>2010-03-21T10:15:00Z</time>
      </trkpt>
      <trkpt lat="44.78949" lon="1.6299">
        <ele>277.48</ele>
        <time>2010-03-21T10:15:08Z</time>
      </trkpt>
      <trkpt lat="44.78955" lon="1.62985">
        <ele>277.96</ele>
        <time>2010-03-21T10:15:14Z</time>
      </trkpt>
      <trkpt lat="44.78957" lon="1.62984">
        <ele>275.56</ele>
        <time>2010-03-21T10:15:15Z</time>
      </trkpt>
      <trkpt lat="44.78971" lon="1.6298">
        <ele>277</ele>
        <time>2010-03-21T10:15:22Z</time>
      </trkpt>
      <trkpt lat="44.78974" lon="1.62979">
        <ele>277.48</ele>
        <time>2010-03-21T10:15:23Z</time>
      </trkpt>
      <trkpt lat="44.78982" lon="1.62974">
        <ele>278.44</ele>
        <time>2010-03-21T10:15:28Z</time>
      </trkpt>
      <trkpt lat="44.7899" lon="1.62972">
        <ele>276.52</ele>
        <time>2010-03-21T10:15:34Z</time>
      </trkpt>
      <trkpt lat="44.78993" lon="1.62972">
        <ele>277</ele>
        <time>2010-03-21T10:15:36Z</time>
      </trkpt>
      <trkpt lat="44.78995" lon="1.62966">
        <ele>277.96</ele>
        <time>2010-03-21T10:15:40Z</time>
      </trkpt>
      <trkpt lat="44.79002" lon="1.62962">
        <ele>277.48</ele>
        <time>2010-03-21T10:15:46Z</time>
      </trkpt>
      <trkpt lat="44.79008" lon="1.62959">
        <ele>277.96</ele>
        <time>2010-03-21T10:15:50Z</time>
      </trkpt>
      <trkpt lat="44.79011" lon="1.62959">
        <ele>276.52</ele>
        <time>2010-03-21T10:15:52Z</time>
      </trkpt>
      <trkpt lat="44.79021" lon="1.62954">
        <ele>277.48</ele>
        <time>2010-03-21T10:15:57Z</time>
      </trkpt>
      <trkpt lat="44.79029" lon="1.62951">
        <ele>278.44</ele>
        <time>2010-03-21T10:16:05Z</time>
      </trkpt>
      <trkpt lat="44.79033" lon="1.62951">
        <ele>277</ele>
        <time>2010-03-21T10:16:10Z</time>
      </trkpt>
      <trkpt lat="44.79037" lon="1.62948">
        <ele>277.48</ele>
        <time>2010-03-21T10:16:14Z</time>
      </trkpt>
      <trkpt lat="44.79051" lon="1.62951">
        <ele>276.04</ele>
        <time>2010-03-21T10:16:19Z</time>
      </trkpt>
      <trkpt lat="44.79071" lon="1.62951">
        <ele>277</ele>
        <time>2010-03-21T10:16:28Z</time>
      </trkpt>
      <trkpt lat="44.79082" lon="1.62955">
        <ele>278.44</ele>
        <time>2010-03-21T10:16:39Z</time>
      </trkpt>
      <trkpt lat="44.79083" lon="1.62954">
        <ele>276.52</ele>
        <time>2010-03-21T10:16:42Z</time>
      </trkpt>
      <trkpt lat="44.79091" lon="1.62954">
        <ele>278.44</ele>
        <time>2010-03-21T10:16:47Z</time>
      </trkpt>
      <trkpt lat="44.7911" lon="1.62955">
        <ele>277.96</ele>
        <time>2010-03-21T10:16:56Z</time>
      </trkpt>
      <trkpt lat="44.79119" lon="1.62959">
        <ele>276.52</ele>
        <time>2010-03-21T10:17:04Z</time>
      </trkpt>
      <trkpt lat="44.79122" lon="1.6296">
        <ele>277.96</ele>
        <time>2010-03-21T10:17:06Z</time>
      </trkpt>
      <trkpt lat="44.79127" lon="1.62961">
        <ele>277.96</ele>
        <time>2010-03-21T10:17:09Z</time>
      </trkpt>
      <trkpt lat="44.79133" lon="1.62962">
        <ele>277.96</ele>
        <time>2010-03-21T10:17:13Z</time>
      </trkpt>
      <trkpt lat="44.79141" lon="1.62962">
        <ele>276.04</ele>
        <time>2010-03-21T10:17:20Z</time>
      </trkpt>
      <trkpt lat="44.79147" lon="1.62961">
        <ele>277.48</ele>
        <time>2010-03-21T10:17:23Z</time>
      </trkpt>
      <trkpt lat="44.79152" lon="1.62961">
        <ele>278.44</ele>
        <time>2010-03-21T10:17:25Z</time>
      </trkpt>
      <trkpt lat="44.79157" lon="1.62963">
        <ele>276.52</ele>
        <time>2010-03-21T10:17:28Z</time>
      </trkpt>
      <trkpt lat="44.79158" lon="1.62963">
        <ele>276.04</ele>
        <time>2010-03-21T10:17:30Z</time>
      </trkpt>
      <trkpt lat="44.79166" lon="1.6296">
        <ele>278.92</ele>
        <time>2010-03-21T10:17:37Z</time>
      </trkpt>
      <trkpt lat="44.79176" lon="1.62955">
        <ele>276.04</ele>
        <time>2010-03-21T10:17:40Z</time>
      </trkpt>
      <trkpt lat="44.79185" lon="1.6295">
        <ele>278.44</ele>
        <time>2010-03-21T10:17:46Z</time>
      </trkpt>
      <trkpt lat="44.79187" lon="1.62949">
        <ele>278.44</ele>
        <time>2010-03-21T10:17:47Z</time>
      </trkpt>
      <trkpt lat="44.79189" lon="1.62947">
        <ele>277.96</ele>
        <time>2010-03-21T10:17:50Z</time>
      </trkpt>
      <trkpt lat="44.79192" lon="1.62947">
        <ele>277.48</ele>
        <time>2010-03-21T10:17:53Z</time>
      </trkpt>
      <trkpt lat="44.79202" lon="1.62941">
        <ele>280.84</ele>
        <time>2010-03-21T10:18:00Z</time>
      </trkpt>
      <trkpt lat="44.79209" lon="1.62931">
        <ele>281.32</ele>
        <time>2010-03-21T10:18:06Z</time>
      </trkpt>
      <trkpt lat="44.79216" lon="1.62927">
        <ele>280.84</ele>
        <time>2010-03-21T10:18:12Z</time>
      </trkpt>
      <trkpt lat="44.79219" lon="1.62924">
        <ele>282.77</ele>
        <time>2010-03-21T10:18:15Z</time>
      </trkpt>
      <trkpt lat="44.79233" lon="1.62912">
        <ele>282.28</ele>
        <time>2010-03-21T10:18:24Z</time>
      </trkpt>
      <trkpt lat="44.79237" lon="1.62905">
        <ele>280.84</ele>
        <time>2010-03-21T10:18:30Z</time>
      </trkpt>
      <trkpt lat="44.79243" lon="1.62895">
        <ele>280.84</ele>
        <time>2010-03-21T10:18:36Z</time>
      </trkpt>
      <trkpt lat="44.79244" lon="1.62894">
        <ele>279.88</ele>
        <time>2010-03-21T10:18:37Z</time>
      </trkpt>
      <trkpt lat="44.79248" lon="1.6289">
        <ele>282.28</ele>
        <time>2010-03-21T10:18:41Z</time>
      </trkpt>
      <trkpt lat="44.7925" lon="1.62887">
        <ele>280.36</ele>
        <time>2010-03-21T10:18:44Z</time>
      </trkpt>
      <trkpt lat="44.7926" lon="1.62882">
        <ele>280.36</ele>
        <time>2010-03-21T10:18:53Z</time>
      </trkpt>
      <trkpt lat="44.79264" lon="1.62878">
        <ele>282.28</ele>
        <time>2010-03-21T10:18:57Z</time>
      </trkpt>
      <trkpt lat="44.79277" lon="1.62864">
        <ele>281.32</ele>
        <time>2010-03-21T10:19:07Z</time>
      </trkpt>
      <trkpt lat="44.79285" lon="1.62857">
        <ele>281.32</ele>
        <time>2010-03-21T10:19:14Z</time>
      </trkpt>
      <trkpt lat="44.79288" lon="1.62852">
        <ele>282.77</ele>
        <time>2010-03-21T10:19:18Z</time>
      </trkpt>
      <trkpt lat="44.79293" lon="1.62847">
        <ele>280.84</ele>
        <time>2010-03-21T10:19:23Z</time>
      </trkpt>
      <trkpt lat="44.79299" lon="1.62845">
        <ele>282.77</ele>
        <time>2010-03-21T10:19:27Z</time>
      </trkpt>
      <trkpt lat="44.79304" lon="1.62841">
        <ele>282.28</ele>
        <time>2010-03-21T10:19:31Z</time>
      </trkpt>
      <trkpt lat="44.7931" lon="1.62836">
        <ele>281.32</ele>
        <time>2010-03-21T10:19:35Z</time>
      </trkpt>
      <trkpt lat="44.79319" lon="1.62827">
        <ele>276.52</ele>
        <time>2010-03-21T10:19:47Z</time>
      </trkpt>
      <trkpt lat="44.7932" lon="1.62826">
        <ele>276.04</ele>
        <time>2010-03-21T10:19:48Z</time>
      </trkpt>
      <trkpt lat="44.79342" lon="1.62802">
        <ele>276.04</ele>
        <time>2010-03-21T10:20:04Z</time>
      </trkpt>
      <trkpt lat="44.79346" lon="1.62792">
        <ele>273.63</ele>
        <time>2010-03-21T10:20:09Z</time>
      </trkpt>
      <trkpt lat="44.79349" lon="1.62787">
        <ele>273.63</ele>
        <time>2010-03-21T10:20:13Z</time>
      </trkpt>
      <trkpt lat="44.79356" lon="1.62783">
        <ele>275.56</ele>
        <time>2010-03-21T10:20:16Z</time>
      </trkpt>
      <trkpt lat="44.79373" lon="1.62782">
        <ele>277.48</ele>
        <time>2010-03-21T10:20:26Z</time>
      </trkpt>
      <trkpt lat="44.79385" lon="1.62782">
        <ele>274.59</ele>
        <time>2010-03-21T10:20:37Z</time>
      </trkpt>
      <trkpt lat="44.7941" lon="1.6278">
        <ele>273.63</ele>
        <time>2010-03-21T10:20:53Z</time>
      </trkpt>
      <trkpt lat="44.79411" lon="1.62781">
        <ele>273.15</ele>
        <time>2010-03-21T10:20:54Z</time>
      </trkpt>
      <trkpt lat="44.79415" lon="1.62777">
        <ele>275.07</ele>
        <time>2010-03-21T10:20:59Z</time>
      </trkpt>
      <trkpt lat="44.79418" lon="1.62777">
        <ele>273.15</ele>
        <time>2010-03-21T10:21:01Z</time>
      </trkpt>
      <trkpt lat="44.79421" lon="1.62778">
        <ele>275.07</ele>
        <time>2010-03-21T10:21:04Z</time>
      </trkpt>
      <trkpt lat="44.79434" lon="1.62781">
        <ele>272.67</ele>
        <time>2010-03-21T10:21:12Z</time>
      </trkpt>
      <trkpt lat="44.79444" lon="1.62786">
        <ele>274.11</ele>
        <time>2010-03-21T10:21:16Z</time>
      </trkpt>
      <trkpt lat="44.79449" lon="1.62786">
        <ele>271.71</ele>
        <time>2010-03-21T10:21:19Z</time>
      </trkpt>
      <trkpt lat="44.79453" lon="1.62781">
        <ele>271.23</ele>
        <time>2010-03-21T10:21:24Z</time>
      </trkpt>
      <trkpt lat="44.79456" lon="1.62779">
        <ele>272.19</ele>
        <time>2010-03-21T10:21:28Z</time>
      </trkpt>
      <trkpt lat="44.79464" lon="1.62783">
        <ele>272.67</ele>
        <time>2010-03-21T10:21:33Z</time>
      </trkpt>
      <trkpt lat="44.79474" lon="1.62785">
        <ele>272.19</ele>
        <time>2010-03-21T10:21:37Z</time>
      </trkpt>
      <trkpt lat="44.7948" lon="1.62785">
        <ele>269.79</ele>
        <time>2010-03-21T10:21:40Z</time>
      </trkpt>
      <trkpt lat="44.79485" lon="1.6278">
        <ele>271.71</ele>
        <time>2010-03-21T10:21:44Z</time>
      </trkpt>
      <trkpt lat="44.79498" lon="1.62782">
        <ele>268.83</ele>
        <time>2010-03-21T10:21:50Z</time>
      </trkpt>
      <trkpt lat="44.79512" lon="1.62784">
        <ele>270.27</ele>
        <time>2010-03-21T10:21:59Z</time>
      </trkpt>
      <trkpt lat="44.79514" lon="1.62784">
        <ele>270.27</ele>
        <time>2010-03-21T10:22:00Z</time>
      </trkpt>
      <trkpt lat="44.79516" lon="1.62783">
        <ele>267.86</ele>
        <time>2010-03-21T10:22:02Z</time>
      </trkpt>
      <trkpt lat="44.79519" lon="1.62784">
        <ele>268.35</ele>
        <time>2010-03-21T10:22:03Z</time>
      </trkpt>
      <trkpt lat="44.79522" lon="1.62782">
        <ele>269.31</ele>
        <time>2010-03-21T10:22:05Z</time>
      </trkpt>
      <trkpt lat="44.79526" lon="1.62783">
        <ele>267.86</ele>
        <time>2010-03-21T10:22:08Z</time>
      </trkpt>
      <trkpt lat="44.79527" lon="1.62782">
        <ele>267.86</ele>
        <time>2010-03-21T10:22:10Z</time>
      </trkpt>
      <trkpt lat="44.79529" lon="1.62784">
        <ele>269.31</ele>
        <time>2010-03-21T10:22:12Z</time>
      </trkpt>
      <trkpt lat="44.7953" lon="1.62786">
        <ele>269.79</ele>
        <time>2010-03-21T10:22:13Z</time>
      </trkpt>
      <trkpt lat="44.79536" lon="1.62788">
        <ele>268.35</ele>
        <time>2010-03-21T10:22:16Z</time>
      </trkpt>
      <trkpt lat="44.79538" lon="1.62792">
        <ele>267.38</ele>
        <time>2010-03-21T10:22:18Z</time>
      </trkpt>
      <trkpt lat="44.79545" lon="1.62793">
        <ele>269.31</ele>
        <time>2010-03-21T10:22:21Z</time>
      </trkpt>
      <trkpt lat="44.79554" lon="1.62795">
        <ele>269.31</ele>
        <time>2010-03-21T10:22:26Z</time>
      </trkpt>
      <trkpt lat="44.79557" lon="1.62791">
        <ele>267.38</ele>
        <time>2010-03-21T10:22:31Z</time>
      </trkpt>
      <trkpt lat="44.79569" lon="1.62786">
        <ele>267.38</ele>
        <time>2010-03-21T10:22:40Z</time>
      </trkpt>
      <trkpt lat="44.79574" lon="1.62785">
        <ele>266.9</ele>
        <time>2010-03-21T10:22:44Z</time>
      </trkpt>
      <trkpt lat="44.7958" lon="1.62786">
        <ele>266.42</ele>
        <time>2010-03-21T10:22:49Z</time>
      </trkpt>
      <trkpt lat="44.79586" lon="1.62786">
        <ele>265.94</ele>
        <time>2010-03-21T10:22:54Z</time>
      </trkpt>
      <trkpt lat="44.79595" lon="1.62784">
        <ele>267.86</ele>
        <time>2010-03-21T10:23:02Z</time>
      </trkpt>
      <trkpt lat="44.79604" lon="1.62784">
        <ele>268.35</ele>
        <time>2010-03-21T10:23:06Z</time>
      </trkpt>
      <trkpt lat="44.79606" lon="1.62785">
        <ele>266.42</ele>
        <time>2010-03-21T10:23:08Z</time>
      </trkpt>
      <trkpt lat="44.79614" lon="1.62788">
        <ele>267.86</ele>
        <time>2010-03-21T10:23:14Z</time>
      </trkpt>
      <trkpt lat="44.79617" lon="1.62788">
        <ele>265.94</ele>
        <time>2010-03-21T10:23:16Z</time>
      </trkpt>
      <trkpt lat="44.79622" lon="1.62789">
        <ele>267.86</ele>
        <time>2010-03-21T10:23:19Z</time>
      </trkpt>
      <trkpt lat="44.79627" lon="1.62789">
        <ele>267.86</ele>
        <time>2010-03-21T10:23:22Z</time>
      </trkpt>
      <trkpt lat="44.79632" lon="1.62786">
        <ele>267.86</ele>
        <time>2010-03-21T10:23:26Z</time>
      </trkpt>
      <trkpt lat="44.79639" lon="1.62783">
        <ele>264.98</ele>
        <time>2010-03-21T10:23:31Z</time>
      </trkpt>
      <trkpt lat="44.79641" lon="1.62781">
        <ele>267.38</ele>
        <time>2010-03-21T10:23:34Z</time>
      </trkpt>
      <trkpt lat="44.7965" lon="1.62783">
        <ele>266.42</ele>
        <time>2010-03-21T10:23:39Z</time>
      </trkpt>
      <trkpt lat="44.7966" lon="1.62781">
        <ele>264.5</ele>
        <time>2010-03-21T10:23:45Z</time>
      </trkpt>
      <trkpt lat="44.79663" lon="1.62779">
        <ele>266.42</ele>
        <time>2010-03-21T10:23:47Z</time>
      </trkpt>
      <trkpt lat="44.79666" lon="1.62778">
        <ele>265.94</ele>
        <time>2010-03-21T10:23:50Z</time>
      </trkpt>
      <trkpt lat="44.79668" lon="1.62778">
        <ele>264.5</ele>
        <time>2010-03-21T10:23:52Z</time>
      </trkpt>
      <trkpt lat="44.79682" lon="1.6277">
        <ele>264.02</ele>
        <time>2010-03-21T10:24:02Z</time>
      </trkpt>
      <trkpt lat="44.79686" lon="1.62767">
        <ele>264.98</ele>
        <time>2010-03-21T10:24:05Z</time>
      </trkpt>
      <trkpt lat="44.79689" lon="1.62767">
        <ele>262.58</ele>
        <time>2010-03-21T10:24:07Z</time>
      </trkpt>
      <trkpt lat="44.79693" lon="1.62767">
        <ele>264.5</ele>
        <time>2010-03-21T10:24:10Z</time>
      </trkpt>
      <trkpt lat="44.797" lon="1.62764">
        <ele>262.1</ele>
        <time>2010-03-21T10:24:14Z</time>
      </trkpt>
      <trkpt lat="44.79703" lon="1.62764">
        <ele>263.06</ele>
        <time>2010-03-21T10:24:16Z</time>
      </trkpt>
      <trkpt lat="44.79704" lon="1.62764">
        <ele>261.62</ele>
        <time>2010-03-21T10:24:17Z</time>
      </trkpt>
      <trkpt lat="44.79712" lon="1.62767">
        <ele>262.58</ele>
        <time>2010-03-21T10:24:21Z</time>
      </trkpt>
      <trkpt lat="44.79722" lon="1.62764">
        <ele>260.65</ele>
        <time>2010-03-21T10:24:26Z</time>
      </trkpt>
      <trkpt lat="44.79725" lon="1.62765">
        <ele>262.1</ele>
        <time>2010-03-21T10:24:28Z</time>
      </trkpt>
      <trkpt lat="44.79726" lon="1.62766">
        <ele>261.62</ele>
        <time>2010-03-21T10:24:29Z</time>
      </trkpt>
      <trkpt lat="44.7973" lon="1.62767">
        <ele>261.62</ele>
        <time>2010-03-21T10:24:34Z</time>
      </trkpt>
      <trkpt lat="44.79733" lon="1.62768">
        <ele>259.21</ele>
        <time>2010-03-21T10:24:38Z</time>
      </trkpt>
      <trkpt lat="44.79741" lon="1.62767">
        <ele>257.77</ele>
        <time>2010-03-21T10:24:42Z</time>
      </trkpt>
      <trkpt lat="44.79744" lon="1.62767">
        <ele>259.21</ele>
        <time>2010-03-21T10:24:45Z</time>
      </trkpt>
      <trkpt lat="44.79746" lon="1.62767">
        <ele>256.81</ele>
        <time>2010-03-21T10:24:47Z</time>
      </trkpt>
      <trkpt lat="44.79754" lon="1.62772">
        <ele>255.85</ele>
        <time>2010-03-21T10:24:57Z</time>
      </trkpt>
      <trkpt lat="44.7976" lon="1.62772">
        <ele>257.29</ele>
        <time>2010-03-21T10:25:00Z</time>
      </trkpt>
      <trkpt lat="44.79766" lon="1.62773">
        <ele>254.41</ele>
        <time>2010-03-21T10:25:04Z</time>
      </trkpt>
      <trkpt lat="44.79775" lon="1.62774">
        <ele>253.93</ele>
        <time>2010-03-21T10:25:10Z</time>
      </trkpt>
      <trkpt lat="44.79778" lon="1.62772">
        <ele>253.44</ele>
        <time>2010-03-21T10:25:13Z</time>
      </trkpt>
      <trkpt lat="44.79779" lon="1.62769">
        <ele>252</ele>
        <time>2010-03-21T10:25:17Z</time>
      </trkpt>
      <trkpt lat="44.79792" lon="1.62765">
        <ele>251.52</ele>
        <time>2010-03-21T10:25:30Z</time>
      </trkpt>
      <trkpt lat="44.79795" lon="1.6276">
        <ele>250.08</ele>
        <time>2010-03-21T10:25:33Z</time>
      </trkpt>
      <trkpt lat="44.79802" lon="1.62762">
        <ele>250.08</ele>
        <time>2010-03-21T10:25:36Z</time>
      </trkpt>
      <trkpt lat="44.79814" lon="1.62766">
        <ele>251.04</ele>
        <time>2010-03-21T10:25:42Z</time>
      </trkpt>
      <trkpt lat="44.79816" lon="1.62769">
        <ele>250.08</ele>
        <time>2010-03-21T10:25:44Z</time>
      </trkpt>
      <trkpt lat="44.7982" lon="1.62775">
        <ele>249.12</ele>
        <time>2010-03-21T10:25:49Z</time>
      </trkpt>
      <trkpt lat="44.79821" lon="1.62777">
        <ele>248.16</ele>
        <time>2010-03-21T10:25:51Z</time>
      </trkpt>
      <trkpt lat="44.79825" lon="1.62788">
        <ele>246.23</ele>
        <time>2010-03-21T10:25:58Z</time>
      </trkpt>
      <trkpt lat="44.79826" lon="1.62802">
        <ele>242.39</ele>
        <time>2010-03-21T10:26:09Z</time>
      </trkpt>
      <trkpt lat="44.79827" lon="1.62804">
        <ele>243.83</ele>
        <time>2010-03-21T10:26:10Z</time>
      </trkpt>
      <trkpt lat="44.79839" lon="1.62809">
        <ele>240.47</ele>
        <time>2010-03-21T10:26:20Z</time>
      </trkpt>
      <trkpt lat="44.7984" lon="1.62808">
        <ele>240.95</ele>
        <time>2010-03-21T10:26:21Z</time>
      </trkpt>
      <trkpt lat="44.79851" lon="1.62796">
        <ele>237.58</ele>
        <time>2010-03-21T10:26:33Z</time>
      </trkpt>
      <trkpt lat="44.79853" lon="1.62787">
        <ele>236.14</ele>
        <time>2010-03-21T10:26:41Z</time>
      </trkpt>
      <trkpt lat="44.79855" lon="1.62787">
        <ele>236.14</ele>
        <time>2010-03-21T10:26:42Z</time>
      </trkpt>
      <trkpt lat="44.79856" lon="1.62786">
        <ele>235.66</ele>
        <time>2010-03-21T10:26:43Z</time>
      </trkpt>
      <trkpt lat="44.79858" lon="1.62779">
        <ele>235.66</ele>
        <time>2010-03-21T10:26:49Z</time>
      </trkpt>
      <trkpt lat="44.79864" lon="1.6277">
        <ele>234.22</ele>
        <time>2010-03-21T10:26:56Z</time>
      </trkpt>
      <trkpt lat="44.79866" lon="1.62763">
        <ele>233.74</ele>
        <time>2010-03-21T10:27:02Z</time>
      </trkpt>
      <trkpt lat="44.79865" lon="1.6276">
        <ele>233.26</ele>
        <time>2010-03-21T10:27:03Z</time>
      </trkpt>
      <trkpt lat="44.79862" lon="1.62754">
        <ele>229.89</ele>
        <time>2010-03-21T10:27:09Z</time>
      </trkpt>
      <trkpt lat="44.79855" lon="1.62747">
        <ele>227.97</ele>
        <time>2010-03-21T10:27:14Z</time>
      </trkpt>
      <trkpt lat="44.79854" lon="1.62743">
        <ele>229.89</ele>
        <time>2010-03-21T10:27:17Z</time>
      </trkpt>
      <trkpt lat="44.79852" lon="1.62732">
        <ele>226.53</ele>
        <time>2010-03-21T10:27:23Z</time>
      </trkpt>
      <trkpt lat="44.79854" lon="1.62715">
        <ele>227.01</ele>
        <time>2010-03-21T10:27:32Z</time>
      </trkpt>
      <trkpt lat="44.79854" lon="1.62711">
        <ele>223.64</ele>
        <time>2010-03-21T10:27:36Z</time>
      </trkpt>
      <trkpt lat="44.79854" lon="1.6271">
        <ele>223.64</ele>
        <time>2010-03-21T10:27:37Z</time>
      </trkpt>
      <trkpt lat="44.79857" lon="1.62709">
        <ele>225.09</ele>
        <time>2010-03-21T10:27:41Z</time>
      </trkpt>
      <trkpt lat="44.79856" lon="1.62703">
        <ele>223.64</ele>
        <time>2010-03-21T10:27:44Z</time>
      </trkpt>
      <trkpt lat="44.79858" lon="1.62703">
        <ele>222.2</ele>
        <time>2010-03-21T10:27:46Z</time>
      </trkpt>
      <trkpt lat="44.79868" lon="1.62695">
        <ele>220.76</ele>
        <time>2010-03-21T10:27:55Z</time>
      </trkpt>
      <trkpt lat="44.79869" lon="1.62694">
        <ele>220.28</ele>
        <time>2010-03-21T10:27:56Z</time>
      </trkpt>
      <trkpt lat="44.79876" lon="1.6269">
        <ele>220.76</ele>
        <time>2010-03-21T10:28:00Z</time>
      </trkpt>
      <trkpt lat="44.79876" lon="1.62681">
        <ele>217.88</ele>
        <time>2010-03-21T10:28:06Z</time>
      </trkpt>
      <trkpt lat="44.79878" lon="1.62679">
        <ele>218.84</ele>
        <time>2010-03-21T10:28:09Z</time>
      </trkpt>
      <trkpt lat="44.79886" lon="1.62676">
        <ele>215.95</ele>
        <time>2010-03-21T10:28:17Z</time>
      </trkpt>
      <trkpt lat="44.79888" lon="1.62675">
        <ele>217.4</ele>
        <time>2010-03-21T10:28:20Z</time>
      </trkpt>
      <trkpt lat="44.7989" lon="1.62672">
        <ele>217.4</ele>
        <time>2010-03-21T10:28:22Z</time>
      </trkpt>
      <trkpt lat="44.79895" lon="1.6267">
        <ele>214.51</ele>
        <time>2010-03-21T10:28:24Z</time>
      </trkpt>
      <trkpt lat="44.79906" lon="1.62656">
        <ele>211.63</ele>
        <time>2010-03-21T10:28:37Z</time>
      </trkpt>
      <trkpt lat="44.79906" lon="1.62642">
        <ele>209.7</ele>
        <time>2010-03-21T10:28:45Z</time>
      </trkpt>
      <trkpt lat="44.79907" lon="1.62643">
        <ele>209.7</ele>
        <time>2010-03-21T10:28:46Z</time>
      </trkpt>
      <trkpt lat="44.79905" lon="1.62643">
        <ele>211.63</ele>
        <time>2010-03-21T10:28:50Z</time>
      </trkpt>
      <trkpt lat="44.79904" lon="1.6264">
        <ele>209.7</ele>
        <time>2010-03-21T10:28:52Z</time>
      </trkpt>
      <trkpt lat="44.79906" lon="1.62635">
        <ele>208.74</ele>
        <time>2010-03-21T10:28:58Z</time>
      </trkpt>
      <trkpt lat="44.79914" lon="1.62628">
        <ele>207.78</ele>
        <time>2010-03-21T10:29:07Z</time>
      </trkpt>
      <trkpt lat="44.79919" lon="1.62626">
        <ele>205.86</ele>
        <time>2010-03-21T10:29:09Z</time>
      </trkpt>
      <trkpt lat="44.79924" lon="1.62621">
        <ele>204.9</ele>
        <time>2010-03-21T10:29:16Z</time>
      </trkpt>
      <trkpt lat="44.79926" lon="1.62619">
        <ele>206.34</ele>
        <time>2010-03-21T10:29:18Z</time>
      </trkpt>
      <trkpt lat="44.7993" lon="1.62618">
        <ele>204.42</ele>
        <time>2010-03-21T10:29:20Z</time>
      </trkpt>
      <trkpt lat="44.79929" lon="1.62611">
        <ele>202.98</ele>
        <time>2010-03-21T10:29:24Z</time>
      </trkpt>
      <trkpt lat="44.79928" lon="1.62608">
        <ele>204.9</ele>
        <time>2010-03-21T10:29:27Z</time>
      </trkpt>
      <trkpt lat="44.79939" lon="1.62606">
        <ele>202.49</ele>
        <time>2010-03-21T10:29:34Z</time>
      </trkpt>
      <trkpt lat="44.79941" lon="1.62607">
        <ele>201.05</ele>
        <time>2010-03-21T10:29:36Z</time>
      </trkpt>
      <trkpt lat="44.79942" lon="1.62603">
        <ele>199.61</ele>
        <time>2010-03-21T10:29:40Z</time>
      </trkpt>
      <trkpt lat="44.7994" lon="1.626">
        <ele>199.13</ele>
        <time>2010-03-21T10:29:42Z</time>
      </trkpt>
      <trkpt lat="44.7994" lon="1.62593">
        <ele>200.09</ele>
        <time>2010-03-21T10:29:49Z</time>
      </trkpt>
      <trkpt lat="44.79943" lon="1.62589">
        <ele>199.13</ele>
        <time>2010-03-21T10:29:51Z</time>
      </trkpt>
      <trkpt lat="44.79953" lon="1.62582">
        <ele>196.25</ele>
        <time>2010-03-21T10:29:59Z</time>
      </trkpt>
      <trkpt lat="44.79953" lon="1.62581">
        <ele>196.25</ele>
        <time>2010-03-21T10:30:00Z</time>
      </trkpt>
      <trkpt lat="44.79957" lon="1.62579">
        <ele>198.17</ele>
        <time>2010-03-21T10:30:02Z</time>
      </trkpt>
      <trkpt lat="44.79961" lon="1.62576">
        <ele>197.69</ele>
        <time>2010-03-21T10:30:05Z</time>
      </trkpt>
      <trkpt lat="44.79973" lon="1.62568">
        <ele>194.8</ele>
        <time>2010-03-21T10:30:14Z</time>
      </trkpt>
      <trkpt lat="44.79974" lon="1.62566">
        <ele>192.88</ele>
        <time>2010-03-21T10:30:16Z</time>
      </trkpt>
      <trkpt lat="44.79978" lon="1.6256">
        <ele>194.32</ele>
        <time>2010-03-21T10:30:22Z</time>
      </trkpt>
      <trkpt lat="44.79978" lon="1.62556">
        <ele>190.96</ele>
        <time>2010-03-21T10:30:28Z</time>
      </trkpt>
      <trkpt lat="44.79984" lon="1.62554">
        <ele>190.96</ele>
        <time>2010-03-21T10:30:35Z</time>
      </trkpt>
      <trkpt lat="44.79991" lon="1.62543">
        <ele>189.04</ele>
        <time>2010-03-21T10:30:48Z</time>
      </trkpt>
      <trkpt lat="44.79992" lon="1.6254">
        <ele>188.56</ele>
        <time>2010-03-21T10:30:50Z</time>
      </trkpt>
      <trkpt lat="44.79995" lon="1.62532">
        <ele>187.11</ele>
        <time>2010-03-21T10:30:55Z</time>
      </trkpt>
      <trkpt lat="44.79999" lon="1.62525">
        <ele>183.27</ele>
        <time>2010-03-21T10:31:04Z</time>
      </trkpt>
      <trkpt lat="44.8" lon="1.62524">
        <ele>183.27</ele>
        <time>2010-03-21T10:31:05Z</time>
      </trkpt>
      <trkpt lat="44.80003" lon="1.6252">
        <ele>184.23</ele>
        <time>2010-03-21T10:31:11Z</time>
      </trkpt>
      <trkpt lat="44.80009" lon="1.62517">
        <ele>181.83</ele>
        <time>2010-03-21T10:31:20Z</time>
      </trkpt>
      <trkpt lat="44.80013" lon="1.62515">
        <ele>180.38</ele>
        <time>2010-03-21T10:31:24Z</time>
      </trkpt>
      <trkpt lat="44.80018" lon="1.62508">
        <ele>176.54</ele>
        <time>2010-03-21T10:31:30Z</time>
      </trkpt>
      <trkpt lat="44.80019" lon="1.62498">
        <ele>175.1</ele>
        <time>2010-03-21T10:31:43Z</time>
      </trkpt>
      <trkpt lat="44.8002" lon="1.62495">
        <ele>174.14</ele>
        <time>2010-03-21T10:31:45Z</time>
      </trkpt>
      <trkpt lat="44.80031" lon="1.62492">
        <ele>172.69</ele>
        <time>2010-03-21T10:31:51Z</time>
      </trkpt>
      <trkpt lat="44.80036" lon="1.62489">
        <ele>172.21</ele>
        <time>2010-03-21T10:31:58Z</time>
      </trkpt>
      <trkpt lat="44.80039" lon="1.62488">
        <ele>171.25</ele>
        <time>2010-03-21T10:32:01Z</time>
      </trkpt>
      <trkpt lat="44.80043" lon="1.62487">
        <ele>170.29</ele>
        <time>2010-03-21T10:32:03Z</time>
      </trkpt>
      <trkpt lat="44.80047" lon="1.62487">
        <ele>170.29</ele>
        <time>2010-03-21T10:32:04Z</time>
      </trkpt>
      <trkpt lat="44.80053" lon="1.62486">
        <ele>171.25</ele>
        <time>2010-03-21T10:32:08Z</time>
      </trkpt>
      <trkpt lat="44.80057" lon="1.62484">
        <ele>168.85</ele>
        <time>2010-03-21T10:32:11Z</time>
      </trkpt>
      <trkpt lat="44.80056" lon="1.62485">
        <ele>168.85</ele>
        <time>2010-03-21T10:32:12Z</time>
      </trkpt>
      <trkpt lat="44.80054" lon="1.62482">
        <ele>170.77</ele>
        <time>2010-03-21T10:32:17Z</time>
      </trkpt>
      <trkpt lat="44.80055" lon="1.62479">
        <ele>169.33</ele>
        <time>2010-03-21T10:32:22Z</time>
      </trkpt>
      <trkpt lat="44.8006" lon="1.62475">
        <ele>165.96</ele>
        <time>2010-03-21T10:32:27Z</time>
      </trkpt>
      <trkpt lat="44.80059" lon="1.62472">
        <ele>166.93</ele>
        <time>2010-03-21T10:32:28Z</time>
      </trkpt>
      <trkpt lat="44.80063" lon="1.62474">
        <ele>167.89</ele>
        <time>2010-03-21T10:32:30Z</time>
      </trkpt>
      <trkpt lat="44.80065" lon="1.62474">
        <ele>167.41</ele>
        <time>2010-03-21T10:32:31Z</time>
      </trkpt>
      <trkpt lat="44.80068" lon="1.6247">
        <ele>164.52</ele>
        <time>2010-03-21T10:32:35Z</time>
      </trkpt>
      <trkpt lat="44.80069" lon="1.62469">
        <ele>164.04</ele>
        <time>2010-03-21T10:32:43Z</time>
      </trkpt>
      <trkpt lat="44.80067" lon="1.62467">
        <ele>165.96</ele>
        <time>2010-03-21T10:32:46Z</time>
      </trkpt>
      <trkpt lat="44.80066" lon="1.62467">
        <ele>164.04</ele>
        <time>2010-03-21T10:32:49Z</time>
      </trkpt>
      <trkpt lat="44.80064" lon="1.62469">
        <ele>166.45</ele>
        <time>2010-03-21T10:32:52Z</time>
      </trkpt>
      <trkpt lat="44.80064" lon="1.62466">
        <ele>167.41</ele>
        <time>2010-03-21T10:32:54Z</time>
      </trkpt>
      <trkpt lat="44.80063" lon="1.62456">
        <ele>168.85</ele>
        <time>2010-03-21T10:33:00Z</time>
      </trkpt>
      <trkpt lat="44.80065" lon="1.6245">
        <ele>169.81</ele>
        <time>2010-03-21T10:33:09Z</time>
      </trkpt>
      <trkpt lat="44.80063" lon="1.62441">
        <ele>171.73</ele>
        <time>2010-03-21T10:33:15Z</time>
      </trkpt>
      <trkpt lat="44.80063" lon="1.62442">
        <ele>170.77</ele>
        <time>2010-03-21T10:33:24Z</time>
      </trkpt>
      <trkpt lat="44.80064" lon="1.62455">
        <ele>166.93</ele>
        <time>2010-03-21T10:33:34Z</time>
      </trkpt>
      <trkpt lat="44.80067" lon="1.62469">
        <ele>163.56</ele>
        <time>2010-03-21T10:33:42Z</time>
      </trkpt>
      <trkpt lat="44.80072" lon="1.62461">
        <ele>163.56</ele>
        <time>2010-03-21T10:33:50Z</time>
      </trkpt>
      <trkpt lat="44.80075" lon="1.62459">
        <ele>161.16</ele>
        <time>2010-03-21T10:33:52Z</time>
      </trkpt>
      <trkpt lat="44.80082" lon="1.62445">
        <ele>159.24</ele>
        <time>2010-03-21T10:34:02Z</time>
      </trkpt>
      <trkpt lat="44.80085" lon="1.62441">
        <ele>161.16</ele>
        <time>2010-03-21T10:34:05Z</time>
      </trkpt>
      <trkpt lat="44.80087" lon="1.62435">
        <ele>160.68</ele>
        <time>2010-03-21T10:34:08Z</time>
      </trkpt>
      <trkpt lat="44.80092" lon="1.62431">
        <ele>158.27</ele>
        <time>2010-03-21T10:34:12Z</time>
      </trkpt>
      <trkpt lat="44.80096" lon="1.62426">
        <ele>159.24</ele>
        <time>2010-03-21T10:34:15Z</time>
      </trkpt>
      <trkpt lat="44.80101" lon="1.62422">
        <ele>158.75</ele>
        <time>2010-03-21T10:34:19Z</time>
      </trkpt>
      <trkpt lat="44.80101" lon="1.6241">
        <ele>156.35</ele>
        <time>2010-03-21T10:34:28Z</time>
      </trkpt>
      <trkpt lat="44.80103" lon="1.62409">
        <ele>155.87</ele>
        <time>2010-03-21T10:34:30Z</time>
      </trkpt>
      <trkpt lat="44.80108" lon="1.624">
        <ele>156.35</ele>
        <time>2010-03-21T10:34:38Z</time>
      </trkpt>
      <trkpt lat="44.80113" lon="1.62387">
        <ele>152.99</ele>
        <time>2010-03-21T10:34:46Z</time>
      </trkpt>
      <trkpt lat="44.80114" lon="1.62383">
        <ele>152.03</ele>
        <time>2010-03-21T10:34:48Z</time>
      </trkpt>
      <trkpt lat="44.80122" lon="1.62376">
        <ele>152.99</ele>
        <time>2010-03-21T10:34:55Z</time>
      </trkpt>
      <trkpt lat="44.80122" lon="1.62372">
        <ele>151.06</ele>
        <time>2010-03-21T10:34:58Z</time>
      </trkpt>
      <trkpt lat="44.80122" lon="1.62369">
        <ele>150.58</ele>
        <time>2010-03-21T10:34:59Z</time>
      </trkpt>
      <trkpt lat="44.80123" lon="1.6237">
        <ele>151.06</ele>
        <time>2010-03-21T10:35:01Z</time>
      </trkpt>
      <trkpt lat="44.80129" lon="1.62357">
        <ele>148.18</ele>
        <time>2010-03-21T10:35:09Z</time>
      </trkpt>
      <trkpt lat="44.80132" lon="1.62344">
        <ele>148.66</ele>
        <time>2010-03-21T10:35:15Z</time>
      </trkpt>
      <trkpt lat="44.80136" lon="1.62333">
        <ele>145.78</ele>
        <time>2010-03-21T10:35:23Z</time>
      </trkpt>
      <trkpt lat="44.80138" lon="1.62331">
        <ele>144.34</ele>
        <time>2010-03-21T10:35:25Z</time>
      </trkpt>
      <trkpt lat="44.8014" lon="1.62322">
        <ele>143.37</ele>
        <time>2010-03-21T10:35:32Z</time>
      </trkpt>
      <trkpt lat="44.80143" lon="1.62316">
        <ele>142.89</ele>
        <time>2010-03-21T10:35:36Z</time>
      </trkpt>
      <trkpt lat="44.80143" lon="1.62308">
        <ele>140.97</ele>
        <time>2010-03-21T10:35:42Z</time>
      </trkpt>
      <trkpt lat="44.80145" lon="1.62305">
        <ele>140.01</ele>
        <time>2010-03-21T10:35:44Z</time>
      </trkpt>
      <trkpt lat="44.80145" lon="1.62298">
        <ele>138.09</ele>
        <time>2010-03-21T10:35:52Z</time>
      </trkpt>
      <trkpt lat="44.80146" lon="1.62294">
        <ele>139.05</ele>
        <time>2010-03-21T10:35:56Z</time>
      </trkpt>
      <trkpt lat="44.80149" lon="1.62292">
        <ele>136.16</ele>
        <time>2010-03-21T10:36:01Z</time>
      </trkpt>
      <trkpt lat="44.80152" lon="1.62268">
        <ele>133.28</ele>
        <time>2010-03-21T10:36:16Z</time>
      </trkpt>
      <trkpt lat="44.80161" lon="1.62254">
        <ele>132.8</ele>
        <time>2010-03-21T10:36:28Z</time>
      </trkpt>
      <trkpt lat="44.80163" lon="1.62254">
        <ele>131.36</ele>
        <time>2010-03-21T10:36:29Z</time>
      </trkpt>
      <trkpt lat="44.80169" lon="1.6226">
        <ele>131.36</ele>
        <time>2010-03-21T10:36:38Z</time>
      </trkpt>
      <trkpt lat="44.80171" lon="1.6226">
        <ele>131.36</ele>
        <time>2010-03-21T10:36:39Z</time>
      </trkpt>
      <trkpt lat="44.80185" lon="1.62243">
        <ele>131.84</ele>
        <time>2010-03-21T10:36:49Z</time>
      </trkpt>
      <trkpt lat="44.80197" lon="1.62239">
        <ele>130.88</ele>
        <time>2010-03-21T10:36:58Z</time>
      </trkpt>
      <trkpt lat="44.80198" lon="1.62238">
        <ele>130.4</ele>
        <time>2010-03-21T10:36:59Z</time>
      </trkpt>
      <trkpt lat="44.80203" lon="1.62232">
        <ele>129.92</ele>
        <time>2010-03-21T10:37:03Z</time>
      </trkpt>
      <trkpt lat="44.80207" lon="1.62223">
        <ele>130.4</ele>
        <time>2010-03-21T10:37:13Z</time>
      </trkpt>
      <trkpt lat="44.80216" lon="1.62214">
        <ele>130.4</ele>
        <time>2010-03-21T10:37:20Z</time>
      </trkpt>
      <trkpt lat="44.80219" lon="1.62202">
        <ele>130.88</ele>
        <time>2010-03-21T10:37:26Z</time>
      </trkpt>
      <trkpt lat="44.80219" lon="1.62195">
        <ele>130.4</ele>
        <time>2010-03-21T10:37:31Z</time>
      </trkpt>
      <trkpt lat="44.80208" lon="1.62171">
        <ele>130.88</ele>
        <time>2010-03-21T10:37:45Z</time>
      </trkpt>
      <trkpt lat="44.80205" lon="1.62165">
        <ele>131.36</ele>
        <time>2010-03-21T10:37:49Z</time>
      </trkpt>
      <trkpt lat="44.80203" lon="1.62163">
        <ele>130.88</ele>
        <time>2010-03-21T10:37:51Z</time>
      </trkpt>
      <trkpt lat="44.80202" lon="1.62156">
        <ele>133.76</ele>
        <time>2010-03-21T10:37:55Z</time>
      </trkpt>
      <trkpt lat="44.80199" lon="1.62144">
        <ele>133.28</ele>
        <time>2010-03-21T10:38:03Z</time>
      </trkpt>
      <trkpt lat="44.80198" lon="1.62142">
        <ele>132.32</ele>
        <time>2010-03-21T10:38:04Z</time>
      </trkpt>
      <trkpt lat="44.80197" lon="1.62134">
        <ele>134.72</ele>
        <time>2010-03-21T10:38:08Z</time>
      </trkpt>
      <trkpt lat="44.80195" lon="1.62129">
        <ele>135.2</ele>
        <time>2010-03-21T10:38:12Z</time>
      </trkpt>
      <trkpt lat="44.80193" lon="1.62124">
        <ele>134.72</ele>
        <time>2010-03-21T10:38:15Z</time>
      </trkpt>
      <trkpt lat="44.80189" lon="1.62118">
        <ele>137.13</ele>
        <time>2010-03-21T10:38:23Z</time>
      </trkpt>
      <trkpt lat="44.80188" lon="1.62114">
        <ele>138.09</ele>
        <time>2010-03-21T10:38:26Z</time>
      </trkpt>
      <trkpt lat="44.80188" lon="1.62106">
        <ele>140.97</ele>
        <time>2010-03-21T10:38:32Z</time>
      </trkpt>
      <trkpt lat="44.80185" lon="1.62094">
        <ele>141.93</ele>
        <time>2010-03-21T10:38:44Z</time>
      </trkpt>
      <trkpt lat="44.80183" lon="1.62087">
        <ele>141.45</ele>
        <time>2010-03-21T10:38:50Z</time>
      </trkpt>
      <trkpt lat="44.80181" lon="1.6208">
        <ele>144.34</ele>
        <time>2010-03-21T10:38:56Z</time>
      </trkpt>
      <trkpt lat="44.8018" lon="1.62079">
        <ele>142.89</ele>
        <time>2010-03-21T10:38:57Z</time>
      </trkpt>
      <trkpt lat="44.80176" lon="1.62072">
        <ele>145.78</ele>
        <time>2010-03-21T10:39:04Z</time>
      </trkpt>
      <trkpt lat="44.80174" lon="1.62069">
        <ele>147.22</ele>
        <time>2010-03-21T10:39:09Z</time>
      </trkpt>
      <trkpt lat="44.80174" lon="1.62065">
        <ele>147.22</ele>
        <time>2010-03-21T10:39:14Z</time>
      </trkpt>
      <trkpt lat="44.8017" lon="1.62057">
        <ele>147.22</ele>
        <time>2010-03-21T10:39:21Z</time>
      </trkpt>
      <trkpt lat="44.8017" lon="1.62055">
        <ele>146.26</ele>
        <time>2010-03-21T10:39:23Z</time>
      </trkpt>
      <trkpt lat="44.80169" lon="1.62052">
        <ele>150.1</ele>
        <time>2010-03-21T10:39:28Z</time>
      </trkpt>
      <trkpt lat="44.80165" lon="1.62037">
        <ele>152.51</ele>
        <time>2010-03-21T10:39:44Z</time>
      </trkpt>
      <trkpt lat="44.80166" lon="1.62031">
        <ele>152.51</ele>
        <time>2010-03-21T10:39:48Z</time>
      </trkpt>
      <trkpt lat="44.80165" lon="1.62028">
        <ele>151.06</ele>
        <time>2010-03-21T10:39:50Z</time>
      </trkpt>
      <trkpt lat="44.80163" lon="1.62026">
        <ele>152.51</ele>
        <time>2010-03-21T10:39:53Z</time>
      </trkpt>
      <trkpt lat="44.80162" lon="1.62021">
        <ele>154.43</ele>
        <time>2010-03-21T10:39:58Z</time>
      </trkpt>
      <trkpt lat="44.80156" lon="1.62014">
        <ele>154.43</ele>
        <time>2010-03-21T10:40:07Z</time>
      </trkpt>
      <trkpt lat="44.80155" lon="1.62013">
        <ele>155.39</ele>
        <time>2010-03-21T10:40:10Z</time>
      </trkpt>
      <trkpt lat="44.80152" lon="1.62009">
        <ele>155.39</ele>
        <time>2010-03-21T10:40:19Z</time>
      </trkpt>
      <trkpt lat="44.80152" lon="1.62007">
        <ele>158.75</ele>
        <time>2010-03-21T10:40:26Z</time>
      </trkpt>
      <trkpt lat="44.80149" lon="1.62009">
        <ele>158.75</ele>
        <time>2010-03-21T10:40:27Z</time>
      </trkpt>
      <trkpt lat="44.80148" lon="1.62008">
        <ele>157.79</ele>
        <time>2010-03-21T10:40:29Z</time>
      </trkpt>
      <trkpt lat="44.80146" lon="1.62004">
        <ele>161.64</ele>
        <time>2010-03-21T10:40:34Z</time>
      </trkpt>
      <trkpt lat="44.80146" lon="1.62002">
        <ele>161.16</ele>
        <time>2010-03-21T10:40:35Z</time>
      </trkpt>
      <trkpt lat="44.80141" lon="1.61999">
        <ele>162.12</ele>
        <time>2010-03-21T10:40:41Z</time>
      </trkpt>
      <trkpt lat="44.80141" lon="1.61997">
        <ele>162.12</ele>
        <time>2010-03-21T10:40:45Z</time>
      </trkpt>
      <trkpt lat="44.80139" lon="1.61995">
        <ele>160.68</ele>
        <time>2010-03-21T10:40:46Z</time>
      </trkpt>
      <trkpt lat="44.80139" lon="1.61994">
        <ele>162.12</ele>
        <time>2010-03-21T10:40:47Z</time>
      </trkpt>
      <trkpt lat="44.80134" lon="1.61976">
        <ele>163.56</ele>
        <time>2010-03-21T10:41:00Z</time>
      </trkpt>
      <trkpt lat="44.80136" lon="1.61972">
        <ele>162.6</ele>
        <time>2010-03-21T10:41:04Z</time>
      </trkpt>
      <trkpt lat="44.80136" lon="1.61965">
        <ele>164.52</ele>
        <time>2010-03-21T10:41:09Z</time>
      </trkpt>
      <trkpt lat="44.80138" lon="1.61959">
        <ele>162.12</ele>
        <time>2010-03-21T10:41:15Z</time>
      </trkpt>
      <trkpt lat="44.80139" lon="1.61952">
        <ele>162.6</ele>
        <time>2010-03-21T10:41:20Z</time>
      </trkpt>
      <trkpt lat="44.80147" lon="1.61944">
        <ele>163.56</ele>
        <time>2010-03-21T10:41:30Z</time>
      </trkpt>
      <trkpt lat="44.80152" lon="1.61945">
        <ele>166.93</ele>
        <time>2010-03-21T10:41:38Z</time>
      </trkpt>
      <trkpt lat="44.80153" lon="1.6194">
        <ele>166.45</ele>
        <time>2010-03-21T10:41:50Z</time>
      </trkpt>
      <trkpt lat="44.80153" lon="1.61939">
        <ele>166.93</ele>
        <time>2010-03-21T10:41:52Z</time>
      </trkpt>
      <trkpt lat="44.80151" lon="1.61934">
        <ele>170.77</ele>
        <time>2010-03-21T10:41:58Z</time>
      </trkpt>
      <trkpt lat="44.80149" lon="1.6193">
        <ele>169.33</ele>
        <time>2010-03-21T10:42:01Z</time>
      </trkpt>
      <trkpt lat="44.80147" lon="1.61927">
        <ele>171.73</ele>
        <time>2010-03-21T10:42:05Z</time>
      </trkpt>
      <trkpt lat="44.80145" lon="1.61924">
        <ele>170.77</ele>
        <time>2010-03-21T10:42:09Z</time>
      </trkpt>
      <trkpt lat="44.80146" lon="1.61923">
        <ele>172.21</ele>
        <time>2010-03-21T10:42:16Z</time>
      </trkpt>
      <trkpt lat="44.80145" lon="1.61921">
        <ele>171.25</ele>
        <time>2010-03-21T10:42:18Z</time>
      </trkpt>
      <trkpt lat="44.80142" lon="1.61916">
        <ele>174.62</ele>
        <time>2010-03-21T10:42:28Z</time>
      </trkpt>
      <trkpt lat="44.80141" lon="1.61911">
        <ele>172.21</ele>
        <time>2010-03-21T10:42:31Z</time>
      </trkpt>
      <trkpt lat="44.80139" lon="1.61906">
        <ele>176.06</ele>
        <time>2010-03-21T10:42:37Z</time>
      </trkpt>
      <trkpt lat="44.8014" lon="1.61907">
        <ele>176.06</ele>
        <time>2010-03-21T10:42:38Z</time>
      </trkpt>
      <trkpt lat="44.80146" lon="1.61901">
        <ele>177.02</ele>
        <time>2010-03-21T10:42:44Z</time>
      </trkpt>
      <trkpt lat="44.80144" lon="1.61889">
        <ele>179.42</ele>
        <time>2010-03-21T10:42:54Z</time>
      </trkpt>
      <trkpt lat="44.8013" lon="1.61886">
        <ele>178.94</ele>
        <time>2010-03-21T10:43:11Z</time>
      </trkpt>
      <trkpt lat="44.8013" lon="1.61886">
        <ele>178.46</ele>
        <time>2010-03-21T10:43:12Z</time>
      </trkpt>
      <trkpt lat="44.80121" lon="1.61874">
        <ele>180.87</ele>
        <time>2010-03-21T10:43:28Z</time>
      </trkpt>
      <trkpt lat="44.80122" lon="1.61875">
        <ele>181.35</ele>
        <time>2010-03-21T10:43:30Z</time>
      </trkpt>
      <trkpt lat="44.80122" lon="1.61874">
        <ele>179.42</ele>
        <time>2010-03-21T10:43:34Z</time>
      </trkpt>
      <trkpt lat="44.80121" lon="1.61872">
        <ele>180.87</ele>
        <time>2010-03-21T10:43:37Z</time>
      </trkpt>
      <trkpt lat="44.8012" lon="1.61869">
        <ele>182.31</ele>
        <time>2010-03-21T10:43:43Z</time>
      </trkpt>
      <trkpt lat="44.80116" lon="1.61866">
        <ele>183.75</ele>
        <time>2010-03-21T10:43:54Z</time>
      </trkpt>
      <trkpt lat="44.80116" lon="1.61858">
        <ele>184.23</ele>
        <time>2010-03-21T10:44:08Z</time>
      </trkpt>
      <trkpt lat="44.80116" lon="1.61831">
        <ele>187.11</ele>
        <time>2010-03-21T10:44:19Z</time>
      </trkpt>
      <trkpt lat="44.80116" lon="1.61826">
        <ele>185.19</ele>
        <time>2010-03-21T10:44:21Z</time>
      </trkpt>
      <trkpt lat="44.80114" lon="1.61822">
        <ele>189.04</ele>
        <time>2010-03-21T10:44:24Z</time>
      </trkpt>
      <trkpt lat="44.80113" lon="1.61817">
        <ele>187.11</ele>
        <time>2010-03-21T10:44:27Z</time>
      </trkpt>
      <trkpt lat="44.80104" lon="1.61809">
        <ele>188.08</ele>
        <time>2010-03-21T10:44:39Z</time>
      </trkpt>
      <trkpt lat="44.80095" lon="1.61784">
        <ele>186.63</ele>
        <time>2010-03-21T10:44:57Z</time>
      </trkpt>
      <trkpt lat="44.80091" lon="1.61773">
        <ele>188.08</ele>
        <time>2010-03-21T10:45:04Z</time>
      </trkpt>
      <trkpt lat="44.80083" lon="1.61772">
        <ele>190.48</ele>
        <time>2010-03-21T10:45:11Z</time>
      </trkpt>
      <trkpt lat="44.80082" lon="1.6177">
        <ele>190.96</ele>
        <time>2010-03-21T10:45:12Z</time>
      </trkpt>
      <trkpt lat="44.80079" lon="1.6177">
        <ele>191.44</ele>
        <time>2010-03-21T10:45:14Z</time>
      </trkpt>
      <trkpt lat="44.80076" lon="1.61764">
        <ele>190.48</ele>
        <time>2010-03-21T10:45:18Z</time>
      </trkpt>
      <trkpt lat="44.80073" lon="1.61761">
        <ele>190</ele>
        <time>2010-03-21T10:45:20Z</time>
      </trkpt>
      <trkpt lat="44.8007" lon="1.61758">
        <ele>191.44</ele>
        <time>2010-03-21T10:45:24Z</time>
      </trkpt>
      <trkpt lat="44.80065" lon="1.61748">
        <ele>189.04</ele>
        <time>2010-03-21T10:45:29Z</time>
      </trkpt>
      <trkpt lat="44.80052" lon="1.61738">
        <ele>189.04</ele>
        <time>2010-03-21T10:45:38Z</time>
      </trkpt>
      <trkpt lat="44.80049" lon="1.61734">
        <ele>190.96</ele>
        <time>2010-03-21T10:45:42Z</time>
      </trkpt>
      <trkpt lat="44.80043" lon="1.61733">
        <ele>187.11</ele>
        <time>2010-03-21T10:45:50Z</time>
      </trkpt>
      <trkpt lat="44.80035" lon="1.61737">
        <ele>186.15</ele>
        <time>2010-03-21T10:45:56Z</time>
      </trkpt>
      <trkpt lat="44.80028" lon="1.61736">
        <ele>185.67</ele>
        <time>2010-03-21T10:46:00Z</time>
      </trkpt>
      <trkpt lat="44.80022" lon="1.61714">
        <ele>186.63</ele>
        <time>2010-03-21T10:46:09Z</time>
      </trkpt>
      <trkpt lat="44.80024" lon="1.61715">
        <ele>186.63</ele>
        <time>2010-03-21T10:46:10Z</time>
      </trkpt>
      <trkpt lat="44.80014" lon="1.61724">
        <ele>188.56</ele>
        <time>2010-03-21T10:46:14Z</time>
      </trkpt>
      <trkpt lat="44.80011" lon="1.61722">
        <ele>187.11</ele>
        <time>2010-03-21T10:46:17Z</time>
      </trkpt>
      <trkpt lat="44.80009" lon="1.61717">
        <ele>186.15</ele>
        <time>2010-03-21T10:46:19Z</time>
      </trkpt>
      <trkpt lat="44.80004" lon="1.61712">
        <ele>189.52</ele>
        <time>2010-03-21T10:46:25Z</time>
      </trkpt>
      <trkpt lat="44.80008" lon="1.61709">
        <ele>188.56</ele>
        <time>2010-03-21T10:46:29Z</time>
      </trkpt>
      <trkpt lat="44.80017" lon="1.61703">
        <ele>190.96</ele>
        <time>2010-03-21T10:46:36Z</time>
      </trkpt>
      <trkpt lat="44.80019" lon="1.61702">
        <ele>190</ele>
        <time>2010-03-21T10:46:38Z</time>
      </trkpt>
      <trkpt lat="44.80021" lon="1.61702">
        <ele>190.96</ele>
        <time>2010-03-21T10:46:44Z</time>
      </trkpt>
      <trkpt lat="44.80021" lon="1.61702">
        <ele>192.88</ele>
        <time>2010-03-21T10:46:51Z</time>
      </trkpt>
      <trkpt lat="44.80021" lon="1.61702">
        <ele>191.92</ele>
        <time>2010-03-21T10:46:52Z</time>
      </trkpt>
      <trkpt lat="44.80015" lon="1.61694">
        <ele>194.32</ele>
        <time>2010-03-21T10:47:04Z</time>
      </trkpt>
      <trkpt lat="44.80012" lon="1.61691">
        <ele>196.25</ele>
        <time>2010-03-21T10:47:18Z</time>
      </trkpt>
      <trkpt lat="44.80013" lon="1.6169">
        <ele>194.8</ele>
        <time>2010-03-21T10:47:22Z</time>
      </trkpt>
      <trkpt lat="44.80017" lon="1.61689">
        <ele>196.73</ele>
        <time>2010-03-21T10:47:26Z</time>
      </trkpt>
      <trkpt lat="44.80019" lon="1.6168">
        <ele>197.69</ele>
        <time>2010-03-21T10:47:41Z</time>
      </trkpt>
      <trkpt lat="44.80014" lon="1.61678">
        <ele>201.05</ele>
        <time>2010-03-21T10:47:46Z</time>
      </trkpt>
      <trkpt lat="44.80008" lon="1.6168">
        <ele>200.09</ele>
        <time>2010-03-21T10:47:53Z</time>
      </trkpt>
      <trkpt lat="44.80005" lon="1.61684">
        <ele>203.46</ele>
        <time>2010-03-21T10:48:01Z</time>
      </trkpt>
      <trkpt lat="44.80005" lon="1.61683">
        <ele>203.94</ele>
        <time>2010-03-21T10:48:11Z</time>
      </trkpt>
      <trkpt lat="44.80017" lon="1.61677">
        <ele>205.38</ele>
        <time>2010-03-21T10:48:24Z</time>
      </trkpt>
      <trkpt lat="44.8001" lon="1.61682">
        <ele>205.86</ele>
        <time>2010-03-21T10:48:39Z</time>
      </trkpt>
      <trkpt lat="44.80005" lon="1.61673">
        <ele>208.74</ele>
        <time>2010-03-21T10:48:47Z</time>
      </trkpt>
      <trkpt lat="44.80003" lon="1.61676">
        <ele>209.7</ele>
        <time>2010-03-21T10:48:49Z</time>
      </trkpt>
      <trkpt lat="44.79999" lon="1.61673">
        <ele>211.15</ele>
        <time>2010-03-21T10:49:00Z</time>
      </trkpt>
      <trkpt lat="44.80002" lon="1.6167">
        <ele>210.19</ele>
        <time>2010-03-21T10:49:03Z</time>
      </trkpt>
      <trkpt lat="44.80006" lon="1.61665">
        <ele>212.11</ele>
        <time>2010-03-21T10:49:06Z</time>
      </trkpt>
      <trkpt lat="44.80014" lon="1.61659">
        <ele>212.11</ele>
        <time>2010-03-21T10:49:12Z</time>
      </trkpt>
      <trkpt lat="44.8002" lon="1.61654">
        <ele>214.03</ele>
        <time>2010-03-21T10:49:16Z</time>
      </trkpt>
      <trkpt lat="44.80023" lon="1.61652">
        <ele>212.59</ele>
        <time>2010-03-21T10:49:18Z</time>
      </trkpt>
      <trkpt lat="44.80034" lon="1.61647">
        <ele>214.51</ele>
        <time>2010-03-21T10:49:26Z</time>
      </trkpt>
      <trkpt lat="44.80037" lon="1.61647">
        <ele>214.03</ele>
        <time>2010-03-21T10:49:29Z</time>
      </trkpt>
      <trkpt lat="44.80037" lon="1.61652">
        <ele>214.03</ele>
        <time>2010-03-21T10:49:32Z</time>
      </trkpt>
      <trkpt lat="44.80048" lon="1.61654">
        <ele>215.95</ele>
        <time>2010-03-21T10:49:41Z</time>
      </trkpt>
      <trkpt lat="44.80047" lon="1.61651">
        <ele>217.4</ele>
        <time>2010-03-21T10:49:43Z</time>
      </trkpt>
      <trkpt lat="44.80052" lon="1.61638">
        <ele>217.4</ele>
        <time>2010-03-21T10:49:48Z</time>
      </trkpt>
      <trkpt lat="44.80047" lon="1.61635">
        <ele>217.88</ele>
        <time>2010-03-21T10:49:53Z</time>
      </trkpt>
      <trkpt lat="44.80035" lon="1.61638">
        <ele>219.32</ele>
        <time>2010-03-21T10:50:01Z</time>
      </trkpt>
      <trkpt lat="44.80034" lon="1.61642">
        <ele>218.84</ele>
        <time>2010-03-21T10:50:03Z</time>
      </trkpt>
      <trkpt lat="44.80044" lon="1.61631">
        <ele>223.16</ele>
        <time>2010-03-21T10:50:12Z</time>
      </trkpt>
      <trkpt lat="44.80047" lon="1.61643">
        <ele>225.57</ele>
        <time>2010-03-21T10:50:22Z</time>
      </trkpt>
      <trkpt lat="44.80051" lon="1.61642">
        <ele>226.53</ele>
        <time>2010-03-21T10:50:25Z</time>
      </trkpt>
      <trkpt lat="44.80051" lon="1.61638">
        <ele>227.01</ele>
        <time>2010-03-21T10:50:41Z</time>
      </trkpt>
      <trkpt lat="44.8004" lon="1.61658">
        <ele>230.37</ele>
        <time>2010-03-21T10:50:52Z</time>
      </trkpt>
      <trkpt lat="44.80041" lon="1.61661">
        <ele>228.93</ele>
        <time>2010-03-21T10:51:01Z</time>
      </trkpt>
      <trkpt lat="44.80056" lon="1.6165">
        <ele>232.3</ele>
        <time>2010-03-21T10:51:14Z</time>
      </trkpt>
      <trkpt lat="44.80054" lon="1.61639">
        <ele>231.33</ele>
        <time>2010-03-21T10:51:28Z</time>
      </trkpt>
      <trkpt lat="44.80051" lon="1.61635">
        <ele>230.37</ele>
        <time>2010-03-21T10:51:30Z</time>
      </trkpt>
      <trkpt lat="44.80044" lon="1.61625">
        <ele>233.74</ele>
        <time>2010-03-21T10:51:41Z</time>
      </trkpt>
      <trkpt lat="44.80041" lon="1.61628">
        <ele>231.33</ele>
        <time>2010-03-21T10:51:45Z</time>
      </trkpt>
      <trkpt lat="44.80039" lon="1.61626">
        <ele>234.22</ele>
        <time>2010-03-21T10:51:49Z</time>
      </trkpt>
      <trkpt lat="44.80038" lon="1.61625">
        <ele>234.22</ele>
        <time>2010-03-21T10:51:50Z</time>
      </trkpt>
      <trkpt lat="44.80036" lon="1.61623">
        <ele>232.78</ele>
        <time>2010-03-21T10:51:53Z</time>
      </trkpt>
      <trkpt lat="44.80027" lon="1.61622">
        <ele>233.26</ele>
        <time>2010-03-21T10:52:04Z</time>
      </trkpt>
      <trkpt lat="44.80026" lon="1.61618">
        <ele>235.66</ele>
        <time>2010-03-21T10:52:07Z</time>
      </trkpt>
      <trkpt lat="44.80024" lon="1.61619">
        <ele>235.18</ele>
        <time>2010-03-21T10:52:12Z</time>
      </trkpt>
      <trkpt lat="44.80027" lon="1.61611">
        <ele>238.06</ele>
        <time>2010-03-21T10:52:14Z</time>
      </trkpt>
      <trkpt lat="44.80041" lon="1.61607">
        <ele>240.95</ele>
        <time>2010-03-21T10:52:22Z</time>
      </trkpt>
      <trkpt lat="44.8005" lon="1.6159">
        <ele>242.39</ele>
        <time>2010-03-21T10:52:26Z</time>
      </trkpt>
      <trkpt lat="44.8006" lon="1.61585">
        <ele>244.31</ele>
        <time>2010-03-21T10:52:40Z</time>
      </trkpt>
      <trkpt lat="44.80065" lon="1.61599">
        <ele>245.75</ele>
        <time>2010-03-21T10:52:43Z</time>
      </trkpt>
      <trkpt lat="44.80056" lon="1.61609">
        <ele>245.27</ele>
        <time>2010-03-21T10:52:53Z</time>
      </trkpt>
      <trkpt lat="44.80054" lon="1.61607">
        <ele>246.72</ele>
        <time>2010-03-21T10:52:54Z</time>
      </trkpt>
      <trkpt lat="44.80049" lon="1.61596">
        <ele>246.23</ele>
        <time>2010-03-21T10:52:59Z</time>
      </trkpt>
      <trkpt lat="44.80047" lon="1.61598">
        <ele>246.23</ele>
        <time>2010-03-21T10:53:03Z</time>
      </trkpt>
      <trkpt lat="44.80044" lon="1.61595">
        <ele>245.27</ele>
        <time>2010-03-21T10:53:05Z</time>
      </trkpt>
      <trkpt lat="44.8004" lon="1.61593">
        <ele>246.23</ele>
        <time>2010-03-21T10:53:09Z</time>
      </trkpt>
      <trkpt lat="44.80038" lon="1.61587">
        <ele>245.27</ele>
        <time>2010-03-21T10:53:11Z</time>
      </trkpt>
      <trkpt lat="44.80035" lon="1.61586">
        <ele>246.23</ele>
        <time>2010-03-21T10:53:13Z</time>
      </trkpt>
      <trkpt lat="44.80027" lon="1.61586">
        <ele>244.31</ele>
        <time>2010-03-21T10:53:19Z</time>
      </trkpt>
      <trkpt lat="44.80024" lon="1.61586">
        <ele>243.35</ele>
        <time>2010-03-21T10:53:21Z</time>
      </trkpt>
      <trkpt lat="44.80017" lon="1.61583">
        <ele>245.27</ele>
        <time>2010-03-21T10:53:30Z</time>
      </trkpt>
      <trkpt lat="44.80017" lon="1.61582">
        <ele>245.27</ele>
        <time>2010-03-21T10:53:31Z</time>
      </trkpt>
      <trkpt lat="44.80017" lon="1.61581">
        <ele>243.83</ele>
        <time>2010-03-21T10:53:33Z</time>
      </trkpt>
      <trkpt lat="44.80018" lon="1.61578">
        <ele>245.27</ele>
        <time>2010-03-21T10:53:35Z</time>
      </trkpt>
      <trkpt lat="44.80014" lon="1.61553">
        <ele>243.83</ele>
        <time>2010-03-21T10:53:47Z</time>
      </trkpt>
      <trkpt lat="44.80012" lon="1.61536">
        <ele>245.27</ele>
        <time>2010-03-21T10:53:56Z</time>
      </trkpt>
      <trkpt lat="44.80012" lon="1.6153">
        <ele>245.27</ele>
        <time>2010-03-21T10:54:00Z</time>
      </trkpt>
      <trkpt lat="44.80009" lon="1.61521">
        <ele>243.83</ele>
        <time>2010-03-21T10:54:05Z</time>
      </trkpt>
      <trkpt lat="44.79979" lon="1.6154">
        <ele>243.35</ele>
        <time>2010-03-21T10:54:11Z</time>
      </trkpt>
      <trkpt lat="44.79993" lon="1.61516">
        <ele>244.31</ele>
        <time>2010-03-21T10:54:21Z</time>
      </trkpt>
      <trkpt lat="44.79995" lon="1.61513">
        <ele>243.35</ele>
        <time>2010-03-21T10:54:23Z</time>
      </trkpt>
      <trkpt lat="44.80001" lon="1.61506">
        <ele>242.87</ele>
        <time>2010-03-21T10:54:29Z</time>
      </trkpt>
      <trkpt lat="44.80002" lon="1.61503">
        <ele>244.31</ele>
        <time>2010-03-21T10:54:31Z</time>
      </trkpt>
      <trkpt lat="44.80006" lon="1.61497">
        <ele>243.83</ele>
        <time>2010-03-21T10:54:36Z</time>
      </trkpt>
      <trkpt lat="44.80008" lon="1.61484">
        <ele>242.39</ele>
        <time>2010-03-21T10:54:40Z</time>
      </trkpt>
      <trkpt lat="44.80005" lon="1.61475">
        <ele>243.35</ele>
        <time>2010-03-21T10:54:46Z</time>
      </trkpt>
    </trkseg>
  </trk>
</gpx>